[[{"header":{"parameterUnit":"m.s-1","parameterCategory":1,"la1":30.6,"la2":29.2853,"lo1":-89.7004,"lo2":-87.6739,"dy":0.0162,"dx":0.0183,"nx":112,"ny":82,"refTime":"2024-09-18T12:00:00:Z","depth":0,"parameterNumber":2,"parameterNumberName":"U-component_of_WINDS"},"data":[0.0,0.0,0.0,0.0,0.0,0.0,0.0,0.0,0.0,0.0,0.0,0.0,0.0,0.0,0.0,0.0,0.0,0.0,0.0,0.0,0.0,0.0,0.0,0.0,0.0,0.0,0.0,0.0,0.0,0.0,0.0,0.0,0.0,0.0,0.0,0.0,0.0,0.0,0.0,0.0,0.0,0.0,0.0,0.0,0.0,0.0,0.0,0.0,0.0,0.0,0.0,0.0,0.0,0.0,0.0,0.0,0.0,0.0,0.0,0.0,0.0,0.0,0.0,0.0,0.0,0.0,0.0,0.0,0.0,0.0,0.0,0.0,0.0,0.0,0.0,0.0,0.0,0.0,0.0,0.0,0.0,0.0,0.0,0.0,0.0,0.0,0.0,0.0,0.0,0.0,0.1151,0.132,0.1139,0.0983,0.0922,0.092,0.091,0.089,0.0,0.0,0.0,0.0,0.0,0.0,0.0,0.0,0.0,0.0,0.0,0.0,0.0,0.0,0.0,0.0,0.0,0.0,0.0,0.0,0.0,0.0,0.0,0.0,0.0,0.0,0.0,0.0,0.0,0.0,0.0,0.0,0.0,0.0,0.0,0.0,0.0,0.0,0.0,0.0,0.0,0.0,0.0,0.0,0.0,0.0,0.0,0.0,0.0,0.0,0.0,0.0,0.0,0.0,0.0,0.0,0.0,0.0,0.0,0.0,0.0,0.0,0.0,0.0,0.0,0.0,0.0,0.0,0.0,0.0,0.0,0.0,0.0,0.0,0.0,0.0,0.0,0.0,0.0,0.0,0.0,0.0,0.0,0.0,0.0,0.0,0.0,0.0,0.0,0.0,0.0,0.0,0.0,0.0,0.0,0.0,0.0,0.0,0.0,0.0,0.0,0.0,0.0,0.0,0.1023,0.105,0.1018,0.0998,0.0984,0.0982,0.1077,0.129,0.0,0.0,0.0,0.0,0.0,0.0,0.0,0.0,0.0,0.0,0.0,0.0,0.0,0.0,0.0,0.0,0.0,0.0,0.0,0.0,0.0,0.0,0.0,0.0,0.0,0.0,0.0,0.0,0.0,0.0,0.0,0.0,0.0,0.0,0.0,0.0,0.0,0.0,0.0,0.0,0.0,0.0,0.0,0.0,0.0,0.0,0.0,0.0,0.0,0.0,0.0,0.0,0.0,0.0,0.0,0.0,0.0,0.0,0.0,0.0,0.0,0.0,0.0,0.0,0.0,0.0,0.0,0.0,0.0,0.0,0.0,0.0,0.0,0.0,0.0,0.0,0.0,0.0,0.0,0.0,0.0,0.0,0.0,0.0,0.0,0.0,0.0,0.0,0.0,0.0,0.0,0.0,0.0,0.0,0.0,0.0,0.0,0.0,0.0,0.0,0.0,0.0,0.0,0.0981,0.0962,0.0989,0.1029,0.1038,0.1007,0.1004,0.1039,0.1121,0.0827,0.0,0.0,0.0,0.0,0.0,0.0,0.0,0.0,0.0,0.0,0.0,0.0,0.0,0.0,0.0,0.0,0.0,0.0,0.0,0.0,0.0,0.0,0.0,0.0,0.0,0.0,0.0,0.0,0.0,0.0,0.0,0.0,0.0,0.0,0.0,0.0,0.0,0.0,0.0,0.0,0.0,0.0,0.0,0.0,0.0,0.0,0.0,0.0,0.0,0.0,0.0,0.0,0.0,0.0,0.0,0.0,0.0,0.0,0.0,0.0,0.0,0.0,0.0,0.0,0.0,0.0,0.0,0.0,0.0,0.0,0.0,0.0,0.0,0.0,0.0,0.0,0.0,0.0,0.0,0.0,0.0,0.0,0.0,0.0,0.0,0.0,0.0,0.0,0.0,0.0,0.0,0.0,0.0,0.0,0.0,0.0,0.0,0.0,0.0,0.0,0.0,0.0,0.0864,0.0937,0.0999,0.1057,0.1068,0.1009,0.099,0.099,0.1033,0.0826,0.0,0.0,0.0,0.0,0.0,0.0,0.0,0.0,0.0,0.0,0.0,0.0,0.0,0.0,0.0,0.0,0.0,0.0,0.0,0.0,0.0,0.0,0.0,0.0,0.0,0.0,0.0,0.0,0.0,0.0,0.0,0.0,0.0,0.0,0.0,0.0,0.0,0.0,0.0,0.0,0.0,0.0,0.0,0.0,0.0,0.0,0.0,0.0,0.0,0.0,0.0,0.0,0.0,0.0,0.0,0.0,0.0,0.0,0.0,0.0,0.0,0.0,0.0,0.0,0.0,0.0,0.0,0.0,0.0,0.0,0.0,0.0,0.0,0.0,0.0,0.0,0.0,0.0,0.0,0.0,0.0,0.0,0.0,0.0,0.0,0.0,0.0,0.0,0.0,0.0,0.0,0.0,0.0,0.0,0.0,0.0,0.0,0.0,0.0,0.0,0.0,0.0,0.0875,0.0999,0.1003,0.1057,0.1068,0.1009,0.0937,0.1064,0.1434,0.098,0.0,0.0,0.0,0.0,0.0,0.0,0.0,0.0,0.0,0.0,0.0,0.0,0.0,0.0,0.0,0.0,0.0,0.0,0.0,0.0,0.0,0.0,0.0,0.0,0.0,0.0,0.0,0.0,0.0,0.0,0.0,0.0,0.0,0.0,0.0,0.0,0.0,0.0,0.0,0.0,0.0,0.0,0.0,0.0,0.0,0.0,0.0,0.0,0.0,0.0,0.0,0.0,0.0,0.0,0.0,0.0,0.0,0.0,0.0,0.0,0.0,0.0,0.0,0.0,0.0,0.0,0.0,0.0,0.0,0.0,0.0,0.0,0.0,0.0,0.0,0.0,0.0,0.0,0.0,0.0,0.0,0.0,0.0,0.0,0.0,0.0,0.0,0.0,0.0,0.0,0.0,0.0,0.0,0.0,0.0,0.0,0.0,0.0,0.0,0.0,0.0,0.0,0.0844,0.0946,0.1,0.1057,0.1101,0.1117,0.1103,0.1149,0.1306,0.0,0.0,0.0,0.0,0.0,0.0,0.0,0.0,0.0,0.0,0.0,0.0,0.0,0.0,0.0,0.0,0.0,0.0,0.0,0.0,0.0,0.0,0.0,0.0,0.0,0.0,0.0,0.0,0.0,0.0,0.0,0.0,0.0,0.0,0.0,0.0,0.0,0.0,0.0,0.0,0.0,0.0,0.0,0.0,0.0,0.0,0.0,0.0,0.0,0.0,0.0,0.0,0.0,0.0,0.0,0.0,0.0,0.0,0.0,0.0,0.0,0.0,0.0,0.0,0.0,0.0,0.0,0.0,0.0,0.0,0.0,0.0,0.0,0.0,0.0,0.0,0.0,0.0,0.0,0.0,0.0,0.0,0.0,0.0,0.0,0.0,0.0,0.0,0.0,0.0,0.0,0.0,0.0,0.0,0.0,0.0,0.0,0.0,0.0,0.0,0.0,0.0,0.0684,0.084,0.0942,0.0999,0.1057,0.1117,0.1133,0.1153,0.1154,0.1137,0.0,0.0,0.0,0.0,0.0,0.0,0.0,0.0,0.0,0.0,0.0,0.0,0.0,0.0,0.0,0.0,0.0,0.0,0.0,0.0,0.0,0.0,0.0,0.0,0.0,0.0,0.0,0.0,0.0,0.0,0.0,0.0,0.0,0.0,0.0,0.0,0.0,0.0,0.0,0.0,0.0,0.0,0.0,0.0,0.0,0.0,0.0,0.0,0.0,0.0,0.0,0.0,0.0,0.0,0.0,0.0,0.0,0.0,0.0,0.0,0.0,0.0,0.0,0.0,0.0,0.0,0.0,0.0,0.0,0.0,0.0,0.0,0.0,0.0,0.0,0.0,0.0,0.0,0.0,0.0,0.0,0.0,0.0,0.0,0.0,0.0,0.0,0.0,0.0,0.0,0.0,0.0,0.0,0.0,0.0,0.0,0.0,0.0,0.0,0.0,0.0,0.0,0.069,0.0877,0.1004,0.1004,0.1057,0.1068,0.1009,0.1064,0.1072,0.0,0.0,0.0,0.0,0.0,0.0,0.0,0.0,0.0,0.0,0.0,0.0,0.0,0.0,0.0,0.0,0.0,0.0,0.0,0.0,0.0,0.0,0.0,0.0,0.0,0.0,0.0,0.0,0.0,0.0,0.0,0.0,0.0,0.0,0.0,0.0,0.0,0.0,0.0,0.0,0.0,0.0,0.0,0.0,0.0,0.0,0.0,0.0,0.0,0.0,0.0,0.0,0.0,0.0,0.0,0.0,0.0,0.0,0.0,0.0,0.0,0.0,0.0,0.0,0.0,0.0,0.0,0.0,0.0,0.0,0.0,0.0,0.0,0.0,0.0,0.0,0.0,0.0,0.0,0.0,0.0,0.0,0.0,0.0,0.0,0.0,0.0,0.0,0.0,0.0,0.0,0.0,0.0,0.0,0.0,0.0,0.0,0.0,0.0,0.0,0.0,0.0,0.0,0.0753,0.0904,0.0997,0.1002,0.1019,0.1062,0.1131,0.1251,0.1263,0.1146,0.0,0.0,0.0,0.0,0.0,0.0,0.0,0.0,0.0,0.0,0.0,0.0,0.0,0.0,0.0,0.0,0.0,0.0,0.0,0.0,0.0,0.0,0.0,0.0,0.0,0.0,0.0,0.0,0.0,0.0,0.0,0.0,0.0,0.0,0.0,0.0,0.0,0.0,0.0,0.0,0.0,0.0,0.0,0.0,0.0,0.0,0.0,0.0,0.0,0.0,0.0,0.0,0.0,0.0,0.0,0.0,0.0,0.0,0.0,0.0,0.0,0.0,0.0,0.0,0.0,0.0,0.0,0.0,0.0,0.0,0.0,0.0,0.0,0.0,0.0,0.0,0.0,0.0,0.0,0.0,0.0,0.0,0.0,0.0,0.0,0.0,0.0,0.0,0.0,0.0,0.0,0.0,0.0,0.0,0.0,0.0,0.0,0.0,0.0,0.0,0.0,0.0,0.078,0.0917,0.1,0.0998,0.1027,0.1066,0.1116,0.1291,0.1331,0.1174,0.0,0.0,0.0,0.0,0.0,0.0,0.0,0.0,0.0,0.0,0.0,0.0,0.0,0.0,0.0,0.0,0.0,0.0,0.0,0.0,0.0,0.0,0.0,0.0,0.0,0.0,0.0,0.0,0.0,0.0,0.0,0.0,0.0,0.0,0.0,0.0,0.0,0.0,0.0,0.0,0.0,0.0,0.0,0.0,0.0,0.0,0.0,0.0,0.0,0.0,0.0,0.0,0.0,0.0,0.0,0.0,0.0,0.0,0.0,0.0,0.0,0.0,0.0,0.0,0.0,0.0,0.0,0.0,0.0,0.0,0.0,0.0,0.0,0.0,0.0,0.0,0.0,0.0,0.0,0.0,0.0,0.0,0.0,0.0,0.0,0.0,0.0,0.0,0.0,0.0,0.0,0.0,0.0,0.0,0.0,0.0,0.0,0.0,0.0,0.0,0.0,0.0,0.0795,0.0915,0.1001,0.1002,0.1058,0.1065,0.1009,0.1248,0.1311,0.1127,0.0,0.0,0.0,0.0,0.0,0.0,0.0,0.0,0.0,0.0,0.0,0.0,0.0,0.0,0.0,0.0,0.0,0.0,0.0,0.0,0.0,0.0,0.0,0.0,0.0,0.0,0.0,0.0,0.0,0.0,0.0,0.0,0.0,0.0,0.0,0.0,0.0,0.0,0.0,0.0,0.0,0.0,0.0,0.0,0.0,0.0,0.0,0.0,0.0,0.0,0.0,0.0,0.0,0.0,0.0,0.0,0.0,0.0,0.0,0.0,0.0755,0.0892,0.0,0.0,0.0,0.0,0.0,0.0,0.0,0.0,0.0,0.0,0.0,0.0,0.0,0.0,0.0,0.0,0.0,0.0,0.0,0.0,0.0,0.0,0.0,0.0,0.0,0.0,0.0,0.0,0.0,0.0,0.0,0.0,0.0,0.0,0.0,0.0,0.0,0.0,0.0,0.0,0.085,0.0957,0.1025,0.1077,0.1052,0.1012,0.1007,0.1253,0.1334,0.1194,0.1308,0.0,0.0,0.0,0.0,0.0,0.0,0.0,0.0,0.0,0.0,0.0,0.0,0.0,0.0,0.0,0.0,0.0,0.0,0.0,0.0,0.0,0.0,0.0,0.0,0.0,0.0,0.0,0.0,0.0,0.0,0.0,0.0,0.0,0.0,0.0,0.0,0.0,0.0,0.0,0.0,0.0,0.0,0.0,0.0,0.0,0.0,0.0,0.0,0.0,0.0,0.0,0.0,0.0,0.0,0.0,0.0,0.0,0.0,0.0,0.0225,0.0471,0.0,0.0,0.0,0.0,0.0,0.0,0.0,0.0,0.0,0.0,0.0,0.0,0.0,0.0,0.0,0.0,0.0,0.0,0.0,0.0,0.0,0.0,0.0,0.0,0.0,0.0,0.0,0.0,0.0,0.0,0.0,0.0,0.0,0.0,0.0,0.0,0.0,0.0,0.0,0.0,0.0834,0.0676,0.0673,0.1054,0.1129,0.1139,0.1137,0.1394,0.1499,0.1404,0.1463,0.0,0.0,0.0,0.0,0.0,0.0,0.0,0.0,0.0,0.0,0.0,0.0,0.0,0.0,0.0,0.0,0.0,0.0,0.0,0.0,0.0,0.0,0.0,0.0,0.0,0.0,0.0,0.0,0.0,0.0,0.0,0.0,0.0,0.0,0.0,0.0,0.0,0.0,0.0,0.0,0.0,0.0,0.0,0.0,0.0,0.0,0.0,0.0,0.0,0.0,0.0,0.0,0.0,-0.1221,-0.1582,-0.1595,-0.226,-0.2566,-0.2473,-0.0692,-0.0396,-0.1072,-0.0186,0.0,0.0,0.0,0.0,0.0,0.0,0.0,0.0,0.0,0.0,0.0,0.0,0.0,0.0,0.0,0.0,0.0,0.0,0.0,0.0,0.0,0.0,-0.2291,-0.1829,-0.2058,-0.2207,-0.1597,0.0,0.0,0.0,0.0,0.0,0.0,0.0,0.0,0.0,0.0,0.0,0.0475,0.0124,0.0049,0.0653,0.0824,0.093,0.1065,0.1322,0.1501,0.1576,0.162,0.159,0.0,0.0,0.0,0.0,0.0,0.0,0.0,0.0,0.0,0.0,0.0,0.0,0.0,0.0,0.0,0.0,0.0,0.0,0.0,0.0,0.0,0.0,0.0,0.0,0.0,0.0,0.0,0.0,0.0,0.0,0.0,0.0,0.0146,-0.0637,0.0,0.0,0.0,0.0,0.0,0.0,0.0,0.0,0.0,0.0,0.0,0.0,0.0,-0.2046,-0.2174,-0.2284,-0.2336,-0.2348,-0.2584,-0.2684,-0.27,-0.2805,-0.2849,-0.2825,-0.2545,0.0,-0.2099,-0.1959,0.0,0.0,0.0,0.0,0.0,0.0,0.0,0.0,0.0,0.0,0.0,0.0,0.0,0.0,0.0,0.0,0.0,0.0,0.0,0.0,0.0,0.0,-0.3189,-0.3007,-0.3018,-0.3039,-0.2938,-0.2022,-0.1202,-0.1176,-0.1089,-0.1016,0.0,0.0,0.0,0.0,0.0,0.0,-0.0782,-0.0868,-0.0911,-0.0821,-0.0789,-0.0531,0.0113,0.0417,0.0837,0.1469,0.1681,0.1766,0.1749,0.1514,0.0,0.0,0.0,0.0,0.0,0.0,0.0,0.0,0.0,0.0,0.0,0.0,0.0,0.0,0.0,0.0,0.0,0.0,0.0,0.0,0.0,0.0,0.0,0.0,0.0,0.0,0.0,0.0,0.0,-0.0191,-0.0639,-0.0869,-0.1248,-0.1466,0.0,0.0,0.0,0.0,0.0,0.0,0.0,0.0,0.0,-0.2516,-0.2597,-0.2673,-0.2717,-0.2788,-0.2817,-0.281,-0.3327,-0.3583,-0.3581,-0.4092,-0.4315,-0.4315,-0.4315,-0.4157,-0.3853,-0.2917,-0.2627,-0.2757,0.0,0.0,0.0,0.0,-0.2148,-0.2136,-0.2546,-0.2573,-0.2458,-0.2505,0.0,0.0,0.0,0.0,0.0,0.0,0.0,-0.2779,-0.289,-0.3181,-0.3442,-0.3432,-0.3434,-0.3434,-0.3434,-0.2906,-0.231,-0.189,-0.1846,-0.1743,-0.1281,-0.1257,0.0,0.0,0.0,-0.1718,-0.1134,-0.1483,-0.1601,-0.1144,-0.0992,-0.0803,-0.0479,-0.0097,0.0384,0.1013,0.1305,0.1586,0.1845,0.1711,0.1552,0.0,0.0,0.0,0.0,0.0,0.0,0.0,0.0,0.0,0.0,0.0,0.0,0.0,0.0,0.0,0.0,0.0,0.0,0.0,0.0,0.0,0.0,0.0,0.0,0.0,0.0,0.0,0.0,-0.0966,-0.141,-0.1366,-0.1925,-0.2245,0.0,0.0,0.0,0.0,0.0,0.0,-0.2673,-0.2894,-0.3107,-0.3336,-0.3436,-0.3507,-0.3531,-0.3559,-0.3568,-0.357,-0.42,-0.4501,-0.4522,-0.5185,-0.5485,-0.5485,-0.5485,-0.5393,-0.5173,-0.387,-0.35,-0.3708,-0.3257,-0.3086,-0.3067,-0.3073,-0.3021,-0.3008,-0.3545,-0.3636,-0.352,-0.3547,-0.3539,-0.3406,-0.2763,0.0,0.0,0.0,0.0,-0.3316,-0.3476,-0.3587,-0.3633,-0.3696,-0.3711,-0.3704,-0.3682,-0.3593,-0.3325,-0.2632,-0.2601,-0.2476,-0.1829,-0.1795,0.0,-0.1658,-0.2266,-0.2476,-0.1784,-0.2232,-0.2385,-0.1771,-0.1568,-0.1341,-0.1053,-0.0645,-0.0114,0.0553,0.0855,0.1156,0.1507,0.1582,0.1543,0.1373,0.0,0.0,0.0,0.0,0.0,0.0,0.0,0.0,0.0,0.0,0.0,0.0,0.0,0.0,0.0,0.0,0.0,0.0,0.0,0.0,0.0,0.0,0.0,0.0,0.0,0.0,0.0,0.0,0.0,-0.2542,-0.2756,0.0,0.0,0.0,0.0,-0.236,-0.2931,-0.3444,-0.371,-0.3804,-0.4215,-0.5055,-0.5076,-0.5143,-0.5279,-0.5339,-0.536,-0.536,-0.5547,-0.5625,-0.5625,-0.5669,-0.5694,-0.5694,-0.5694,-0.5602,-0.547,-0.5181,-0.4937,-0.4723,-0.4705,-0.4651,-0.4593,-0.4659,-0.4686,-0.4705,-0.4868,-0.4794,-0.4632,-0.4775,-0.4631,-0.4421,-0.439,-0.4117,0.0,0.0,-0.385,-0.3791,-0.3848,-0.392,-0.3968,-0.3972,-0.3972,-0.3971,-0.3906,-0.3879,-0.3769,-0.3411,-0.3252,-0.3151,-0.3106,0.0,-0.3111,-0.309,-0.3241,-0.334,-0.3296,-0.338,-0.3419,-0.3378,-0.3319,-0.2832,-0.1748,-0.1398,-0.0788,0.0251,0.0392,0.0449,0.0481,0.0895,0.1098,0.1031,0.1331,0.0,0.0,0.0,0.0,0.0,0.0,0.0,0.0,0.0,0.0,0.0,0.0,0.0,0.0,0.0,0.0,0.0,0.0,0.0,0.0,0.0,0.0,0.0,0.0,0.0,0.0,0.0,0.0,-0.2999,-0.3553,0.0,-0.3935,-0.4132,-0.4162,-0.3932,-0.4241,-0.4506,-0.4695,-0.4844,-0.5118,-0.551,-0.5608,-0.5706,-0.585,-0.5874,-0.5896,-0.5896,-0.5939,-0.5961,-0.5961,-0.5961,-0.5961,-0.5961,-0.5961,-0.5934,-0.5888,-0.5801,-0.5556,-0.5178,-0.5178,-0.5174,-0.5158,-0.5182,-0.5178,-0.5184,-0.5247,-0.5203,-0.5127,-0.5007,-0.493,-0.4831,-0.4485,-0.4293,-0.4185,-0.4042,-0.3975,-0.3926,-0.3958,-0.3991,-0.3994,-0.3994,-0.3994,-0.3984,-0.3973,-0.3966,-0.393,-0.3802,-0.3609,-0.343,-0.3351,-0.3362,-0.3383,-0.3341,-0.344,-0.3514,-0.3476,-0.3528,-0.3542,-0.3505,-0.3471,-0.3285,-0.2825,-0.2276,-0.1594,-0.0774,-0.0262,0.0144,0.0455,0.0618,0.0682,0.0617,0.0727,0.0848,0.0,0.0,0.0,0.0,0.0,0.0,0.0,0.0,0.0,0.0,0.0,0.0,0.0,0.0,0.0,0.0,0.0,0.0,0.0,0.0,0.0,0.0,0.0,0.0,0.0,-0.3354,-0.399,-0.3675,-0.4532,-0.4994,-0.4632,-0.4683,-0.4797,-0.4923,-0.5123,-0.5272,-0.5368,-0.5578,-0.5746,-0.5827,-0.5926,-0.6005,-0.6107,-0.611,-0.611,-0.611,-0.611,-0.611,-0.611,-0.611,-0.611,-0.611,-0.611,-0.6296,-0.6649,-0.6649,-0.6647,-0.6622,-0.5912,-0.5632,-0.5632,-0.5632,-0.5632,-0.5627,-0.5586,-0.5545,-0.5469,-0.5304,-0.5259,-0.5232,-0.487,-0.4763,-0.4699,-0.453,-0.4402,-0.4317,-0.4254,-0.4297,-0.4295,-0.4145,-0.4338,-0.454,-0.4424,-0.4606,-0.4699,-0.4415,-0.4028,-0.3698,-0.3587,-0.3614,-0.3603,-0.3548,-0.3616,-0.3652,-0.3614,-0.3638,-0.365,-0.3614,-0.356,-0.3469,-0.3274,-0.2656,-0.2025,-0.1431,-0.0811,-0.0332,-0.0016,0.0151,0.0204,0.0171,0.0296,0.0428,0.056,0.0,0.0,0.0,0.0,0.0,0.0,0.0,0.0,0.0,0.0,0.0,0.0,0.0,0.0,0.0,0.0,0.0,0.0,0.0,0.0,0.0,0.0,0.0,-0.373,-0.4921,-0.5617,-0.4717,-0.5696,-0.6053,-0.5017,-0.5145,-0.5304,-0.5309,-0.5626,-0.581,-0.581,-0.6054,-0.6204,-0.621,-0.621,-0.621,-0.6215,-0.6215,-0.6215,-0.6215,-0.6215,-0.6215,-0.6215,-0.6215,-0.6215,-0.6215,-0.6215,-0.6803,-0.7765,-0.7765,-0.8344,-0.9006,-0.6976,-0.6204,-0.6204,-0.6204,-0.6204,-0.6185,-0.604,-0.5927,-0.581,-0.581,-0.581,-0.581,-0.5788,-0.5652,-0.5515,-0.5493,-0.529,-0.504,-0.4842,-0.4928,-0.4946,-0.4478,-0.5053,-0.5645,-0.5315,-0.5806,-0.6065,-0.5291,-0.4564,-0.4035,-0.392,-0.3903,-0.3873,-0.3824,-0.3808,0.0,-0.3806,-0.3804,-0.3802,-0.3802,-0.3683,-0.3444,-0.3052,-0.2523,-0.2056,-0.1664,-0.1243,-0.1017,-0.1015,-0.0563,-0.0324,-0.0324,0.008,0.0215,0.0088,0.0,0.0,0.0,0.0,0.0,0.0,0.0,0.0,0.0,0.0,0.0,0.0,0.0,0.0,0.0,0.0,0.0,0.0,0.0,0.0,0.0,-0.6273,-0.6672,-0.6161,-0.6653,-0.7055,-0.7041,-0.743,-0.7627,-0.7418,-0.7615,-0.7785,-0.7866,-0.811,-0.8234,-0.8234,-0.8316,-0.8397,-0.8497,-0.8501,-0.8536,-0.8631,-0.8635,-0.8635,-0.8635,-0.8635,-0.8635,-0.8635,-0.8635,-0.8635,-0.8635,-0.8635,-0.8805,-0.9073,-0.9073,-0.9243,-0.9405,-0.8651,-0.8341,-0.8341,-0.8341,-0.8341,-0.8338,-0.8312,-0.8267,-0.8211,-0.8076,-0.8119,-0.8184,-0.7839,-0.7816,-0.7889,-0.7698,-0.7306,-0.6918,-0.6778,-0.6488,-0.617,-0.5897,-0.603,-0.6176,-0.6097,-0.622,-0.6296,-0.6088,-0.5883,-0.5365,-0.417,-0.3977,-0.3969,-0.3944,-0.3906,-0.3883,-0.3883,-0.3823,-0.3802,-0.3802,-0.376,-0.367,-0.3448,-0.3033,-0.2665,-0.2407,-0.1751,-0.1345,-0.1294,-0.0932,-0.0737,-0.0737,-0.0387,-0.0221,0.0,0.0,0.0,0.0,0.0,0.0,0.0,0.0,0.0,0.0,0.0,0.0,0.0,0.0,0.0,0.0,0.0,0.0,0.0,0.0,0.0,0.0,-0.78,-0.846,-0.8696,-0.8578,-0.84,-0.8195,-0.8707,-0.8961,-0.8639,-0.8787,-0.8935,-0.9015,-0.9192,-0.9291,-0.9291,-0.9341,-0.9412,-0.947,-0.9474,-0.9523,-0.9608,-0.9608,-0.9608,-0.9608,-0.9608,-0.9608,-0.9608,-0.9608,-0.9608,-0.9608,-0.9608,-0.9854,-1.0268,-1.0268,-1.0538,-1.0838,0.0,0.0,0.0,0.0,-0.9337,-0.9291,-0.9291,-0.9242,-0.918,-0.9064,-0.911,-0.9153,-0.887,-0.8897,-0.8994,-0.885,-0.8567,-0.8296,-0.8137,-0.7908,-0.7594,-0.6995,-0.716,-0.7344,-0.695,-0.7095,-0.7228,-0.6915,-0.6871,0.0,-0.5217,-0.4985,-0.4959,-0.4936,-0.4891,-0.4836,-0.4751,-0.4489,-0.4277,-0.4177,-0.3958,-0.3745,-0.3615,-0.3231,0.0,0.0,0.0,-0.1686,-0.1448,-0.1257,0.0,0.0,0.0,0.0,0.0,-0.0537,0.0,0.0,-0.0101,-0.0015,0.0,0.0,0.0,0.0,0.0,0.0,0.0,0.0,0.0,0.0,0.0,0.0,0.0,0.0,0.0,0.0,-0.9473,-1.0301,-1.1025,-1.0508,-0.9729,-0.8871,-0.9804,-1.0169,-0.933,-0.9451,-0.9558,-0.9558,-0.969,-0.9772,-0.9772,-0.9884,0.0,0.0,0.0,-0.9953,-0.9953,-0.9953,-0.9953,-0.9953,-0.9953,-0.9953,-0.9953,-0.9953,-0.9953,-0.9953,-0.9953,-1.0489,-1.137,-1.137,-1.1941,-1.2613,-1.069,-0.9953,-0.9953,-0.9953,-0.9892,-0.9772,-0.9772,0.0,0.0,-0.9611,-0.9611,-0.9611,-0.9611,-0.9611,-0.9611,-0.9611,-0.9522,-0.9378,-0.9174,-0.9166,-0.8959,-0.7922,-0.8318,-0.8697,-0.7838,-0.8165,-0.843,-0.776,-0.7621,-0.7426,-0.6764,-0.6461,-0.6294,-0.6233,-0.6222,-0.6148,-0.5969,-0.5476,-0.5059,-0.4847,-0.4367,0.0,-0.3838,-0.3485,-0.3235,-0.3098,-0.2596,-0.2075,-0.155,-0.149,-0.132,-0.101,-0.1017,-0.1044,-0.1108,-0.1119,-0.1151,-0.1199,-0.0476,-0.0323,0.0,0.0,0.0,0.0,0.0,0.0,0.0,0.0,0.0,0.0,0.0,0.0,0.0,0.0,0.0,-0.9983,-1.0659,-1.123,-1.1813,-1.1748,-1.15,-1.1117,-1.1469,-1.1677,-1.1494,-1.1654,-1.1793,-1.1793,-1.1999,-1.2152,-1.2152,-1.2169,-1.217,-1.217,-1.217,-1.217,-1.217,-1.217,-1.217,-1.217,-1.217,0.0,-1.217,-1.217,-1.217,-1.217,-1.217,-1.2292,-1.2487,-1.2487,-1.2613,-1.2764,-1.2341,-1.217,-1.217,-1.217,-1.2164,-1.2152,-1.2152,-1.2121,-1.2109,-1.2109,-1.2109,-1.2109,-1.2109,-1.2109,0.0,-1.2109,-1.1482,-1.0763,-1.0568,-0.9938,-0.9254,-0.8874,-0.8927,-0.8967,-0.8627,-0.8659,-0.8686,-0.8434,-0.8388,-0.8344,-0.8208,-0.7182,-0.6383,-0.6355,-0.6322,-0.6263,-0.6238,-0.6073,-0.5896,-0.5685,-0.557,-0.5419,-0.5228,-0.5102,-0.4977,-0.4911,-0.3657,-0.254,-0.1694,-0.1398,-0.121,-0.1087,-0.1135,-0.1171,-0.1175,-0.1232,-0.1273,-0.1283,-0.1068,-0.103,0.0,0.0,0.0,0.0,0.0,0.0,0.0,0.0,0.0,0.0,0.0,-0.7533,-0.8608,0.0,-0.99,-1.0968,-1.1467,-1.1779,-1.2062,-1.2202,-1.2163,-1.1926,-1.2109,-1.2255,-1.2255,-1.2447,-1.2587,-1.2587,-1.2719,-1.2813,-1.2813,-1.2813,-1.2813,-1.2813,-1.2813,-1.2813,-1.2813,-1.2813,-1.2813,-1.2813,-1.2813,-1.2813,-1.2813,-1.2813,-1.2813,-1.2813,-1.2813,-1.2813,-1.2813,-1.2813,-1.2813,-1.2813,-1.2813,-1.2813,-1.2813,-1.2813,-1.2813,-1.2813,-1.2813,-1.2813,-1.2813,-1.2813,-1.2813,-1.2813,-1.2813,-1.2813,-1.2813,-1.2813,-1.2419,-1.1931,-1.1549,-1.1086,-1.0529,-0.9785,-0.96,-0.9479,-0.9045,-0.8958,-0.8905,-0.8727,-0.8694,-0.8688,-0.8602,-0.7988,-0.7496,-0.7496,-0.7472,-0.7415,-0.7311,-0.7017,-0.6722,-0.6518,-0.6233,-0.5998,-0.591,-0.5754,-0.5598,-0.546,-0.4766,-0.4063,-0.3435,-0.3332,-0.3148,-0.2809,-0.2841,-0.28,-0.2704,-0.2255,-0.2058,-0.2059,-0.2012,-0.1769,0.0,0.0,0.0,0.0,0.0,0.0,0.0,-0.661,-0.7167,-0.8013,-0.8509,-0.9144,-1.0299,-1.0666,-1.1042,-1.1731,-1.2017,-1.2181,-1.2224,-1.2379,-1.2409,-1.2256,-1.2384,-1.2484,-1.2484,-1.2675,-1.2813,-1.2813,-1.2813,-1.2813,-1.2813,-1.2813,-1.2813,-1.2813,-1.2813,-1.2813,-1.2813,-1.2813,-1.2813,-1.2813,-1.2813,-1.2813,-1.2813,-1.2813,-1.2813,-1.2813,-1.2813,-1.2813,-1.2813,-1.2813,-1.2813,-1.2813,-1.2813,-1.2813,-1.2813,-1.2813,-1.2813,-1.2813,-1.2813,-1.2813,-1.2813,-1.2813,-1.2813,-1.2813,-1.2813,-1.2813,-1.2813,-1.2813,-1.2716,-1.254,-1.2102,-1.1932,-1.1565,-1.0423,-1.0171,-0.9975,-0.9303,-0.9145,-0.9092,-0.8886,-0.8822,-0.8775,-0.8659,-0.8611,-0.859,-0.859,-0.859,-0.8537,-0.8383,-0.793,-0.7563,-0.7361,-0.6899,-0.6594,-0.6543,-0.6348,-0.6103,-0.5832,-0.5784,-0.5593,-0.5196,-0.5251,-0.5071,-0.4578,-0.46,-0.449,-0.4284,-0.3519,-0.3131,-0.3098,-0.3111,-0.2526,-0.5135,-0.5453,-0.5997,-0.6832,-0.7121,-0.7658,0.0,-0.9614,-0.9628,-1.0158,-1.0638,-1.1001,-1.1171,-1.1402,-1.1747,-1.223,-1.2361,-1.2447,-1.2681,-1.2729,-1.274,-1.2708,-1.2735,-1.2751,-1.2751,-1.2772,-1.2813,-1.2813,-1.2813,-1.2813,-1.2813,-1.2813,-1.2813,-1.2813,-1.2813,-1.2813,-1.2813,-1.2813,-1.2813,-1.2813,-1.2813,-1.2813,-1.2813,-1.2813,-1.2813,-1.2813,-1.2813,-1.2813,-1.2813,-1.2813,-1.2813,-1.2813,-1.2813,-1.2813,-1.2813,-1.2813,-1.2813,-1.2813,-1.2813,-1.2813,-1.2813,-1.2813,-1.2813,-1.2813,-1.2813,-1.2813,-1.2813,-1.2813,-1.2467,-1.2078,-1.2029,-1.1663,-1.114,-1.0505,-1.0378,-1.0178,-0.9508,-0.9375,-0.9299,-0.91,-0.8934,-0.8789,-0.8773,-0.8688,-0.859,-0.859,-0.859,-0.8604,-0.8562,-0.8514,-0.8397,-0.8195,-0.8107,-0.8001,-0.7818,-0.7771,-0.7514,-0.6948,-0.659,-0.6113,-0.5483,-0.5139,-0.4922,-0.4849,-0.4906,-0.4813,-0.4551,-0.4441,-0.4309,-0.4144,-0.4244,-0.3299,-0.6828,-0.7293,-0.7744,-0.8128,-0.8743,-0.9439,-1.0143,-1.051,-1.0807,-1.1166,-1.1521,-1.1801,-1.1923,-1.2025,-1.2226,-1.2589,-1.2643,-1.2675,-1.2772,-1.267,-1.256,-1.256,-1.256,-1.2638,-1.2772,-1.2813,-1.2813,-1.2813,-1.2813,-1.2813,-1.2813,-1.2813,-1.2813,-1.2813,-1.2813,-1.2813,-1.2813,-1.2813,-1.2813,-1.2813,-1.2813,-1.2813,-1.2813,-1.2813,-1.2813,-1.2813,-1.2813,-1.2813,-1.2813,-1.2813,-1.2813,-1.2813,-1.2813,-1.2813,-1.2813,-1.2813,-1.2813,-1.2813,-1.2813,-1.2813,-1.2813,-1.2813,-1.2813,-1.2813,-1.2813,-1.2589,-1.2322,-1.2322,-1.1956,-1.1463,-1.1145,-1.09,-1.0609,-1.0068,-0.992,-0.985,-0.958,-0.9514,-0.9462,-0.9307,-0.9209,-0.9124,-0.8999,-0.8922,-0.8863,-0.8731,-0.8651,-0.859,-0.859,-0.859,-0.8558,-0.8484,-0.8472,-0.8399,-0.8191,-0.8174,-0.8021,-0.7649,-0.7568,-0.7431,-0.7137,-0.7073,-0.6989,-0.6832,-0.6852,-0.6754,-0.6521,-0.605,-0.5769,-0.5704,-0.5873,-0.5211,-0.8035,-0.8544,-0.896,-0.923,-1.0003,-1.0704,-1.0692,-1.116,-1.1649,-1.1837,-1.2055,-1.2228,-1.2382,-1.2391,-1.2468,-1.2665,-1.2745,-1.2813,-1.2813,-1.2721,-1.2598,-1.2414,-1.252,-1.2616,-1.2689,-1.2751,-1.2813,-1.2813,-1.2813,-1.2813,-1.2813,-1.2813,-1.2813,-1.2813,-1.2813,-1.2813,-1.2813,-1.2813,-1.2813,-1.2813,-1.2813,-1.2813,-1.2813,-1.2813,-1.2813,-1.2813,-1.2813,-1.2813,-1.2813,-1.2813,-1.2813,-1.2813,-1.2813,-1.2813,-1.2813,-1.2813,-1.2813,-1.2813,-1.2813,-1.2813,-1.2813,-1.2813,-1.2813,-1.2813,-1.2813,-1.2516,-1.2224,-1.2224,-1.1829,-1.1316,-1.0949,-1.0732,-1.0487,-0.9945,-0.9821,-0.9772,-0.9628,-0.9603,-0.9563,-0.9478,-0.9437,-0.9363,-0.9213,-0.9129,-0.9051,-0.8917,-0.8792,-0.87,-0.8602,-0.859,-0.859,-0.859,-0.859,-0.8533,-0.8399,-0.8387,-0.833,-0.8174,-0.8292,-0.8387,-0.8387,-0.8517,-0.852,-0.8314,-0.8269,-0.8186,-0.8056,-0.7372,-0.705,-0.7053,-0.7175,-0.6864,-0.8127,-0.8544,-0.9122,-1.0038,-1.0637,-1.1111,-1.1553,-1.2032,-1.2359,-1.2369,-1.2398,-1.238,-1.2391,-1.2391,-1.2396,-1.2402,-1.2638,-1.2813,-1.2813,-1.3139,-1.3122,-1.2485,-1.2807,-1.2894,-1.2469,-1.2654,-1.2813,-1.2813,-1.2813,-1.2813,-1.2813,-1.2813,-1.2813,-1.2813,-1.2813,-1.2813,-1.2813,-1.2813,-1.2813,-1.2813,-1.2813,-1.2813,-1.2813,-1.2813,-1.2813,-1.2813,-1.2813,-1.2813,-1.2813,-1.2813,-1.2813,-1.2813,-1.2813,-1.2813,-1.2813,-1.2813,-1.2813,-1.2813,-1.2813,-1.2813,-1.2813,-1.2813,-1.2813,-1.2813,-1.2813,-1.2789,-1.2789,-1.2789,-1.2395,-1.198,-1.1956,-1.1565,-1.1047,-1.0507,-1.0388,-1.024,-0.9702,-0.9603,-0.9599,-0.9595,-0.9502,-0.94,-0.9396,-0.9233,-0.9096,-0.9088,-0.9084,-0.8958,-0.8635,-0.859,-0.859,-0.859,-0.859,-0.8586,-0.8582,-0.8582,-0.8578,-0.8574,-0.8578,-0.8582,-0.8582,-0.8586,-0.859,-0.859,-0.8462,-0.8431,-0.848,-0.8069,-0.7888,-0.7966,-0.7832,-0.7759,-0.8716,-0.9432,-1.0153,-1.0632,-1.1348,-1.1978,-1.214,-1.242,-1.2603,-1.2447,-1.2285,-1.2147,-1.1968,-1.1941,-1.1989,-1.2168,-1.24,-1.2773,-1.3427,-1.3519,-1.3456,-1.3227,-1.3339,-1.3159,-1.248,-1.2484,-1.2621,-1.2802,-1.2813,-1.2813,-1.2813,-1.2813,-1.2813,-1.2813,-1.2813,-1.2813,-1.2813,-1.2813,-1.2813,-1.2813,-1.2813,-1.2813,-1.2813,-1.2813,-1.2813,-1.2813,-1.2813,-1.2813,-1.2813,-1.2813,-1.2813,-1.2813,-1.2813,-1.2813,-1.2813,-1.2813,-1.2813,-1.2813,-1.2813,-1.2813,-1.2813,-1.2813,-1.2813,-1.2813,-1.2813,-1.254,-1.22,-1.1834,-1.134,-1.0855,-1.0511,-1.0265,-1.0093,-0.992,-0.9871,-0.9826,-0.9628,-0.9603,-0.9603,-0.9603,-0.9551,-0.9535,-0.9535,-0.949,-0.9409,-0.9311,-0.9193,-0.9056,-0.8957,-0.8812,-0.8735,-0.8735,-0.8655,-0.859,-0.859,-0.859,-0.859,-0.859,-0.8674,-0.8735,-0.8735,-0.8852,-0.894,-0.894,-0.8886,-0.8868,-0.8891,-0.8898,-0.8906,-0.8937,-0.8964,-0.8898,-0.9475,-1.0145,-1.0731,-1.1354,-1.1957,-1.2436,-1.2517,-1.2592,-1.2642,-1.2586,-1.2275,-1.1971,-1.1914,-1.1817,-1.1918,-1.2437,-1.2694,-1.317,-1.4202,-1.411,-1.3876,-1.3625,-1.3728,-1.3449,-1.2498,-1.2904,-1.3099,-1.2821,-1.2813,-1.2813,-1.2813,-1.2813,-1.2813,-1.2813,-1.2813,-1.2813,-1.2813,-1.2813,-1.2813,-1.2813,-1.2813,-1.2813,-1.2813,-1.2813,-1.2813,-1.2813,-1.2813,-1.2813,-1.2813,-1.2813,-1.2813,-1.2813,-1.2813,-1.2813,-1.2813,-1.2813,-1.2813,-1.2813,-1.2813,-1.2813,-1.2813,-1.2813,-1.2813,-1.2813,-1.2813,-1.2565,-1.22,-1.1878,-1.1243,-1.0609,-1.0265,-0.9895,-0.9603,-0.9603,-0.9603,-0.9603,-0.9603,-0.9603,-0.9603,-0.9603,-0.9603,-0.9603,-0.9603,-0.9603,-0.9563,-0.9494,-0.9356,-0.9242,-0.9116,-0.8995,-0.8917,-0.8917,-0.882,-0.8777,-0.8777,-0.8777,-0.8777,-0.8777,-0.8861,-0.8917,-0.8917,-0.9035,-0.9096,-0.9096,-0.9067,-0.9119,-0.9213,-0.9192,-0.9231,-0.9332,-0.9322,-0.9229,-1.0322,-1.0671,-1.0978,-1.2106,-1.2449,-1.2532,-1.2791,-1.265,-1.253,-1.2814,-1.2289,-1.1843,-1.2112,-1.1956,-1.2093,-1.3061,-1.3407,-1.3941,-1.5008,-1.4799,-1.4355,-1.3807,-1.4039,-1.38,-1.2645,-1.3848,-1.4209,-1.3009,-1.288,-1.2861,-1.2861,-1.2813,-1.2813,-1.2813,-1.2813,-1.2813,-1.2813,-1.2813,-1.2813,-1.2813,-1.2813,-1.2813,-1.2813,-1.2813,-1.2813,-1.2813,-1.2813,-1.2813,-1.2813,-1.2813,-1.2813,-1.2813,-1.2813,-1.2813,-1.2813,-1.2813,-1.2813,-1.2813,-1.2813,-1.2813,-1.2813,-1.2813,-1.2813,-1.2789,-1.2764,-1.2764,-1.2764,-1.2691,-1.1927,-1.1145,-1.112,-1.0364,-0.9603,-0.9603,-0.9603,-0.9603,-0.9603,-0.9603,-0.9603,-0.9603,-0.9603,-0.9603,-0.9603,-0.9603,-0.9603,-0.9603,-0.9603,-0.9482,-0.9169,-0.9116,-0.9112,-0.9112,-0.91,-0.9096,-0.9096,-0.9096,-0.9096,-0.9096,-0.9104,-0.9112,-0.9112,-0.912,-0.9125,-0.9125,-0.9072,-0.9156,-0.9416,-0.902,-0.8977,-0.9208,-0.8952,-0.8825,-1.0762,-1.1418,-1.2009,-1.2316,-1.2967,-1.3468,-1.3295,-1.3267,-1.3131,-1.2564,-1.1796,-1.1003,-1.0343,-1.0997,-1.1764,-1.2117,-1.2773,-1.3855,-1.5671,-1.4869,-1.4445,-1.5416,-1.5138,-1.4749,-1.4445,-1.4784,-1.4862,-1.4549,-1.3956,-1.3619,-1.3619,-1.3098,-1.2813,-1.2813,-1.2813,-1.2813,-1.2813,-1.2813,-1.2813,-1.2813,-1.2813,-1.2813,-1.2813,-1.2813,-1.2813,-1.2813,-1.2813,-1.2813,-1.2813,-1.2813,-1.2813,-1.2813,-1.2813,-1.2813,-1.2813,-1.2813,-1.2813,-1.2813,-1.2813,-1.2813,-1.2813,-1.2813,-1.2813,-1.274,-1.2322,-1.22,-1.2054,-1.1243,-1.0806,-1.0507,-1.0117,-0.9801,-0.9603,-0.9603,-0.9603,-0.9603,-0.9603,-0.9603,-0.9603,-0.9603,-0.9603,-0.9603,-0.9603,-0.9603,-0.9603,-0.9603,-0.9603,-0.9571,-0.9482,-0.9372,-0.9335,-0.9335,-0.9197,-0.9096,-0.9096,-0.9096,-0.9096,-0.9096,-0.9242,-0.9335,-0.9335,-0.9421,-0.9466,-0.9466,-0.9461,-0.9485,-0.9559,-0.9456,-0.943,-0.9505,-0.943,-0.9278,-1.1462,-1.2005,-1.2436,-1.2544,-1.2916,-1.3166,-1.2871,-1.2669,-1.2457,-1.2005,-1.1171,-1.0455,-1.0248,-1.0796,-1.1567,-1.2412,-1.3311,-1.4502,-1.6269,-1.5583,-1.5242,-1.6096,-1.5835,-1.5456,-1.5123,-1.5693,-1.5788,-1.5146,-1.4358,-1.3902,-1.3902,-1.319,-1.2813,-1.2813,-1.2813,-1.2813,-1.2813,-1.2813,-1.2813,-1.2813,-1.2813,-1.2813,-1.2813,-1.2813,-1.2813,-1.2813,-1.2813,-1.2813,-1.2813,-1.2813,-1.2813,-1.2813,-1.2813,-1.2813,-1.2813,-1.2813,-1.2813,-1.2813,-1.2813,-1.2813,-1.2813,-1.2813,-1.2638,-1.2395,-1.2102,-1.1834,-1.1512,-1.0924,-1.058,-1.0339,-1.0019,-0.9776,-0.9603,-0.9603,-0.9603,-0.9603,-0.9603,-0.9603,-0.9603,-0.9603,-0.9603,-0.9603,-0.9603,-0.9603,-0.9603,-0.9603,-0.9603,-0.9603,-0.9603,-0.9539,-0.9498,-0.9498,-0.9388,-0.9332,-0.9332,-0.9332,-0.9332,-0.9332,-0.9421,-0.9498,-0.9498,-0.9547,-0.9603,-0.9603,-0.9603,-0.9603,-0.9603,-0.9603,-0.9603,-0.9603,-0.9603,-0.9529,-1.2178,-1.2436,-1.2501,-1.2697,-1.2634,-1.2416,-1.203,-1.1629,-1.1327,-1.1283,-1.0458,-0.9972,-1.0687,-1.0823,-1.1356,-1.2964,-1.4053,-1.517,-1.6554,-1.632,-1.6078,-1.6325,-1.6261,-1.5977,-1.5432,-1.645,-1.6615,-1.5337,-1.4436,-1.3955,-1.3955,-1.324,-1.2872,-1.288,-1.288,-1.288,-1.288,-1.2848,-1.2848,-1.288,-1.2872,-1.2848,-1.288,-1.288,-1.288,-1.288,-1.2872,-1.2832,-1.2832,-1.2799,-1.2813,-1.2813,-1.2813,-1.2813,-1.2813,-1.2813,-1.2813,-1.2813,-1.2813,-1.2813,-1.2813,-1.2813,-1.2443,-1.198,-1.1932,-1.1512,-1.1071,-1.0998,-1.0659,-1.029,-1.029,-0.9945,-0.9603,-0.9603,-0.9603,-0.9603,-0.9603,-0.9603,-0.9603,-0.9603,-0.9603,-0.9603,-0.9603,-0.9603,-0.9603,-0.9603,-0.9603,-0.9603,-0.9603,-0.9603,-0.9603,-0.9603,-0.9603,-0.9603,-0.9603,-0.9603,-0.9603,-0.9603,-0.9603,-0.9603,-0.9603,-0.9603,-0.9603,-0.9603,-0.9603,-0.9603,-0.9603,-0.9603,-0.9603,-0.9603,-0.9603,-0.9603,-1.2318,-1.2554,-1.2692,-1.2511,-1.277,-1.2827,-1.1946,-1.1596,-1.1291,-1.0703,-0.9727,-0.907,-0.9323,-0.9985,-1.0767,-1.1634,-1.2787,-1.4131,-1.5767,-1.5348,-1.5421,-1.6938,-1.6574,-1.6379,-1.688,-1.6598,-1.6285,-1.6025,-1.4898,-1.4219,-1.4219,-1.3485,-1.3141,-1.3371,-1.3382,-1.3382,-1.3382,-1.3147,-1.3147,-1.3377,-1.3147,-1.3152,-1.3382,-1.3382,-1.3382,-1.3371,-1.3136,-1.3044,-1.3028,-1.2864,-1.2813,-1.2813,-1.2813,-1.2813,-1.2813,-1.2813,-1.2813,-1.2813,-1.2813,-1.2813,-1.2813,-1.2813,-1.2443,-1.1932,-1.1463,-1.0949,-1.0462,-0.9994,-0.9801,-0.9752,-0.9752,-0.9677,-0.9603,-0.9603,-0.9603,-0.9603,-0.9603,-0.9603,-0.9603,-0.9603,-0.9603,-0.9603,-0.9603,-0.9603,-0.9603,-0.9603,-0.9603,-0.9603,-0.9603,-0.9603,-0.9603,-0.9603,-0.9603,-0.9603,-0.9603,-0.9603,-0.9603,-0.9603,-0.9603,-0.9603,-0.9603,-0.9603,-0.9603,-0.9603,-0.9603,-0.9603,-0.9603,-0.9603,-0.9603,-0.9603,-0.9603,-0.9603,-1.235,-1.2611,-1.2735,-1.2474,-1.2411,-1.2156,-1.1151,-1.0671,-1.0242,-0.9512,-0.8763,-0.8318,-0.8632,-0.9146,-0.9864,-1.0969,-1.2085,-1.3487,-1.5318,-1.5413,-1.5784,-1.7136,-1.6998,-1.6904,-1.7279,-1.6769,-1.6244,-1.5829,-1.4967,-1.4405,-1.4314,-1.3674,-1.3382,-1.3501,-1.3506,-1.3506,-1.3506,-1.3362,-1.3362,-1.3501,-1.3357,-1.3387,-1.3506,-1.3506,-1.3506,-1.3501,-1.3351,-1.3227,-1.3093,-1.301,-1.2897,-1.2813,-1.2813,-1.2813,-1.2813,-1.2813,-1.2813,-1.2813,-1.2813,-1.2813,-1.2813,-1.2813,-1.2443,-1.1907,-1.1365,-1.0826,-1.029,-0.9747,-0.9603,-0.9603,-0.9603,-0.9603,-0.9603,-0.9603,-0.9603,-0.9603,-0.9603,-0.9603,-0.9603,-0.9603,-0.9603,-0.9603,-0.9603,-0.9603,-0.9603,-0.9603,-0.9603,-0.9603,-0.9603,-0.9603,-0.9603,-0.9603,-0.9603,-0.9603,-0.9603,-0.9603,-0.9603,-0.9603,-0.9603,-0.9603,-0.9603,-0.9603,-0.9603,-0.9603,-0.9603,-0.9603,-0.9603,-0.9603,-0.9603,-0.9603,-0.9603,-0.9603,-1.2334,-1.2611,-1.2719,-1.2409,-1.1935,-1.1272,-1.0219,-0.9582,-0.9035,-0.8382,-0.7883,-0.7737,-0.8302,-0.8447,-0.8961,-1.0445,-1.1427,-1.275,-1.4887,-1.5496,-1.6111,-1.7169,-1.7302,-1.7331,-1.7404,-1.6927,-1.6317,-1.5566,-1.4846,-1.4372,-1.419,-1.385,-1.3657,-1.3657,-1.3657,-1.3657,-1.3657,-1.3577,-1.3577,-1.3657,-1.3577,-1.3577,-1.3657,-1.3657,-1.3657,-1.3657,-1.3603,-1.3437,-1.3254,-1.3206,-1.305,-1.2859,-1.2859,-1.2832,-1.2813,-1.2813,-1.274,-1.2638,-1.2638,-1.254,-1.2467,-1.2467,-1.2175,-1.1756,-1.1316,-1.0752,-1.0142,-0.9727,-0.9603,-0.9603,-0.9603,-0.9603,-0.9603,-0.9603,-0.9603,-0.9603,-0.9603,-0.9603,-0.9603,-0.9603,-0.9603,-0.9603,-0.9603,-0.9603,-0.9603,-0.9603,-0.9603,-0.9603,-0.9603,-0.9603,-0.9603,-0.9603,-0.9603,-0.9603,-0.9603,-0.9603,-0.9603,-0.9603,-0.9603,-0.9603,-0.9603,-0.9603,-0.9603,-0.9603,-0.9603,-0.9603,-0.9603,-0.9603,-0.9603,-0.9603,-0.9603,-0.9603,-1.2291,-1.2611,-1.2681,-1.224,-1.158,-1.075,-0.9567,-0.8788,-0.8213,-0.7839,-0.7442,-0.7402,-0.8249,-0.8073,-0.8271,-0.9753,-1.0373,-1.1581,-1.4125,-1.4836,-1.5641,-1.7123,-1.7302,-1.7419,-1.7719,-1.7112,-1.6458,-1.5896,-1.4619,-1.3881,-1.386,-1.4018,-1.4126,-1.4126,-1.4126,-1.4126,-1.4126,-1.3906,-1.3906,-1.4126,-1.39,-1.3906,-1.4126,-1.4126,-1.4126,-1.4116,-1.3884,-1.375,-1.3713,-1.3529,-1.3297,-1.3071,-1.3071,-1.2972,-1.2813,-1.2813,-1.2492,-1.2078,-1.2078,-1.1756,-1.134,-1.134,-1.1316,-1.1267,-1.1218,-1.0487,-0.9653,-0.9603,-0.9603,-0.9603,-0.9603,-0.9603,-0.9603,-0.9603,-0.9603,-0.9603,-0.9603,-0.9603,-0.9603,-0.9603,-0.9603,-0.9603,-0.9603,-0.9603,-0.9603,-0.9603,-0.9603,-0.9603,-0.9603,-0.9603,-0.9603,-0.9603,-0.9603,-0.9603,-0.9603,-0.9603,-0.9603,-0.9603,-0.9603,-0.9603,-0.9603,-0.9603,-0.9603,-0.9603,-0.9603,-0.9603,-0.9603,-0.9603,-0.9603,-0.9603,-0.9603,-0.9603,-1.16,-1.2048,-1.23,-1.1947,-1.13,-1.0498,-0.9443,-0.869,-0.8037,-0.7464,-0.7214,-0.7206,-0.7555,-0.7469,-0.7678,-0.8715,-0.9016,-0.9841,-1.195,-1.2928,-1.3833,-1.4937,-1.6067,-1.6657,-1.6386,-1.6247,-1.601,-1.568,-1.5583,-1.5326,-1.4849,-1.4427,-1.4196,-1.4196,-1.4196,-1.4196,-1.4196,-1.4094,-1.4094,-1.4196,-1.4094,-1.4094,-1.4196,-1.4196,-1.4196,-1.4186,-1.4089,-1.3959,-1.3788,-1.3717,-1.3453,-1.3104,-1.3104,-1.2988,-1.2813,-1.2813,-1.2467,-1.2005,-1.2005,-1.1663,-1.1194,-1.1194,-1.0973,-1.0728,-1.0728,-1.0408,-1.0019,-0.9702,-0.9603,-0.9603,-0.9603,-0.9603,-0.9603,-0.9603,-0.9603,-0.9603,-0.9603,-0.9603,-0.9603,-0.9603,-0.9603,-0.9603,-0.9603,-0.9603,-0.9603,-0.9603,-0.9603,-0.9603,-0.9603,-0.9603,-0.9603,-0.9603,-0.9603,-0.9603,-0.9603,-0.9603,-0.9603,-0.9603,-0.9603,-0.9603,-0.9603,-0.9603,-0.9603,-0.9603,-0.9603,-0.9603,-0.9603,-0.9603,-0.9603,-0.9603,-0.9603,-0.966,-1.1053,-1.1585,-1.1909,-1.1655,-1.1042,-1.0263,-0.9324,-0.8571,-0.789,-0.7228,-0.7098,-0.7098,-0.7098,-0.7098,-0.7337,-0.8084,-0.8133,-0.8765,-1.0726,-1.1803,-1.2809,-1.3881,-1.5423,-1.6317,-1.6131,-1.633,-1.6381,-1.6242,-1.6544,-1.6358,-1.5532,-1.4928,-1.4461,-1.4223,-1.4196,-1.4196,-1.4196,-1.4196,-1.4196,-1.4196,-1.4196,-1.4196,-1.4196,-1.4196,-1.4196,-1.4196,-1.4196,-1.4094,-1.3927,-1.3927,-1.369,-1.3313,-1.3313,-1.313,-1.2861,-1.2714,-1.2281,-1.1731,-1.1585,-1.1174,-1.0732,-1.0732,-1.0462,-1.0167,-1.0167,-1.0167,-1.0068,-0.9698,-0.9603,-0.9603,-0.9603,-0.9603,-0.9603,-0.9603,-0.9603,-0.9603,-0.9603,-0.9603,-0.9603,-0.9603,-0.9603,-0.9603,-0.9603,-0.9603,-0.9603,-0.9603,-0.9603,-0.9603,-0.9603,-0.9603,-0.9603,-0.9603,-0.9603,-0.9603,-0.9603,-0.9603,-0.9603,-0.9603,-0.9603,-0.9603,-0.9603,-0.9603,-0.9603,-0.9603,-0.9603,-0.9603,-0.9603,-0.9603,-0.9628,-0.9676,-0.9676,-0.9799,-1.0794,-1.1359,-1.1645,-1.137,-1.08,-1.0065,-0.9122,-0.8328,-0.7666,-0.7195,-0.7098,-0.7098,-0.7098,-0.7098,-0.7337,-0.8084,-0.7973,-0.8672,-1.1136,-1.2018,-1.3048,-1.4777,-1.582,-1.6748,-1.7697,-1.7888,-1.7982,-1.7956,-1.7173,-1.6358,-1.5532,-1.5479,-1.5089,-1.4223,-1.4196,-1.4196,-1.4196,-1.4196,-1.4196,-1.4196,-1.4196,-1.4196,-1.4196,-1.4196,-1.4196,-1.4196,-1.4196,-1.4191,-1.4191,-1.4191,-1.404,-1.3782,-1.3782,-1.3523,-1.3023,-1.2499,-1.184,-1.112,-1.0609,-1.0068,-0.9628,-0.9628,-0.9603,-0.9603,-0.9603,-0.9603,-0.9603,-0.9603,-0.9603,-0.9603,-0.9603,-0.9603,-0.9603,-0.9603,-0.9603,-0.9603,-0.9603,-0.9603,-0.9603,-0.9603,-0.9603,-0.9603,-0.9603,-0.9603,-0.9603,-0.9603,-0.9603,-0.9603,-0.9603,-0.9603,-0.9603,-0.9603,-0.9603,-0.9603,-0.9603,-0.9603,-0.9603,-0.9603,-0.9603,-0.9603,-0.9603,-0.9603,-0.9603,-0.9603,-0.9603,-0.9603,-0.9603,-0.9603,-0.9688,-0.9909,-0.9909,-1.0007,-0.9358,-0.9779,-0.9976,-0.9881,-0.9462,-0.8953,-0.8517,-0.7951,-0.7444,-0.7163,-0.7098,-0.7098,-0.7098,-0.7098,-0.7337,-0.8086,-0.812,-0.861,-1.0118,-1.1052,-1.203,-1.327,-1.4984,-1.6361,-1.7183,-1.7714,-1.8015,-1.8015,-1.8291,-1.8101,-1.7246,-1.6644,-1.5672,-1.4245,-1.4196,-1.4196,-1.4196,-1.4196,-1.4196,-1.4196,-1.4196,-1.4196,-1.4196,-1.4196,-1.4196,-1.4196,-1.4196,-1.4196,-1.4196,-1.4196,-1.4046,-1.3793,-1.3793,-1.3631,-1.3306,-1.2715,-1.2135,-1.1517,-1.0931,-1.0425,-1.0019,-1.0019,-1.0019,-1.0019,-1.0019,-0.9823,-0.9603,-0.9603,-0.9603,-0.9603,-0.9603,-0.9603,-0.9603,-0.9603,-0.9603,-0.9603,-0.9603,-0.9603,-0.9603,-0.9603,-0.9603,-0.9603,-0.9603,-0.9603,-0.9603,-0.9603,-0.9603,-0.9603,-0.9603,-0.9603,-0.9603,-0.9603,-0.9603,-0.9603,-0.9603,-0.9603,-0.9603,-0.9603,-0.9603,-0.9603,-0.9603,-0.9603,-0.9603,-0.9603,-0.9603,-0.966,-0.9803,-0.9803,-0.9896,-1.0101,-1.0201,-1.029,-0.8217,-0.8689,-0.8933,-0.9054,-0.8797,-0.8425,-0.8122,-0.7711,-0.7339,-0.7133,-0.7098,-0.7098,-0.7098,-0.7098,-0.7244,-0.7715,-0.7852,-0.836,-0.965,-1.0556,-1.1721,-1.3446,-1.5401,-1.6799,-1.7257,-1.8014,-1.8363,-1.8009,-1.8814,-1.8639,-1.714,-1.6829,-1.5939,-1.4245,-1.4196,-1.4196,-1.4196,-1.4196,-1.4196,-1.4196,-1.4196,-1.4196,-1.4196,-1.4196,-1.4196,-1.4196,-1.4196,-1.4196,0.0,-1.4196,-1.4099,-1.3959,-1.3959,-1.3814,-1.3532,-1.2743,-1.2169,-1.1688,-1.091,-1.0447,-1.0186,-1.0186,-1.0186,-1.0186,-1.0186,-0.9983,-0.9684,-0.9624,-0.9603,-0.9603,-0.9603,-0.9603,-0.9603,-0.9603,-0.9603,-0.9603,-0.9603,-0.9603,-0.9603,-0.9603,-0.9603,-0.9603,-0.9603,-0.9603,-0.9603,-0.9603,-0.9603,-0.9603,-0.9603,-0.9603,-0.9603,-0.9603,-0.9603,-0.9603,-0.9603,-0.9603,-0.9603,-0.9603,-0.9603,-0.9603,-0.9603,-0.9603,-0.9603,-0.9603,-0.9668,-0.9778,-0.9909,-1.0026,-1.0152,-1.027,-1.0448,-1.0503,0.0,-0.7916,-0.8298,-0.8618,-0.8522,-0.8232,-0.7771,-0.7483,0.0,-0.7093,-0.7044,-0.7074,-0.7141,-0.712,-0.7131,-0.7233,-0.7401,-0.8119,-0.9828,-1.0707,-1.2185,-1.4878,-1.6699,-1.778,-1.7828,-1.8716,-1.8952,-1.8146,-1.8795,-1.816,-1.5799,-1.6279,-1.5885,-1.4326,-1.4223,-1.4196,-1.4196,-1.4196,-1.4196,-1.4196,-1.4196,-1.4196,-1.4196,-1.4196,-1.4196,-1.4196,-1.4137,-1.4137,-1.4137,-1.4083,-1.4056,-1.4056,-1.4056,-1.3917,-1.3578,-1.2541,-1.1999,-1.1626,-1.0589,-1.0253,-1.0253,-1.0253,-1.0253,-1.0223,-1.0211,-1.0076,-0.9868,-0.9668,-0.9624,-0.962,-0.9603,-0.9603,-0.9603,-0.9603,-0.9603,-0.9603,-0.9603,-0.9603,-0.9603,-0.9603,-0.9603,-0.9603,-0.9603,-0.9603,-0.9603,-0.9603,-0.9603,-0.9603,-0.9603,-0.9603,-0.9603,-0.9603,-0.9603,-0.9603,-0.9603,-0.9603,-0.9603,-0.9603,-0.9603,-0.9603,-0.9603,-0.9616,-0.9624,-0.9624,-0.9827,-0.995,-0.9925,-1.0255,-1.0426,-1.043,-1.0615,-1.0692,-0.5552,0.0,-0.6579,-0.6664,-0.6791,-0.6806,0.0,-0.6368,-0.638,-0.6535,-0.6561,-0.6788,-0.7503,-0.7346,-0.7454,-0.8528,-0.8754,-0.9466,-1.1463,-1.3013,-1.4247,-1.5039,-1.6435,-1.7566,-1.814,-1.8873,-1.922,-1.9004,-1.8579,-1.8042,-1.743,-1.6379,-1.5586,-1.5217,-1.4536,-1.4196,-1.4196,-1.4196,-1.4196,-1.4196,-1.4196,-1.4196,-1.4196,-1.4196,-1.4196,-1.4169,-1.3699,-1.351,-1.3483,-1.3012,-1.2822,-1.2822,-1.2822,-1.2788,-1.2663,-1.1986,-1.1688,-1.154,-1.0837,-1.0566,-1.0566,-1.0566,-1.0566,-1.0542,-1.0412,-1.0245,-1.0084,-0.9876,-0.9823,-0.9795,-0.9636,-0.9603,-0.9603,-0.9603,-0.9603,-0.9603,-0.9603,-0.9603,-0.9603,-0.9603,-0.9603,-0.9603,-0.9603,-0.9603,-0.9603,-0.9603,-0.9603,-0.9603,-0.9603,-0.9603,-0.9603,-0.9603,-0.9603,-0.9603,-0.9603,-0.9603,-0.9603,-0.9603,-0.9603,-0.9603,-0.9603,-0.9754,-0.9823,-0.9823,-1.014,-1.028,-1.028,-1.0526,-1.0631,-1.0631,-1.0672,-1.0692,-0.4694,-0.5276,-0.5929,-0.6066,-0.6266,-0.6411,-0.6256,-0.6165,-0.6177,-0.6476,-0.641,-0.6541,-0.7327,-0.7199,-0.7288,-0.8266,-0.8968,-1.0078,-1.2063,-1.4019,-1.5242,-1.5119,-1.6333,-1.7498,-1.8232,-1.8917,-1.9142,-1.8736,-1.8284,-1.7667,-1.6876,-1.598,-1.5324,-1.4928,-1.4461,-1.4196,-1.4196,-1.4196,-1.4196,-1.4196,-1.4196,-1.4196,-1.4196,-1.4196,-1.4196,-1.4169,-1.3564,-1.3456,-1.3645,-1.2767,-1.255,-1.2794,-1.2523,-1.2414,-1.2332,-1.1814,-1.1596,-1.1514,-1.0911,-1.0692,-1.0692,-1.0692,-1.0692,-1.0676,-1.0582,-1.0485,-1.0377,-1.0113,-1.004,-1.0015,-0.9896,-0.9811,-0.9746,-0.9746,-0.966,-0.9603,-0.9603,-0.9603,-0.9603,-0.9603,-0.9603,-0.9603,-0.9603,-0.9603,-0.9603,-0.9603,-0.9603,-0.9603,-0.9603,-0.9603,-0.9603,-0.9603,-0.9603,-0.9636,-0.9738,-0.9746,-0.9746,-0.9746,-0.9746,-0.9782,-0.9868,-0.9991,-1.0076,-1.0136,-1.0308,-1.0446,-1.0554,-1.0647,-1.0692,-1.0692,-1.0692,-1.0692,-0.4408,-0.5064,-0.5808,-0.5971,-0.6196,-0.637,-0.6314,-0.6164,-0.6142,-0.6458,-0.6312,-0.6347,-0.7032,-0.7007,-0.7054,-0.7627,-0.8897,-1.0375,-1.2046,-1.3919,-1.5075,-1.4924,-1.6088,-1.7218,-1.8051,-1.884,-1.8952,-1.8068,-1.7884,-1.712,-1.5586,-1.5378,-1.4955,-1.4218,-1.4196,-1.4196,-1.4196,-1.4196,-1.4196,-1.4196,-1.4196,-1.4196,-1.4196,-1.4196,-1.4137,-1.4029,-1.351,-1.3483,-1.3726,-1.2686,-1.2523,-1.2849,-1.2332,-1.2137,-1.2082,-1.1623,-1.1459,-1.1377,-1.0884,-1.0692,-1.0692,-1.0692,-1.0692,-1.0692,-1.0692,-1.0692,-1.0627,-1.0353,-1.0251,-1.0223,-1.022,-1.0072,-0.9954,-0.9954,-0.9815,-0.9684,-0.9684,-0.9684,-0.9684,-0.9684,-0.9684,-0.9684,-0.9684,-0.9684,-0.9684,-0.9684,-0.9684,-0.9684,-0.9684,-0.9684,-0.9684,-0.9684,-0.9684,-0.977,-0.9942,-0.9954,-0.9966,-0.9965,-0.9966,-1.0035,-1.0223,-1.0231,-1.029,-1.0446,-1.0446,-1.0519,-1.0692,-1.0692,-1.0692,-1.0692,-1.0665,-1.0637,-0.4653,-0.5163,-0.555,-0.5186,-0.5504,-0.581,-0.5471,-0.5375,-0.5423,-0.5635,-0.5779,-0.6186,-0.7249,-0.7324,-0.7539,-0.8529,-0.9824,-1.094,-1.1618,-1.2204,-1.2954,-1.3968,-1.4918,-1.6003,-1.725,-1.8534,-1.8952,-1.8068,-1.7331,-1.6491,-1.5559,-1.4799,-1.4326,-1.4196,-1.4196,-1.4196,-1.4196,-1.4196,-1.4196,-1.4196,-1.4196,-1.4196,-1.4196,-1.4196,-1.3921,-1.3423,-1.3342,-1.2799,-1.1978,-1.1814,-1.1486,-1.1103,-1.0994,-1.0966,-1.0939,-1.0884,-1.0829,-1.0829,-1.0719,-1.0692,-1.0692,-1.0692,-1.0692,-1.0692,-1.0692,-1.0692,-1.068,-1.0654,-1.0505,-1.0332,-1.0227,-1.0192,-1.0145,-1.0145,-1.0125,-1.0105,-1.0105,-1.0105,-1.0105,-1.0105,-1.0105,-1.0105,-1.0105,-1.0105,-1.0105,-1.0105,-1.0105,-1.0105,-1.0105,-1.0105,-1.0105,-1.0105,-1.0105,-1.0117,-1.0141,-1.0145,-1.0211,-1.0312,-1.0231,-1.0227,-1.0357,-1.0365,-1.0446,-1.0647,-1.0651,-1.0668,-1.0692,-1.0692,-1.0692,-1.0692,-1.0476,-1.0363,-0.4482,-0.4926,-0.5294,-0.5156,-0.5708,-0.6203,-0.5917,-0.5845,-0.5925,-0.6202,-0.6188,-0.6416,-0.7371,-0.7472,-0.7915,-0.9511,-1.0511,-1.1268,-1.1696,-1.1987,-1.2587,-1.3757,-1.4544,-1.5663,-1.7417,-1.7726,-1.7577,-1.6909,-1.6047,-1.5206,-1.4358,-1.424,-1.4196,-1.4196,-1.4196,-1.4196,-1.4196,-1.4196,-1.4196,-1.4196,-1.4196,-1.4196,-1.4196,-1.4196,-1.3862,-1.3288,-1.2962,-1.2523,-1.1973,-1.1377,-1.1131,-1.1158,-1.0829,-1.0692,-1.0692,-1.0692,-1.0692,-1.0692,-1.0692,-1.0692,-1.0692,-1.0692,-1.0692,-1.0692,-1.0692,-1.0692,-1.0692,-1.0692,-1.0635,-1.0554,-1.0496,-1.0379,-1.031,-1.031,-1.0259,-1.0186,-1.0186,-1.0186,-1.0186,-1.0186,-1.0186,-1.0186,-1.0186,-1.0186,-1.0186,-1.0186,-1.0186,-1.0186,-1.0186,-1.0186,-1.0186,-1.0186,-1.0186,-1.0227,-1.0302,-1.031,-1.0316,-1.0401,-1.0444,-1.0512,-1.057,-1.0547,-1.0611,-1.0688,-1.0692,-1.0692,-1.0692,-1.0692,-1.0692,-1.0692,-1.0582,-1.0531,-0.4396,-0.4776,-0.519,-0.5327,-0.5918,-0.6448,-0.6473,-0.6432,-0.6502,-0.6886,-0.681,-0.6858,-0.7535,-0.7725,-0.8321,-0.9915,-1.059,-1.1053,-1.1488,-1.1632,-1.2077,-1.313,-1.407,-1.5165,-1.6567,-1.6613,-1.6201,-1.534,-1.4807,-1.4153,-1.3288,-1.3862,-1.4196,-1.4196,-1.4056,-1.4002,-1.4002,-1.384,-1.384,-1.4002,-1.4142,-1.4056,-1.378,-1.3921,-1.3591,-1.2881,-1.255,-1.225,-1.1951,-1.1213,-1.1103,-1.135,-1.0884,-1.0692,-1.0692,-1.0692,-1.0692,-1.0692,-1.0692,-1.0692,-1.0692,-1.0692,-1.0692,-1.0692,-1.0692,-1.0692,-1.0692,-1.0692,-1.0692,-1.0692,-1.0692,-1.0595,-1.0466,-1.0466,-1.0387,-1.0312,-1.0312,-1.0312,-1.0312,-1.0312,-1.0312,-1.0312,-1.0312,-1.0312,-1.0312,-1.0312,-1.0312,-1.0312,-1.0312,-1.0312,-1.0312,-1.0312,-1.0312,-1.0369,-1.0454,-1.0466,-1.0466,-1.0466,-1.0619,-1.0692,-1.0692,-1.0692,-1.0692,-1.0692,-1.0692,-1.0692,-1.0692,-1.0692,-1.0692,-1.0692,-1.0637,-1.061,-0.4678,-0.5018,-0.5335,-0.5533,-0.5626,-0.586,-0.6526,-0.6534,-0.6545,-0.7062,-0.7316,-0.7502,-0.7744,-0.8294,-0.8822,-0.9151,-0.9492,-0.9899,-1.044,-1.0109,-1.0187,-1.1267,-1.2961,-1.3821,-1.3228,-1.5151,-1.5569,-1.3552,-1.3956,-1.3935,-1.3076,-1.3767,-1.4196,-1.4196,-1.3672,-1.3369,-1.3369,-1.2822,-1.2822,-1.3369,-1.3921,-1.3618,-1.255,-1.3125,-1.2772,-1.1759,-1.2196,-1.181,-1.0857,-1.135,-1.124,-1.0747,-1.0719,-1.0692,-1.0692,-1.0692,-1.0692,-1.0692,-1.0692,-1.0692,-1.0692,-1.0692,-1.0692,-1.0692,-1.0692,-1.0692,-1.0692,-1.0692,-1.0692,-1.0692,-1.0692,-1.0684,-1.0672,-1.0672,-1.0664,-1.0655,-1.0655,-1.0655,-1.0655,-1.0655,-1.0655,-1.0655,-1.0655,-1.0655,-1.0655,-1.0655,-1.0655,-1.0655,-1.0655,-1.0655,-1.0655,-1.0655,-1.0655,-1.066,-1.0672,-1.0672,-1.0672,-1.0672,-1.0684,-1.0692,-1.0692,-1.0692,-1.0692,-1.0692,-1.0692,-1.0692,-1.0692,-1.0692,-1.0692,-1.0692,-1.0445,-1.0339,-0.4461,-0.488,-0.5351,-0.5553,-0.5849,-0.6241,-0.6771,-0.7094,-0.7393,-0.7801,-0.8053,-0.8232,-0.839,-0.8843,-0.9197,-0.927,-0.9466,-0.9677,-0.9871,-0.9727,-0.9994,-1.1057,-1.1977,-1.2713,-1.3254,-1.3427,-1.329,-1.2695,-1.2703,-1.2608,-1.227,-1.2907,-1.3273,-1.3273,-1.2846,-1.2782,-1.3103,-1.2996,-1.2876,-1.274,-1.2957,-1.3044,-1.2962,-1.2822,-1.2332,-1.1623,-1.1814,-1.1459,-1.0719,-1.0939,-1.0911,-1.0692,-1.0692,-1.0692,-1.0692,-1.0692,-1.0692,-1.0692,-1.0692,-1.0692,-1.0692,-1.0692,-1.0692,-1.0692,-1.0692,-1.0692,-1.0692,-1.0692,-1.0692,-1.0692,-1.0692,-1.0692,-1.0692,-1.0692,-1.0692,-1.0692,-1.0692,-1.0692,-1.0692,-1.0692,-1.0692,-1.0692,-1.0692,-1.0692,-1.0692,-1.0692,-1.0692,-1.0692,-1.0692,-1.0692,-1.0692,-1.0692,-1.0692,-1.0692,-1.0692,-1.0692,-1.0692,-1.0692,-1.0692,-1.0692,-1.0692,-1.0692,-1.0692,-1.0692,-1.0692,-1.0692,-1.0692,-1.0692,-1.0692,-1.0692,-1.061,-1.0445,-0.4361,-0.4792,-0.5296,-0.5541,-0.6003,-0.6558,-0.7122,-0.7571,-0.7996,-0.8446,-0.8668,-0.8794,-0.8885,-0.9108,-0.9315,-0.9396,-0.9506,-0.9603,-0.9603,-0.9603,-0.9867,-1.0621,-1.1224,-1.1791,-1.2301,-1.1979,-1.1669,-1.1454,-1.162,-1.1641,-1.1487,-1.2248,-1.2627,-1.2442,-1.2033,-1.2027,-1.2464,-1.2405,-1.2294,-1.2141,-1.1951,-1.2169,-1.274,-1.2332,-1.1951,-1.1596,-1.1404,-1.1076,-1.0692,-1.0692,-1.0692,-1.0692,-1.0692,-1.0692,-1.0692,-1.0692,-1.0692,-1.0692,-1.0692,-1.0692,-1.0692,-1.0692,-1.0692,-1.0692,-1.0692,-1.0692,-1.0692,-1.0692,-1.0692,-1.0692,-1.0692,-1.0692,-1.0692,-1.0692,-1.0692,-1.0692,-1.0692,-1.0692,-1.0692,-1.0692,-1.0692,-1.0692,-1.0692,-1.0692,-1.0672,-1.0619,-1.0611,-1.059,-1.0561,-1.0553,-1.0553,-1.0553,-1.0578,-1.0611,-1.0611,-1.066,-1.0668,-1.0615,-1.0611,-1.0635,-1.0688,-1.0692,-1.0692,-1.0692,-1.0692,-1.0692,-1.0692,-1.0692,-1.072,-1.0777,-1.0777,-1.0727,-0.4501,-0.48,-0.5187,-0.5527,-0.6011,-0.6664,-0.76,-0.7918,-0.8223,-0.8954,-0.91,-0.91,-0.91,-0.91,-0.9181,-0.9375,-0.9506,-0.9603,-0.9603,-0.9603,-0.9603,-0.9603,-1.0768,-1.1057,-0.9723,-1.0788,-1.1033,-0.9698,-1.078,-1.1295,-1.0816,-1.1985,-1.2437,-1.1895,-1.13,-1.1102,-1.1287,-1.0722,-1.0818,-1.1591,-1.0994,-1.1021,-1.1596,-1.1596,-1.1596,-1.1568,-1.0966,-1.0692,-1.0692,-1.0692,-1.0692,-1.0692,-1.0692,-1.0692,-1.0692,-1.0692,-1.0692,-1.0692,-1.0692,-1.0692,-1.0692,-1.0692,-1.0692,-1.0692,-1.0692,-1.0692,-1.0692,-1.0692,-1.0692,-1.0692,-1.0692,-1.0692,-1.0692,-1.0692,-1.0692,-1.0692,-1.0692,-1.0692,-1.0692,-1.0692,-1.0692,-1.0692,-1.0692,-1.0692,-1.0635,-1.0438,-1.0409,-1.0345,-1.0215,-1.019,-1.019,-1.019,-1.0331,-1.0409,-1.0409,-1.0595,-1.0619,-1.0422,-1.0409,-1.0486,-1.068,-1.0688,-1.0688,-1.0688,-1.0692,-1.0692,-1.0692,-1.0696,-1.0821,-1.1,-1.1,-1.1062,-0.4545,-0.5071,-0.572,-0.5959,-0.6714,-0.7515,-0.8037,-0.8293,-0.8631,-0.93,-0.9445,-0.9429,-0.9327,-0.9384,-0.9445,-0.9416,-0.9506,-0.9603,-0.9603,-0.9603,-0.9603,-0.9603,-0.9941,-1.0039,-0.9628,-0.9965,-1.0039,-0.9628,-1.0292,-1.0665,-1.0521,-1.0877,-1.1009,-1.0859,-1.0433,-1.045,-1.0942,-1.1006,-1.114,-1.1384,-1.1339,-1.1432,-1.1596,-1.1158,-1.0966,-1.0966,-1.0774,-1.0692,-1.0692,-1.0692,-1.0692,-1.0692,-1.0692,-1.0692,-1.0692,-1.0692,-1.0692,-1.0692,-1.0692,-1.0692,-1.0692,-1.0692,-1.0692,-1.0692,-1.0692,-1.0692,-1.0692,-1.0692,-1.0692,-1.0692,-1.0692,-1.0692,-1.0692,-1.0692,-1.0692,-1.0692,-1.0692,-1.0692,-1.0692,-1.0692,-1.0692,-1.0692,-1.0692,-1.0692,-1.0676,-1.0623,-1.0615,-1.0595,-1.0569,-1.0561,-1.0561,-1.0561,-1.0582,-1.0615,-1.0615,-1.0664,-1.0672,-1.0619,-1.0615,-1.0526,-1.0353,-1.0444,-1.0486,-1.0486,-1.0757,-1.0915,-1.0915,-1.1005,-1.1094,-1.1147,-1.1147,-1.106,-0.4896,-0.5407,-0.6013,-0.6477,-0.7208,-0.7967,-0.859,-0.8822,-0.9046,-0.9498,-0.9567,-0.9506,-0.9494,-0.9494,-0.9506,-0.9494,-0.9555,-0.9603,-0.9603,-0.9603,-0.9603,-0.9603,-0.9603,-0.9603,-0.9603,-0.9603,-0.9603,-0.9603,-1.0093,-1.0314,-1.0093,-1.029,-1.029,-1.0093,-0.9875,-0.9991,-1.0441,-1.0638,-1.0792,-1.0869,-1.0989,-1.1045,-1.1049,-1.0818,-1.0829,-1.1048,-1.0802,-1.0692,-1.0692,-1.0692,-1.0692,-1.0692,-1.0692,-1.0692,-1.0692,-1.0692,-1.0692,-1.0692,-1.0692,-1.0692,-1.0692,-1.0692,-1.0692,-1.0692,-1.0692,-1.0692,-1.0692,-1.0692,-1.0692,-1.0692,-1.0692,-1.0692,-1.0692,-1.0692,-1.0692,-1.0692,-1.0692,-1.0692,-1.0692,-1.0692,-1.0692,-1.0692,-1.0692,-1.0692,-1.0668,-1.0599,-1.053,-1.0508,-1.0508,-1.0508,-1.0508,-1.0508,-1.0546,-1.059,-1.059,-1.0651,-1.0664,-1.0595,-1.059,-1.0493,-1.0278,-1.0444,-1.057,-1.0647,-1.0886,-1.1033,-1.107,-1.1171,-1.1232,-1.1334,-1.1334,-1.1283,-0.5387,-0.5758,-0.6148,-0.7011,-0.7569,-0.8188,-0.9196,-0.9429,-0.9449,-0.9571,-0.9494,-0.9453,-0.9571,-0.949,-0.9457,-0.9575,-0.9603,-0.9603,-0.9603,-0.9603,-0.9603,-0.9603,-0.9603,-0.9603,-0.9603,-0.9603,-0.9603,-0.9603,-1.0043,-1.0117,-0.9628,-1.0068,-1.0093,-0.9603,-0.9603,-0.9676,-0.986,-0.9901,-0.9995,-1.0162,-1.0178,-1.0186,-1.0198,-1.0524,-1.0952,-1.146,-1.0914,-1.0676,-1.0692,-1.0692,-1.0692,-1.0692,-1.0692,-1.0692,-1.0692,-1.0692,-1.0692,-1.0692,-1.0692,-1.0692,-1.0692,-1.0692,-1.0692,-1.0692,-1.0692,-1.0692,-1.0692,-1.0692,-1.0692,-1.0692,-1.0692,-1.0692,-1.0692,-1.0692,-1.0692,-1.0692,-1.0692,-1.0692,-1.0692,-1.0692,-1.0692,-1.0692,-1.0692,-1.0692,-1.0639,-1.0454,-1.0318,-1.0239,-1.0239,-1.0239,-1.0239,-1.0239,-1.0359,-1.0434,-1.0434,-1.0603,-1.0627,-1.0442,-1.0446,-1.0458,-1.0458,-1.0615,-1.0777,-1.0992,-1.1029,-1.1122,-1.1219,-1.1236,-1.1358,-1.1524,-1.1524,-1.1644,-0.5246,-0.5817,-0.6468,-0.724,-0.8126,-0.8942,-0.9453,-0.9567,-0.9555,-0.9595,-0.9571,-0.9555,-0.9595,-0.9571,-0.9555,-0.9595,-0.9603,-0.9603,-0.9603,-0.9603,-0.9603,-0.9603,-0.9603,-0.9603,-0.9603,-0.9603,-0.9603,-0.9603,-0.9702,-0.9727,-0.9603,-0.9702,-0.9727,-0.9603,-0.9603,-0.962,-0.966,-0.9815,-0.993,-0.997,-1.0117,-1.0186,-1.019,-1.0268,-1.0435,-1.065,-1.0516,-1.0539,-1.0692,-1.0692,-1.0692,-1.0692,-1.0692,-1.0692,-1.0692,-1.0692,-1.0692,-1.0692,-1.0692,-1.0692,-1.0692,-1.0692,-1.0692,-1.0692,-1.0692,-1.0692,-1.0692,-1.0692,-1.0692,-1.0692,-1.0692,-1.0692,-1.0692,-1.0692,-1.0692,-1.0692,-1.0692,-1.0692,-1.0692,-1.0692,-1.0692,-1.0692,-1.0692,-1.0692,-1.068,-1.0643,-1.0603,-1.0578,-1.0578,-1.0578,-1.0578,-1.0578,-1.0615,-1.0635,-1.0635,-1.0672,-1.0676,-1.0639,-1.0773,-1.0882,-1.0882,-1.0749,-1.0777,-1.0992,-1.1273,-1.1403,-1.1439,-1.1585,-1.1679,-1.1745,-1.1745,-1.177,-0.5403,-0.599,-0.6634,-0.7626,-0.8487,-0.9169,-0.9437,-0.9563,-0.9603,-0.9603,-0.9603,-0.9603,-0.9603,-0.9603,-0.9603,-0.9603,-0.9603,-0.9603,-0.9603,-0.9603,-0.9603,-0.9603,-0.9603,-0.9603,-0.9603,-0.9603,-0.9603,-0.9603,-0.9603,-0.9603,-0.9603,-0.9603,-0.9603,-0.9603,-0.9603,-0.9603,-0.9603,-0.9692,-0.9762,-0.9762,-0.986,-0.9904,-0.9912,-1.0109,-1.0239,-1.0306,-1.0306,-1.0355,-1.0471,-1.0534,-1.057,-1.0578,-1.066,-1.0692,-1.0692,-1.0692,-1.0692,-1.0692,-1.0692,-1.0692,-1.0692,-1.0692,-1.0692,-1.0692,-1.0692,-1.0692,-1.0692,-1.0692,-1.0692,-1.0692,-1.0692,-1.0692,-1.0692,-1.0692,-1.0692,-1.0692,-1.0692,-1.0692,-1.0692,-1.0692,-1.0692,-1.0692,-1.0692,-1.0692,-1.0692,-1.0692,-1.0692,-1.0692,-1.0692,-1.0692,-1.0692,-1.0692,-1.0692,-1.0692,-1.0692,-1.0801,-1.0854,-1.0854,-1.0992,-1.1131,-1.1249,-1.1131,-1.1122,-1.1249,-1.1403,-1.1545,-1.163,-1.1762,-1.1806,-1.1806,-1.1806,-1.1806,-0.5397,-0.6055,-0.674,-0.7983,-0.8649,-0.9083,-0.929,-0.9449,-0.9555,-0.9555,-0.9583,-0.9603,-0.9603,-0.9603,-0.9603,-0.9603,-0.9603,-0.9603,-0.9603,-0.9603,-0.9603,-0.9603,-0.9603,-0.9603,-0.9603,-0.9603,-0.9603,-0.9603,-0.9603,-0.9603,-0.9603,-0.9603,-0.9603,-0.9603,-0.9603,-0.9603,-0.9603,-0.9603,-0.9603,-0.9603,-0.9603,-0.9603,-0.9611,-0.9937,-1.0113,-1.0141,-1.0141,-1.0158,-1.0202,-1.0327,-1.0377,-1.0422,-1.059,-1.0668,-1.0692,-1.0692,-1.0692,-1.0692,-1.0692,-1.0692,-1.0692,-1.0692,-1.0692,-1.0692,-1.0692,-1.0692,-1.0692,-1.0692,-1.0692,-1.0692,-1.0692,-1.0692,-1.0692,-1.0692,-1.0692,-1.0692,-1.0692,-1.0692,-1.0692,-1.0692,-1.0692,-1.0692,-1.0692,-1.0692,-1.0692,-1.0692,-1.0692,-1.0692,-1.0692,-1.0692,-1.0692,-1.0692,-1.0692,-1.0692,-1.0692,-1.089,-1.0996,-1.0996,-1.1159,-1.1338,-1.1492,-1.1529,-1.1545,-1.1545,-1.1545,-1.1622,-1.1806,-1.1806,-1.1806,-1.1806,-1.1806,-1.1806,-0.4565,-0.5658,-0.692,-0.8016,-0.8488,-0.8745,-0.9079,-0.929,-0.9437,-0.9437,-0.9514,-0.9603,-0.9603,-0.9603,-0.9603,-0.9603,-0.9603,-0.9603,-0.9603,-0.9603,-0.9603,-0.9603,-0.9603,-0.9603,-0.9603,-0.9603,-0.9603,-0.9603,-0.9603,-0.9603,-0.9603,-0.9603,-0.9603,-0.9603,-0.9603,-0.9603,-0.9603,-0.9603,-0.9603,-0.9603,-0.9603,-0.9603,-0.9603,-0.9652,-0.9778,-0.9946,-0.9946,-1.004,-1.019,-1.0215,-1.0294,-1.0409,-1.0434,-1.0562,-1.0692,-1.0692,-1.0692,-1.0692,-1.0692,-1.0692,-1.0692,-1.0692,-1.0692,-1.0692,-1.0692,-1.0692,-1.0692,-1.0692,-1.0692,-1.0692,-1.0692,-1.0692,-1.0692,-1.0692,-1.0692,-1.0692,-1.0692,-1.0692,-1.0692,-1.0692,-1.0692,-1.0692,-1.0692,-1.0692,-1.0692,-1.0692,-1.0692,-1.0692,-1.0692,-1.0692,-1.0692,-1.0692,-1.0692,-1.0692,-1.0692,-1.089,-1.0996,-1.0996,-1.1277,-1.1472,-1.15,-1.1654,-1.177,-1.177,-1.177,-1.1782,-1.1806,-1.1806,-1.1806,-1.1806,-1.1806,-1.1806,-0.4884,-0.5812,-0.6749,-0.7642,-0.8146,-0.8501,-0.8765,-0.9038,-0.9262,-0.9384,-0.9441,-0.9506,-0.9583,-0.9603,-0.9603,-0.9603,-0.9603,-0.9603,-0.9603,-0.9603,-0.9603,-0.9603,-0.9603,-0.9603,-0.9603,-0.9603,-0.9603,-0.9603,-0.9603,-0.9603,-0.9603,-0.9603,-0.9603,-0.9603,-0.9603,-0.9603,-0.9603,-0.9603,-0.9603,-0.9603,-0.9603,-0.9603,-0.9603,-0.9603,-0.9644,-0.9742,-0.9742,-0.9786,-0.9868,-0.9995,-1.008,-1.0136,-1.0241,-1.0391,-1.0523,-1.0523,-1.0607,-1.0692,-1.0692,-1.0692,-1.0692,-1.0692,-1.0692,-1.0692,-1.0692,-1.0692,-1.0692,-1.0692,-1.0692,-1.0692,-1.0692,-1.0692,-1.0692,-1.0692,-1.0692,-1.0692,-1.0692,-1.0692,-1.0692,-1.0692,-1.0692,-1.0692,-1.0692,-1.0692,-1.0692,-1.0692,-1.0692,-1.0692,-1.0692,-1.0692,-1.0692,-1.0692,-1.0692,-1.0764,-1.0866,-1.1009,-1.1155,-1.1261,-1.1512,-1.1654,-1.1654,-1.1766,-1.1806,-1.1806,-1.1806,-1.1806,-1.1806,-1.1806,-1.1806,-1.1806,-1.1617,-1.1522,-0.4997,-0.5654,-0.6185,-0.7009,-0.7618,-0.8089,-0.8387,-0.8729,-0.9034,-0.9209,-0.9278,-0.9368,-0.9522,-0.9571,-0.9603,-0.9603,-0.9603,-0.9603,-0.9603,-0.9603,-0.9603,-0.9603,-0.9603,-0.9603,-0.9603,-0.9603,-0.9603,-0.9603,-0.9603,-0.9603,-0.9603,-0.9603,-0.9603,-0.9603,-0.9603,-0.9603,-0.9603,-0.9603,-0.9603,-0.9603,-0.9603,-0.9603,-0.9603,-0.9603,-0.9603,-0.9603,-0.9603,-0.9603,-0.9616,-0.9766,-0.9847,-0.9921,-1.0064,-1.0231,-1.0341,-1.0341,-1.0477,-1.0627,-1.0627,-1.0655,-1.0692,-1.0692,-1.0692,-1.0692,-1.0692,-1.0692,-1.0692,-1.0692,-1.0692,-1.0692,-1.0692,-1.0692,-1.0692,-1.0692,-1.0692,-1.0692,-1.0692,-1.0692,-1.0692,-1.0692,-1.0692,-1.0692,-1.0692,-1.0692,-1.0692,-1.0692,-1.0692,-1.0692,-1.0692,-1.0692,-1.0692,-1.0692,-1.0692,-1.0765,-1.0984,-1.1126,-1.1301,-1.1488,-1.1705,-1.1806,-1.1806,-1.1806,-1.1806,-1.1806,-1.1806,-1.1806,-1.1806,-1.1806,-1.1806,-1.1776,-1.1462,-1.1303,-0.432,-0.4719,-0.5145,-0.6193,-0.6865,-0.7396,-0.7906,-0.835,-0.8668,-0.8812,-0.8991,-0.9189,-0.9384,-0.951,-0.9603,-0.9603,-0.9603,-0.9603,-0.9603,-0.9603,-0.9603,-0.9603,-0.9603,-0.9603,-0.9603,-0.9603,-0.9603,-0.9603,-0.9603,-0.9603,-0.9603,-0.9603,-0.9603,-0.9603,-0.9603,-0.9603,-0.9603,-0.9603,-0.9603,-0.9603,-0.9603,-0.9603,-0.9603,-0.9603,-0.9603,-0.9603,-0.9603,-0.9603,-0.9603,-0.9611,-0.9738,-0.9909,-0.9921,-1.004,-1.0202,-1.0202,-1.0294,-1.0422,-1.0422,-1.0527,-1.0692,-1.0692,-1.0692,-1.0692,-1.0692,-1.0692,-1.0692,-1.0692,-1.0692,-1.0692,-1.0692,-1.0692,-1.0692,-1.0692,-1.0692,-1.0692,-1.0692,-1.0692,-1.0692,-1.0692,-1.0692,-1.0692,-1.0692,-1.0692,-1.0692,-1.0692,-1.0692,-1.0692,-1.0692,-1.0692,-1.0692,-1.0692,-1.0692,-1.0765,-1.0984,-1.1126,-1.1301,-1.1488,-1.1705,-1.1806,-1.1806,-1.1806,-1.1806,-1.1806,-1.1806,-1.1806,-1.1806,-1.1806,-1.1806,-1.1776,-1.1462,-1.1303,-0.4054,-0.4488,-0.4978,-0.5703,-0.629,-0.6829,-0.7368,-0.7874,-0.8296,-0.8619,-0.88,-0.8974,-0.9181,-0.936,-0.949,-0.9583,-0.9603,-0.9603,-0.9603,-0.9603,-0.9603,-0.9603,-0.9603,-0.9603,-0.9603,-0.9603,-0.9603,-0.9603,-0.9603,-0.9603,-0.9603,-0.9603,-0.9603,-0.9603,-0.9603,-0.9603,-0.9603,-0.9603,-0.9603,-0.9603,-0.9603,-0.9603,-0.9603,-0.9603,-0.9603,-0.9603,-0.9603,-0.9603,-0.9603,-0.9603,-0.964,-0.9697,-0.9697,-0.9827,-1.0011,-1.0011,-1.0129,-1.0278,-1.0369,-1.045,-1.0519,-1.0655,-1.0692,-1.0692,-1.0692,-1.0692,-1.0692,-1.0692,-1.0692,-1.0692,-1.0692,-1.0692,-1.0692,-1.0692,-1.0692,-1.0692,-1.0692,-1.0692,-1.0692,-1.0692,-1.0692,-1.0692,-1.0692,-1.0692,-1.0692,-1.0692,-1.0692,-1.0692,-1.0692,-1.0692,-1.0692,-1.0692,-1.0825,-1.0968,-1.1118,-1.1297,-1.148,-1.1667,-1.177,-1.1806,-1.1806,-1.1806,-1.1806,-1.1806,-1.1806,-1.1806,-1.1806,-1.1806,-1.1682,-1.1462,-1.1152,-1.0849,-0.3795,-0.4172,-0.467,-0.5283,-0.5701,-0.6176,-0.6956,-0.7407,-0.7796,-0.8228,-0.8483,-0.8698,-0.8885,-0.9083,-0.9278,-0.9498,-0.9535,-0.9559,-0.9595,-0.9603,-0.9603,-0.9603,-0.9603,-0.9603,-0.9603,-0.9603,-0.9603,-0.9603,-0.9603,-0.9603,-0.9603,-0.9603,-0.9603,-0.9603,-0.9603,-0.9603,-0.9603,-0.9603,-0.9603,-0.9603,-0.9603,-0.9603,-0.9603,-0.9603,-0.9603,-0.9603,-0.9603,-0.9603,-0.9603,-0.9603,-0.9603,-0.9603,-0.9603,-0.9672,-0.9799,-0.9799,-0.9938,-1.0121,-1.0278,-1.0357,-1.0438,-1.0635,-1.0692,-1.0692,-1.0692,-1.0692,-1.0692,-1.0692,-1.0692,-1.0692,-1.0692,-1.0692,-1.0692,-1.0692,-1.0692,-1.0692,-1.0692,-1.0692,-1.0692,-1.0692,-1.0692,-1.0692,-1.0692,-1.0692,-1.0692,-1.0692,-1.0692,-1.0692,-1.0692,-1.0692,-1.0744,-1.0777,-1.0923,-1.109,-1.1264,-1.1427,-1.1577,-1.1794,-1.1806,-1.1806,-1.1806,-1.1806,-1.1806,-1.1806,-1.1806,-1.1806,-1.1806,-1.1806,-1.1617,-1.1303,-1.097,-1.0547,0.0,0.0,0.0,-0.4898,-0.5081,-0.5424,-0.6665,-0.6973,-0.7141,-0.7673,-0.8045,-0.8346,-0.8537,-0.869,-0.8922,-0.9322,-0.9388,-0.9433,-0.9563,-0.9591,-0.9595,-0.9595,-0.9599,-0.9603,-0.9603,-0.9603,-0.9603,-0.9603,-0.9603,-0.9603,-0.9603,-0.9603,-0.9603,-0.9603,-0.9603,-0.9603,-0.9603,-0.9603,-0.9603,-0.9603,-0.9603,-0.9603,-0.9603,-0.9603,-0.9603,-0.9603,-0.9603,-0.9603,-0.9603,-0.9603,-0.9603,-0.9603,-0.9603,-0.9603,-0.9603,-0.9603,-0.9734,-0.993,-1.0121,-1.0278,-1.043,-1.0635,-1.0692,-1.0692,-1.0692,-1.0692,-1.0692,-1.0692,-1.0692,-1.0692,-1.0692,-1.0692,-1.0692,-1.0692,-1.0692,-1.0692,-1.0692,-1.0692,-1.0692,-1.0692,-1.0692,-1.0692,-1.0692,-1.0692,-1.0692,-1.0692,-1.0696,-1.07,-1.07,-1.0704,-1.0777,-1.0988,-1.1008,-1.1151,-1.1468,-1.1504,-1.1585,-1.1794,-1.1806,-1.1806,-1.1806,-1.1806,-1.1806,-1.1806,-1.1806,-1.1806,-1.1806,-1.1806,-1.1617,-1.1273,-1.094,-1.0425,-0.3721,0.0,0.0,0.0,0.0,0.0,-0.5815,-0.6212,-0.6592,-0.7236,-0.7549,-0.7821,-0.8109,-0.8316,-0.8511,-0.8769,-0.9026,-0.9185,-0.9238,-0.9376,-0.9453,-0.9453,-0.9547,-0.9603,-0.9603,-0.9603,-0.9603,-0.9603,-0.9603,-0.9603,-0.9603,-0.9603,-0.9603,-0.9603,-0.9603,-0.9603,-0.9603,-0.9603,-0.9603,-0.9603,-0.9603,-0.9603,-0.9603,-0.9603,-0.9603,-0.9603,-0.9603,-0.9603,-0.9603,-0.9603,-0.9603,-0.9603,-0.9603,-0.9603,-0.9603,-0.9603,-0.9632,-0.9742,-1.008,-1.0223,-1.029,-1.059,-1.0692,-1.0692,-1.0692,-1.0692,-1.0692,-1.0692,-1.0692,-1.0692,-1.0692,-1.0692,-1.0692,-1.0692,-1.0692,-1.0692,-1.0692,-1.0692,-1.0692,-1.0692,-1.0692,-1.0692,-1.0692,-1.0692,-1.0692,-1.0692,-1.0806,-1.0919,-1.0919,-1.1001,-1.1066,-1.1147,-1.1273,-1.1395,-1.1492,-1.1622,-1.1749,-1.1802,-1.1806,-1.1806,-1.1806,-1.1806,-1.1806,-1.1806,-1.1806,-1.1806,-1.1806,-1.1806,-1.1496,-1.091,-1.0334,-0.997,-0.405,-0.4215,-0.4521,-0.4613,0.0,0.0,-0.5551,-0.5774,-0.6013,-0.6643,-0.7051,-0.7344,-0.7552,-0.7866,-0.8126,-0.8253,-0.8549,-0.884,-0.9068,-0.9205,-0.927,-0.927,-0.9429,-0.9514,-0.9514,-0.9559,-0.9603,-0.9603,-0.9603,-0.9603,-0.9603,-0.9603,-0.9603,-0.9603,-0.9603,-0.9603,-0.9603,-0.9603,-0.9603,-0.9603,-0.9603,-0.9603,-0.9603,-0.9603,-0.9603,-0.9603,-0.9603,-0.9603,-0.9603,-0.9603,-0.9603,-0.9603,-0.9603,-0.9603,-0.9603,-0.9603,-0.9603,-0.9656,-1.0064,-1.0186,-1.0247,-1.0578,-1.0692,-1.0692,-1.0692,-1.0692,-1.0692,-1.0692,-1.0692,-1.0692,-1.0692,-1.0692,-1.0692,-1.0692,-1.0692,-1.0692,-1.0692,-1.0692,-1.0692,-1.0692,-1.0692,-1.0692,-1.0692,-1.0692,-1.0716,-1.0798,-1.0927,-1.1025,-1.1066,-1.1159,-1.1224,-1.133,-1.1435,-1.1533,-1.161,-1.1745,-1.1806,-1.1806,-1.1806,-1.1806,-1.1806,-1.1806,-1.1806,-1.1806,-1.1806,-1.1806,-1.1806,-1.1806,-1.1466,-1.0789,-1.0122,-0.9792,-0.4503,-0.4528,-0.4723,-0.5028,-0.4788,0.0,-0.5582,-0.5553,-0.5486,-0.602,-0.6519,-0.6857,-0.6918,-0.7322,-0.7657,-0.7677,-0.7975,-0.839,-0.8934,-0.9043,-0.9068,-0.9068,-0.9242,-0.9375,-0.9375,-0.949,-0.9575,-0.9575,-0.9591,-0.9603,-0.9603,-0.9603,-0.9603,-0.9603,-0.9603,-0.9603,-0.9603,-0.9603,-0.9603,-0.9603,-0.9603,-0.9603,-0.9603,-0.9603,-0.9603,-0.9603,-0.9603,-0.9603,-0.9603,-0.9603,-0.9603,-0.9603,-0.9603,-0.9603,-0.9603,-0.9603,-0.9616,-0.968,-1.0072,-1.0202,-1.0272,-1.061,-1.0692,-1.0692,-1.0692,-1.0692,-1.0692,-1.0692,-1.0692,-1.0692,-1.0692,-1.0692,-1.0692,-1.0692,-1.0692,-1.0692,-1.0692,-1.0692,-1.0692,-1.0692,-1.0692,-1.0692,-1.0692,-1.0692,-1.0785,-1.0968,-1.1013,-1.1062,-1.1232,-1.1244,-1.135,-1.1512,-1.1529,-1.1598,-1.179,-1.1806,-1.1806,-1.1806,-1.1806,-1.1806,-1.1806,-1.1806,-1.1806,-1.1806,-1.1806,-1.1806,-1.1806,-1.1776,-1.1436,-1.0789,-1.0152,-0.9849,-0.5212,-0.5367,-0.5539,-0.5187,-0.5341,0.0,-0.51,-0.5286,-0.5573,-0.5693,-0.5799,-0.6006,-0.644,-0.6607,-0.6729,-0.6897,-0.7336,-0.7849,-0.8369,-0.8694,-0.885,-0.885,-0.9035,-0.9168,-0.9168,-0.9327,-0.9433,-0.9433,-0.9543,-0.9603,-0.9603,-0.9603,-0.9603,-0.9603,-0.9603,-0.9603,-0.9603,-0.9603,-0.9603,-0.9603,-0.9603,-0.9603,-0.9603,-0.9603,-0.9603,-0.9603,-0.9603,-0.9603,-0.9603,-0.9603,-0.9603,-0.9603,-0.9603,-0.9603,-0.9603,-0.9603,-0.9688,-0.9864,-1.0113,-1.0257,-1.0389,-1.0623,-1.0692,-1.0692,-1.0692,-1.0692,-1.0692,-1.0692,-1.0692,-1.0692,-1.0692,-1.0692,-1.0692,-1.0692,-1.0692,-1.0692,-1.0692,-1.0692,-1.0692,-1.0692,-1.0692,-1.0692,-1.0692,-1.0692,-1.0785,-1.0968,-1.1086,-1.124,-1.1423,-1.1577,-1.1713,-1.1749,-1.1754,-1.177,-1.1806,-1.1806,-1.1806,-1.1806,-1.1806,-1.1806,-1.1806,-1.1806,-1.1806,-1.1806,-1.1806,-1.1806,-1.1806,-1.1522,-1.1182,-1.0789,-1.0395,-1.0061,-0.5727,-0.575,-0.5858,-0.5686,-0.563,0.0,0.0,-0.5344,-0.5421,-0.5693,-0.5594,-0.562,-0.62,-0.6213,-0.6241,-0.6513,-0.695,-0.7351,-0.7605,-0.8081,-0.8396,-0.8396,-0.8666,-0.8855,-0.8855,-0.9095,-0.9286,-0.9396,-0.9461,-0.9531,-0.9599,-0.9603,-0.9603,-0.9603,-0.9603,-0.9603,-0.9603,-0.9603,-0.9603,-0.9603,-0.9603,-0.9603,-0.9603,-0.9603,-0.9603,-0.9603,-0.9603,-0.9603,-0.9603,-0.9603,-0.9603,-0.9603,-0.9603,-0.9603,-0.9603,-0.9603,-0.9738,-0.9934,-1.0125,-1.0282,-1.0438,-1.0635,-1.0692,-1.0692,-1.0692,-1.0692,-1.0692,-1.0692,-1.0692,-1.0692,-1.0692,-1.0692,-1.0692,-1.0692,-1.0692,-1.0692,-1.0692,-1.0692,-1.0692,-1.0692,-1.0692,-1.0692,-1.0692,-1.0769,-1.0919,-1.107,-1.1244,-1.1427,-1.1614,-1.1749,-1.1806,-1.1806,-1.1806,-1.1806,-1.1806,-1.1806,-1.1806,-1.1806,-1.1806,-1.1806,-1.1806,-1.1806,-1.1806,-1.1806,-1.1806,-1.1806,-1.1806,-1.1462,-1.1122,-1.0789,-1.0274,-0.9974,-0.6245,-0.616,-0.62,-0.6199,-0.5929,-0.5674,0.0,0.0,0.0,-0.5679,-0.5488,-0.5413,-0.5939,-0.5867,-0.5839,-0.6144,-0.653,-0.6784,-0.6784,-0.7301,-0.7724,-0.7829,-0.8208,-0.8448,-0.848,-0.8718,-0.9003,-0.9307,-0.9253,-0.9299,-0.9559,-0.9551,-0.9567,-0.9599,-0.9603,-0.9603,-0.9603,-0.9603,-0.9603,-0.9603,-0.9603,-0.9603,-0.9603,-0.9603,-0.9603,-0.9603,-0.9603,-0.9603,-0.9603,-0.9603,-0.9603,-0.9603,-0.9603,-0.9603,-0.9603,-0.9603,-0.9762,-0.9987,-1.0137,-1.0302,-1.0482,-1.0647,-1.0692,-1.0692,-1.0692,-1.0692,-1.0692,-1.0692,-1.0692,-1.0692,-1.0692,-1.0692,-1.0692,-1.0692,-1.0692,-1.0692,-1.0692,-1.0692,-1.0692,-1.0692,-1.0692,-1.0692,-1.0692,-1.0874,-1.1053,-1.1167,-1.1378,-1.1565,-1.1782,-1.1806,-1.1806,-1.1806,-1.1806,-1.1806,-1.1806,-1.1806,-1.1806,-1.1806,-1.1806,-1.1806,-1.1806,-1.1806,-1.1806,-1.1806,-1.1806,-1.1806,-1.1806,-1.1462,-1.1122,-1.0789,-1.0183,-0.9866,-0.6967,-0.7098,-0.7133,-0.6388,-0.6599,-0.6675,-0.5468,0.0,-0.5692,-0.5272,0.0,-0.5182,-0.5363,0.0,0.0,-0.54,-0.576,-0.6025,-0.6025,-0.6347,-0.676,-0.7238,-0.7654,-0.7931,-0.8061,-0.8113,-0.841,-0.9076,-0.8704,-0.872,-0.9396,-0.9433,-0.9482,-0.9599,-0.9603,-0.9603,-0.9603,-0.9603,-0.9603,-0.9603,-0.9603,-0.9603,-0.9603,-0.9603,-0.9603,-0.9603,-0.9603,-0.9603,-0.9603,-0.9603,-0.9603,-0.9603,-0.9603,-0.9603,-0.9603,-0.9603,-0.9843,-1.0162,-1.0182,-1.041,-1.0668,-1.0684,-1.0692,-1.0692,-1.0692,-1.0692,-1.0692,-1.0692,-1.0692,-1.0692,-1.0692,-1.0692,-1.0692,-1.0692,-1.0692,-1.0692,-1.0692,-1.0692,-1.0692,-1.0692,-1.0692,-1.0692,-1.0692,-1.0874,-1.1053,-1.1167,-1.1378,-1.1565,-1.1782,-1.1806,-1.1806,-1.1806,-1.1806,-1.1806,-1.1806,-1.1806,-1.1806,-1.1806,-1.1806,-1.1806,-1.1806,-1.1806,-1.1806,-1.1806,-1.1806,-1.1806,-1.1806,-1.1462,-1.1122,-1.0789,-1.0425,-1.0138,-0.7086,-0.7157,-0.7192,-0.6637,-0.6607,-0.6529,-0.5749,-0.5563,-0.5557,-0.5565,0.0,0.0,0.0,0.0,0.0,0.0,-0.5614,-0.5693,-0.5563,-0.578,-0.6136,-0.6675,-0.6985,-0.7312,-0.7671,-0.7707,-0.7918,-0.843,-0.826,-0.8353,-0.8914,-0.9237,-0.9413,-0.949,-0.9547,-0.9603,-0.9603,-0.9603,-0.9603,-0.9603,-0.9603,-0.9603,-0.9603,-0.9603,-0.9603,-0.9603,-0.9603,-0.9603,-0.9603,-0.9603,-0.9603,-0.9603,-0.9603,-0.9603,-0.9603,-0.9603,-0.9855,-1.0186,-1.0186,-1.0422,-1.0692,-1.0692,-1.0692,-1.0692,-1.0692,-1.0692,-1.0692,-1.0692,-1.0692,-1.0692,-1.0692,-1.0692,-1.0692,-1.0692,-1.0692,-1.0692,-1.0692,-1.0692,-1.0692,-1.0692,-1.0692,-1.0752,-1.0862,-1.0997,-1.1139,-1.1183,-1.1472,-1.1691,-1.1794,-1.1806,-1.1806,-1.1806,-1.1806,-1.1806,-1.1806,-1.1806,-1.1806,-1.1806,-1.1806,-1.1806,-1.1806,-1.1806,-1.1806,-1.1806,-1.1806,-1.1806,-1.1806,-1.1462,-1.1122,-1.0789,-1.0553,-1.0266,-0.731,-0.7324,-0.7287,-0.6745,-0.655,-0.6347,-0.5845,-0.5638,-0.5602,-0.5778,-0.562,0.0,0.0,0.0,-0.5382,-0.5561,0.0,-0.5537,-0.5321,-0.5389,-0.5614,-0.6044,-0.6404,-0.679,-0.7243,-0.7194,-0.7324,-0.774,-0.7639,-0.7841,-0.848,-0.8951,-0.9253,-0.94,-0.9535,-0.9603,-0.9603,-0.9603,-0.9603,-0.9603,-0.9603,-0.9603,-0.9603,-0.9603,-0.9603,-0.9603,-0.9603,-0.9603,-0.9603,-0.9603,-0.9603,-0.9603,-0.9603,-0.9603,-0.9603,-0.9603,-0.9855,-1.0186,-1.0186,-1.0422,-1.0692,-1.0692,-1.0692,-1.0692,-1.0692,-1.0692,-1.0692,-1.0692,-1.0692,-1.0692,-1.0692,-1.0692,-1.0692,-1.0692,-1.0692,-1.0692,-1.0692,-1.0692,-1.0692,-1.0692,-1.0692,-1.0753,-1.0964,-1.111,-1.1211,-1.126,-1.1573,-1.1806,-1.1806,-1.1806,-1.1806,-1.1806,-1.1806,-1.1806,-1.1806,-1.1806,-1.1806,-1.1806,-1.1806,-1.1806,-1.1806,-1.1806,-1.1806,-1.1806,-1.1806,-1.1806,-1.1806,-1.1462,-1.1145,-1.086,-1.0613,-1.035,-0.7869,-0.7878,-0.7716,-0.6671,-0.6558,-0.6457,-0.5528,-0.5762,-0.6057,-0.5689,-0.6007,-0.6262,-0.5964,-0.5887,-0.5807,-0.5626,-0.5598,0.0,0.0,-0.5193,-0.5169,-0.5323,-0.5971,-0.6489,-0.67,-0.6429,-0.6518,-0.7181,-0.6748,-0.6987,-0.8231,-0.8509,-0.8873,-0.9384,-0.9535,-0.9603,-0.9603,-0.9603,-0.9603,-0.9603,-0.9603,-0.9603,-0.9603,-0.9603,-0.9603,-0.9603,-0.9603,-0.9603,-0.9603,-0.9603,-0.9603,-0.9603,-0.9603,-0.9603,-0.9603,-0.9603,-0.9855,-1.0186,-1.0186,-1.0422,-1.0692,-1.0692,-1.0692,-1.0692,-1.0692,-1.0692,-1.0692,-1.0692,-1.0692,-1.0692,-1.0692,-1.0692,-1.0692,-1.0692,-1.0692,-1.0692,-1.0692,-1.0692,-1.0692,-1.0692,-1.0692,-1.0753,-1.0964,-1.111,-1.1285,-1.1464,-1.1684,-1.1806,-1.1806,-1.1806,-1.1806,-1.1806,-1.1806,-1.1806,-1.1806,-1.1806,-1.1806,-1.1806,-1.1806,-1.1806,-1.1806,-1.1806,-1.1806,-1.1806,-1.1806,-1.1806,-1.1806,-1.1462,-1.1176,-1.1,-1.0636,-1.0409,-0.7959,-0.8057,-0.7996,-0.7141,-0.6907,-0.6681,-0.5884,-0.5952,-0.6089,-0.5685,-0.6027,-0.6294,-0.5968,-0.5903,-0.5842,-0.5626,-0.5598,-0.5452,0.0,-0.4816,-0.4767,-0.4945,-0.5504,-0.5893,-0.5973,-0.5993,-0.6155,-0.6518,-0.6575,-0.6879,-0.753,-0.8232,-0.8725,-0.8991,-0.9315,-0.9506,-0.9599,-0.9603,-0.9603,-0.9603,-0.9603,-0.9603,-0.9603,-0.9603,-0.9603,-0.9603,-0.9603,-0.9603,-0.9603,-0.9603,-0.9603,-0.9603,-0.9603,-0.9603,-0.9616,-0.9758,-0.9978,-1.0223,-1.0459,-1.0618,-1.0692,-1.0692,-1.0692,-1.0692,-1.0692,-1.0692,-1.0692,-1.0692,-1.0692,-1.0692,-1.0692,-1.0692,-1.0692,-1.0692,-1.0692,-1.0692,-1.0692,-1.0692,-1.0692,-1.0692,-1.0821,-1.096,-1.1106,-1.1285,-1.1427,-1.1492,-1.1658,-1.1806,-1.1806,-1.1806,-1.1806,-1.1806,-1.1806,-1.1806,-1.1806,-1.1806,-1.1806,-1.1806,-1.1806,-1.1806,-1.1806,-1.1806,-1.1712,-1.1462,-1.1462,-1.1462,-1.1462,-1.1122,-1.0966,-1.1011,-1.0778,-1.0598,-0.813,-0.8199,-0.8134,-0.748,-0.7247,-0.6992,-0.6237,-0.6327,-0.6445,-0.6063,-0.6319,-0.6578,-0.6494,-0.6213,-0.5976,-0.5893,-0.5723,-0.5407,0.0,-0.4751,-0.4731,-0.4788,-0.5169,-0.545,-0.5486,-0.5567,-0.5716,-0.5967,-0.6184,-0.6542,-0.7098,-0.7882,-0.8468,-0.8785,-0.9193,-0.9466,-0.9599,-0.9603,-0.9603,-0.9603,-0.9603,-0.9603,-0.9603,-0.9603,-0.9603,-0.9603,-0.9603,-0.9603,-0.9603,-0.9603,-0.9603,-0.9603,-0.9603,-0.964,-0.9734,-0.9843,-1.0068,-1.0302,-1.059,-1.0692,-1.0692,-1.0692,-1.0692,-1.0692,-1.0692,-1.0692,-1.0692,-1.0692,-1.0692,-1.0692,-1.0692,-1.0692,-1.0692,-1.0692,-1.0692,-1.0692,-1.0692,-1.0692,-1.0692,-1.0692,-1.087,-1.1053,-1.1191,-1.1374,-1.1524,-1.1589,-1.1729,-1.1806,-1.1806,-1.1806,-1.1806,-1.1806,-1.1806,-1.1806,-1.1806,-1.1806,-1.1806,-1.1806,-1.1682,-1.1617,-1.1617,-1.1617,-1.1462,-1.1122,-1.1243,-1.1243,-1.1122,-1.0789,-1.0721,-1.0913,-1.0707,-1.061]},{"header":{"parameterUnit":"m.s-1","parameterCategory":1,"la1":30.6,"la2":29.2853,"lo1":-89.7004,"lo2":-87.6739,"dy":0.0162,"dx":0.0183,"nx":112,"ny":82,"refTime":"2024-09-18T12:00:00:Z","depth":0,"parameterNumber":3,"parameterNumberName":"V-component_of_WINDS"},"data":[0.0,0.0,0.0,0.0,0.0,0.0,0.0,0.0,0.0,0.0,0.0,0.0,0.0,0.0,0.0,0.0,0.0,0.0,0.0,0.0,0.0,0.0,0.0,0.0,0.0,0.0,0.0,0.0,0.0,0.0,0.0,0.0,0.0,0.0,0.0,0.0,0.0,0.0,0.0,0.0,0.0,0.0,0.0,0.0,0.0,0.0,0.0,0.0,0.0,0.0,0.0,0.0,0.0,0.0,0.0,0.0,0.0,0.0,0.0,0.0,0.0,0.0,0.0,0.0,0.0,0.0,0.0,0.0,0.0,0.0,0.0,0.0,0.0,0.0,0.0,0.0,0.0,0.0,0.0,0.0,0.0,0.0,0.0,0.0,0.0,0.0,0.0,0.0,0.0,0.0,2.1512,2.4672,2.7105,2.8147,2.7269,2.7191,2.5667,2.2033,0.0,0.0,0.0,0.0,0.0,0.0,0.0,0.0,0.0,0.0,0.0,0.0,0.0,0.0,0.0,0.0,0.0,0.0,0.0,0.0,0.0,0.0,0.0,0.0,0.0,0.0,0.0,0.0,0.0,0.0,0.0,0.0,0.0,0.0,0.0,0.0,0.0,0.0,0.0,0.0,0.0,0.0,0.0,0.0,0.0,0.0,0.0,0.0,0.0,0.0,0.0,0.0,0.0,0.0,0.0,0.0,0.0,0.0,0.0,0.0,0.0,0.0,0.0,0.0,0.0,0.0,0.0,0.0,0.0,0.0,0.0,0.0,0.0,0.0,0.0,0.0,0.0,0.0,0.0,0.0,0.0,0.0,0.0,0.0,0.0,0.0,0.0,0.0,0.0,0.0,0.0,0.0,0.0,0.0,0.0,0.0,0.0,0.0,0.0,0.0,0.0,0.0,0.0,0.0,2.1538,2.7109,2.8712,2.9045,2.8186,2.8108,2.6306,2.2072,0.0,0.0,0.0,0.0,0.0,0.0,0.0,0.0,0.0,0.0,0.0,0.0,0.0,0.0,0.0,0.0,0.0,0.0,0.0,0.0,0.0,0.0,0.0,0.0,0.0,0.0,0.0,0.0,0.0,0.0,0.0,0.0,0.0,0.0,0.0,0.0,0.0,0.0,0.0,0.0,0.0,0.0,0.0,0.0,0.0,0.0,0.0,0.0,0.0,0.0,0.0,0.0,0.0,0.0,0.0,0.0,0.0,0.0,0.0,0.0,0.0,0.0,0.0,0.0,0.0,0.0,0.0,0.0,0.0,0.0,0.0,0.0,0.0,0.0,0.0,0.0,0.0,0.0,0.0,0.0,0.0,0.0,0.0,0.0,0.0,0.0,0.0,0.0,0.0,0.0,0.0,0.0,0.0,0.0,0.0,0.0,0.0,0.0,0.0,0.0,0.0,0.0,0.0,2.1657,2.416,2.7893,2.9474,2.9728,2.84,2.8302,2.6444,2.2081,1.9416,0.0,0.0,0.0,0.0,0.0,0.0,0.0,0.0,0.0,0.0,0.0,0.0,0.0,0.0,0.0,0.0,0.0,0.0,0.0,0.0,0.0,0.0,0.0,0.0,0.0,0.0,0.0,0.0,0.0,0.0,0.0,0.0,0.0,0.0,0.0,0.0,0.0,0.0,0.0,0.0,0.0,0.0,0.0,0.0,0.0,0.0,0.0,0.0,0.0,0.0,0.0,0.0,0.0,0.0,0.0,0.0,0.0,0.0,0.0,0.0,0.0,0.0,0.0,0.0,0.0,0.0,0.0,0.0,0.0,0.0,0.0,0.0,0.0,0.0,0.0,0.0,0.0,0.0,0.0,0.0,0.0,0.0,0.0,0.0,0.0,0.0,0.0,0.0,0.0,0.0,0.0,0.0,0.0,0.0,0.0,0.0,0.0,0.0,0.0,0.0,0.0,0.0,2.4731,2.682,2.8166,2.9805,3.0118,2.8439,2.7912,2.5919,2.1753,1.8908,0.0,0.0,0.0,0.0,0.0,0.0,0.0,0.0,0.0,0.0,0.0,0.0,0.0,0.0,0.0,0.0,0.0,0.0,0.0,0.0,0.0,0.0,0.0,0.0,0.0,0.0,0.0,0.0,0.0,0.0,0.0,0.0,0.0,0.0,0.0,0.0,0.0,0.0,0.0,0.0,0.0,0.0,0.0,0.0,0.0,0.0,0.0,0.0,0.0,0.0,0.0,0.0,0.0,0.0,0.0,0.0,0.0,0.0,0.0,0.0,0.0,0.0,0.0,0.0,0.0,0.0,0.0,0.0,0.0,0.0,0.0,0.0,0.0,0.0,0.0,0.0,0.0,0.0,0.0,0.0,0.0,0.0,0.0,0.0,0.0,0.0,0.0,0.0,0.0,0.0,0.0,0.0,0.0,0.0,0.0,0.0,0.0,0.0,0.0,0.0,0.0,0.0,2.5063,2.8166,2.8283,2.9805,3.0118,2.8439,2.682,2.4371,2.083,1.7433,0.0,0.0,0.0,0.0,0.0,0.0,0.0,0.0,0.0,0.0,0.0,0.0,0.0,0.0,0.0,0.0,0.0,0.0,0.0,0.0,0.0,0.0,0.0,0.0,0.0,0.0,0.0,0.0,0.0,0.0,0.0,0.0,0.0,0.0,0.0,0.0,0.0,0.0,0.0,0.0,0.0,0.0,0.0,0.0,0.0,0.0,0.0,0.0,0.0,0.0,0.0,0.0,0.0,0.0,0.0,0.0,0.0,0.0,0.0,0.0,0.0,0.0,0.0,0.0,0.0,0.0,0.0,0.0,0.0,0.0,0.0,0.0,0.0,0.0,0.0,0.0,0.0,0.0,0.0,0.0,0.0,0.0,0.0,0.0,0.0,0.0,0.0,0.0,0.0,0.0,0.0,0.0,0.0,0.0,0.0,0.0,0.0,0.0,0.0,0.0,0.0,0.0,2.4165,2.7093,2.8185,2.9805,3.0117,2.8435,2.7693,2.5365,2.0799,0.0,0.0,0.0,0.0,0.0,0.0,0.0,0.0,0.0,0.0,0.0,0.0,0.0,0.0,0.0,0.0,0.0,0.0,0.0,0.0,0.0,0.0,0.0,0.0,0.0,0.0,0.0,0.0,0.0,0.0,0.0,0.0,0.0,0.0,0.0,0.0,0.0,0.0,0.0,0.0,0.0,0.0,0.0,0.0,0.0,0.0,0.0,0.0,0.0,0.0,0.0,0.0,0.0,0.0,0.0,0.0,0.0,0.0,0.0,0.0,0.0,0.0,0.0,0.0,0.0,0.0,0.0,0.0,0.0,0.0,0.0,0.0,0.0,0.0,0.0,0.0,0.0,0.0,0.0,0.0,0.0,0.0,0.0,0.0,0.0,0.0,0.0,0.0,0.0,0.0,0.0,0.0,0.0,0.0,0.0,0.0,0.0,0.0,0.0,0.0,0.0,0.0,2.0223,2.4067,2.6976,2.8166,2.9805,3.0116,2.8434,2.7789,2.5482,2.0828,0.0,0.0,0.0,0.0,0.0,0.0,0.0,0.0,0.0,0.0,0.0,0.0,0.0,0.0,0.0,0.0,0.0,0.0,0.0,0.0,0.0,0.0,0.0,0.0,0.0,0.0,0.0,0.0,0.0,0.0,0.0,0.0,0.0,0.0,0.0,0.0,0.0,0.0,0.0,0.0,0.0,0.0,0.0,0.0,0.0,0.0,0.0,0.0,0.0,0.0,0.0,0.0,0.0,0.0,0.0,0.0,0.0,0.0,0.0,0.0,0.0,0.0,0.0,0.0,0.0,0.0,0.0,0.0,0.0,0.0,0.0,0.0,0.0,0.0,0.0,0.0,0.0,0.0,0.0,0.0,0.0,0.0,0.0,0.0,0.0,0.0,0.0,0.0,0.0,0.0,0.0,0.0,0.0,0.0,0.0,0.0,0.0,0.0,0.0,0.0,0.0,0.0,2.0398,2.5102,2.8302,2.8302,2.9805,3.0118,2.8439,2.6717,2.4254,0.0,0.0,0.0,0.0,0.0,0.0,0.0,0.0,0.0,0.0,0.0,0.0,0.0,0.0,0.0,0.0,0.0,0.0,0.0,0.0,0.0,0.0,0.0,0.0,0.0,0.0,0.0,0.0,0.0,0.0,0.0,0.0,0.0,0.0,0.0,0.0,0.0,0.0,0.0,0.0,0.0,0.0,0.0,0.0,0.0,0.0,0.0,0.0,0.0,0.0,0.0,0.0,0.0,0.0,0.0,0.0,0.0,0.0,0.0,0.0,0.0,0.0,0.0,0.0,0.0,0.0,0.0,0.0,0.0,0.0,0.0,0.0,0.0,0.0,0.0,0.0,0.0,0.0,0.0,0.0,0.0,0.0,0.0,0.0,0.0,0.0,0.0,0.0,0.0,0.0,0.0,0.0,0.0,0.0,0.0,0.0,0.0,0.0,0.0,0.0,0.0,0.0,0.0,2.1217,2.5492,2.8537,2.9143,2.965,2.9493,2.8395,2.7276,2.487,2.0789,0.0,0.0,0.0,0.0,0.0,0.0,0.0,0.0,0.0,0.0,0.0,0.0,0.0,0.0,0.0,0.0,0.0,0.0,0.0,0.0,0.0,0.0,0.0,0.0,0.0,0.0,0.0,0.0,0.0,0.0,0.0,0.0,0.0,0.0,0.0,0.0,0.0,0.0,0.0,0.0,0.0,0.0,0.0,0.0,0.0,0.0,0.0,0.0,0.0,0.0,0.0,0.0,0.0,0.0,0.0,0.0,0.0,0.0,0.0,0.0,0.0,0.0,0.0,0.0,0.0,0.0,0.0,0.0,0.0,0.0,0.0,0.0,0.0,0.0,0.0,0.0,0.0,0.0,0.0,0.0,0.0,0.0,0.0,0.0,0.0,0.0,0.0,0.0,0.0,0.0,0.0,0.0,0.0,0.0,0.0,0.0,0.0,0.0,0.0,0.0,0.0,0.0,2.1998,2.5843,2.8635,2.9514,2.9885,2.959,2.8396,2.7822,2.5669,2.1296,0.0,0.0,0.0,0.0,0.0,0.0,0.0,0.0,0.0,0.0,0.0,0.0,0.0,0.0,0.0,0.0,0.0,0.0,0.0,0.0,0.0,0.0,0.0,0.0,0.0,0.0,0.0,0.0,0.0,0.0,0.0,0.0,0.0,0.0,0.0,0.0,0.0,0.0,0.0,0.0,0.0,0.0,0.0,0.0,0.0,0.0,0.0,0.0,0.0,0.0,0.0,0.0,0.0,0.0,0.0,0.0,0.0,0.0,0.0,0.0,0.0,0.0,0.0,0.0,0.0,0.0,0.0,0.0,0.0,0.0,0.0,0.0,0.0,0.0,0.0,0.0,0.0,0.0,0.0,0.0,0.0,0.0,0.0,0.0,0.0,0.0,0.0,0.0,0.0,0.0,0.0,0.0,0.0,0.0,0.0,0.0,0.0,0.0,0.0,0.0,0.0,0.0,2.2779,2.6195,2.8654,2.9612,3.0294,3.004,2.8439,2.8234,2.6393,2.2198,0.0,0.0,0.0,0.0,0.0,0.0,0.0,0.0,0.0,0.0,0.0,0.0,0.0,0.0,0.0,0.0,0.0,0.0,0.0,0.0,0.0,0.0,0.0,0.0,0.0,0.0,0.0,0.0,0.0,0.0,0.0,0.0,0.0,0.0,0.0,0.0,0.0,0.0,0.0,0.0,0.0,0.0,0.0,0.0,0.0,0.0,0.0,0.0,0.0,0.0,0.0,0.0,0.0,0.0,0.0,0.0,0.0,0.0,0.0,0.0,1.895,1.7203,0.0,0.0,0.0,0.0,0.0,0.0,0.0,0.0,0.0,0.0,0.0,0.0,0.0,0.0,0.0,0.0,0.0,0.0,0.0,0.0,0.0,0.0,0.0,0.0,0.0,0.0,0.0,0.0,0.0,0.0,0.0,0.0,0.0,0.0,0.0,0.0,0.0,0.0,0.0,0.0,2.3598,2.6565,2.8888,3.0371,3.0138,2.9436,2.8381,2.7667,2.6001,2.3016,2.119,0.0,0.0,0.0,0.0,0.0,0.0,0.0,0.0,0.0,0.0,0.0,0.0,0.0,0.0,0.0,0.0,0.0,0.0,0.0,0.0,0.0,0.0,0.0,0.0,0.0,0.0,0.0,0.0,0.0,0.0,0.0,0.0,0.0,0.0,0.0,0.0,0.0,0.0,0.0,0.0,0.0,0.0,0.0,0.0,0.0,0.0,0.0,0.0,0.0,0.0,0.0,0.0,0.0,0.0,0.0,0.0,0.0,0.0,0.0,2.2909,2.1049,0.0,0.0,0.0,0.0,0.0,0.0,0.0,0.0,0.0,0.0,0.0,0.0,0.0,0.0,0.0,0.0,0.0,0.0,0.0,0.0,0.0,0.0,0.0,0.0,0.0,0.0,0.0,0.0,0.0,0.0,0.0,0.0,0.0,0.0,0.0,0.0,0.0,0.0,0.0,0.0,2.5045,2.7531,2.9367,3.0665,3.0428,2.9822,2.8942,2.8071,2.6657,2.4491,2.2707,0.0,0.0,0.0,0.0,0.0,0.0,0.0,0.0,0.0,0.0,0.0,0.0,0.0,0.0,0.0,0.0,0.0,0.0,0.0,0.0,0.0,0.0,0.0,0.0,0.0,0.0,0.0,0.0,0.0,0.0,0.0,0.0,0.0,0.0,0.0,0.0,0.0,0.0,0.0,0.0,0.0,0.0,0.0,0.0,0.0,0.0,0.0,0.0,0.0,0.0,0.0,0.0,0.0,2.7277,2.8139,2.9508,2.872,2.9145,3.0368,2.7589,2.5954,2.5192,2.4335,0.0,0.0,0.0,0.0,0.0,0.0,0.0,0.0,0.0,0.0,0.0,0.0,0.0,0.0,0.0,0.0,0.0,0.0,0.0,0.0,0.0,0.0,2.6856,2.7439,2.8108,2.747,2.3207,0.0,0.0,0.0,0.0,0.0,0.0,0.0,0.0,0.0,0.0,0.0,2.6363,2.8457,2.9824,3.0716,3.0809,3.0454,2.9571,2.8837,2.7772,2.6242,2.4517,2.2914,0.0,0.0,0.0,0.0,0.0,0.0,0.0,0.0,0.0,0.0,0.0,0.0,0.0,0.0,0.0,0.0,0.0,0.0,0.0,0.0,0.0,0.0,0.0,0.0,0.0,0.0,0.0,0.0,0.0,0.0,0.0,0.0,1.5781,1.8231,0.0,0.0,0.0,0.0,0.0,0.0,0.0,0.0,0.0,0.0,0.0,0.0,0.0,2.5994,2.8217,3.007,3.1437,3.2317,3.3768,3.4583,3.4798,3.4672,3.4747,3.4925,3.4496,0.0,2.8673,2.7802,0.0,0.0,0.0,0.0,0.0,0.0,0.0,0.0,0.0,0.0,0.0,0.0,0.0,0.0,0.0,0.0,0.0,0.0,0.0,0.0,0.0,0.0,3.0989,3.0359,3.0299,3.0179,2.9502,2.5878,2.2233,2.0513,1.9364,1.8429,0.0,0.0,0.0,0.0,0.0,0.0,2.6531,2.8424,2.983,3.0712,3.0791,3.0445,2.957,2.9392,2.8933,2.8028,2.6313,2.5251,2.5017,2.1999,0.0,0.0,0.0,0.0,0.0,0.0,0.0,0.0,0.0,0.0,0.0,0.0,0.0,0.0,0.0,0.0,0.0,0.0,0.0,0.0,0.0,0.0,0.0,0.0,0.0,0.0,0.0,0.0,0.0,1.5917,1.8309,2.0411,2.0411,1.9868,0.0,0.0,0.0,0.0,0.0,0.0,0.0,0.0,0.0,2.8404,2.9868,3.1135,3.2269,3.4007,3.5063,3.5455,3.6646,3.7211,3.7191,3.7178,3.7153,3.7153,3.7153,3.5794,3.349,3.1741,2.9473,2.7087,0.0,0.0,0.0,0.0,2.6025,2.6222,2.7539,2.8007,2.7919,2.7425,0.0,0.0,0.0,0.0,0.0,0.0,0.0,2.8537,2.9507,3.1245,3.2749,3.2829,3.2848,3.2848,3.2848,3.0349,2.7442,2.5242,2.4129,2.2942,2.1133,2.0019,0.0,0.0,0.0,2.5998,2.8083,2.9846,3.0876,3.0819,3.0804,3.0653,3.027,2.9785,2.9353,2.9006,2.7801,2.6887,2.6381,2.4471,2.2544,0.0,0.0,0.0,0.0,0.0,0.0,0.0,0.0,0.0,0.0,0.0,0.0,0.0,0.0,0.0,0.0,0.0,0.0,0.0,0.0,0.0,0.0,0.0,0.0,0.0,0.0,0.0,0.0,1.8432,2.0812,2.2537,2.3476,2.331,0.0,0.0,0.0,0.0,0.0,0.0,2.7448,2.9546,3.1193,3.225,3.4124,3.5216,3.545,3.6958,3.7703,3.7722,3.8541,3.894,3.8937,3.8894,3.8873,3.8873,3.8873,3.8373,3.7398,3.5159,3.2782,3.0616,3.0667,3.0155,2.9489,3.0353,3.0672,3.0889,3.2365,3.2866,3.28,3.2384,3.1678,3.0789,2.9539,0.0,0.0,0.0,0.0,3.1388,3.2903,3.3952,3.4752,3.5354,3.549,3.5432,3.5218,3.4187,3.2486,2.9708,2.8475,2.7271,2.5364,2.3976,0.0,2.5728,2.7269,2.8663,2.9966,3.1425,3.2099,3.1493,3.123,3.1104,3.1134,3.0325,2.9824,2.9839,2.9011,2.8238,2.7596,2.6574,2.5011,2.2849,0.0,0.0,0.0,0.0,0.0,0.0,0.0,0.0,0.0,0.0,0.0,0.0,0.0,0.0,0.0,0.0,0.0,0.0,0.0,0.0,0.0,0.0,0.0,0.0,0.0,0.0,0.0,0.0,0.0,2.5106,2.6085,0.0,0.0,0.0,0.0,2.6477,2.8796,3.0981,3.272,3.3712,3.4962,3.6547,3.6701,3.7185,3.8014,3.8913,3.9383,3.9383,4.0264,4.0667,4.0667,4.0661,4.0678,4.0678,4.0678,4.0178,3.923,3.7456,3.5695,3.4147,3.415,3.3625,3.2943,3.3821,3.4153,3.4288,3.5192,3.5518,3.5638,3.6427,3.6091,3.5369,3.5275,3.4147,0.0,0.0,3.4807,3.5698,3.6615,3.7491,3.8154,3.8192,3.8192,3.7977,3.7159,3.6906,3.5857,3.2458,3.11,3.0462,3.0349,0.0,3.0231,3.0351,3.116,3.1778,3.1861,3.2677,3.3223,3.3188,3.2428,3.1965,3.2023,3.1238,3.0732,3.0722,2.9919,2.9411,2.9371,2.7798,2.6481,2.5526,2.2989,0.0,0.0,0.0,0.0,0.0,0.0,0.0,0.0,0.0,0.0,0.0,0.0,0.0,0.0,0.0,0.0,0.0,0.0,0.0,0.0,0.0,0.0,0.0,0.0,0.0,0.0,0.0,0.0,2.7807,2.9199,0.0,2.915,2.9635,3.0459,3.1592,3.3049,3.4374,3.5511,3.6949,3.8233,3.9362,3.9901,4.0597,4.1464,4.1796,4.1951,4.1951,4.226,4.2415,4.2415,4.2415,4.2415,4.2415,4.2415,4.2222,4.1893,4.1274,3.9376,3.6845,3.6845,3.6668,3.6414,3.6726,3.6845,3.6884,3.719,3.7315,3.7365,3.7716,3.7608,3.7325,3.7368,3.6958,3.6558,3.6908,3.723,3.7549,3.786,3.8171,3.8406,3.8406,3.8406,3.8309,3.7996,3.7938,3.7588,3.6364,3.4519,3.2809,3.1718,3.1992,3.2186,3.1621,3.273,3.3429,3.2903,3.3565,3.3878,3.3351,3.3021,3.2628,3.2083,3.1794,3.1405,3.085,2.9979,2.9277,2.8746,2.763,2.6593,2.5715,2.4227,2.2191,0.0,0.0,0.0,0.0,0.0,0.0,0.0,0.0,0.0,0.0,0.0,0.0,0.0,0.0,0.0,0.0,0.0,0.0,0.0,0.0,0.0,0.0,0.0,0.0,0.0,2.5917,2.8846,3.0069,3.1867,3.2924,3.2701,3.3187,3.3999,3.5165,3.6596,3.766,3.8199,3.9846,4.1045,4.1625,4.2164,4.2725,4.3282,4.3301,4.3301,4.3301,4.3301,4.3301,4.3301,4.3301,4.3301,4.3301,4.3301,4.3255,4.3202,4.3202,4.1819,3.9705,3.9857,3.9917,3.9917,3.9917,3.9917,3.9878,3.9588,3.9298,3.9072,3.9134,3.9121,3.9085,3.9132,3.9145,3.9153,3.9192,3.9207,3.9216,3.9243,3.9238,3.9219,3.9235,3.9214,3.9093,3.8831,3.8731,3.8621,3.838,3.6969,3.5374,3.3952,3.4204,3.4284,3.3406,3.4223,3.475,3.4204,3.4614,3.473,3.4204,3.3876,3.3355,3.2511,3.196,3.1419,3.0846,2.9735,2.8982,2.875,2.7617,2.6737,2.6152,2.4705,2.3101,2.1379,0.0,0.0,0.0,0.0,0.0,0.0,0.0,0.0,0.0,0.0,0.0,0.0,0.0,0.0,0.0,0.0,0.0,0.0,0.0,0.0,0.0,0.0,0.0,2.4503,2.8544,3.1654,3.1919,3.4038,3.5226,3.4599,3.6041,3.7005,3.7043,3.9405,4.0858,4.0858,4.2402,4.3288,4.3327,4.3327,4.3327,4.3365,4.3365,4.3365,4.3365,4.3365,4.3365,4.3365,4.3365,4.3365,4.3365,4.3365,4.3257,4.3075,4.3075,4.2927,4.2713,4.3131,4.3288,4.3288,4.3288,4.3288,4.3153,4.2305,4.1513,4.0858,4.0858,4.0858,4.0858,4.0862,4.0861,4.086,4.0863,4.087,4.0862,4.0906,4.0876,4.0834,4.0888,4.0782,4.0487,3.9704,3.9438,3.9122,3.8407,3.8382,3.8186,3.7294,3.7139,3.6848,3.6008,3.5853,0.0,3.5834,3.5814,3.5795,3.5795,3.5041,3.4202,3.3416,3.1834,3.0849,3.0795,2.9212,2.8673,2.9514,2.7904,2.699,2.699,2.4512,2.3183,2.3144,0.0,0.0,0.0,0.0,0.0,0.0,0.0,0.0,0.0,0.0,0.0,0.0,0.0,0.0,0.0,0.0,0.0,0.0,0.0,0.0,0.0,2.8077,3.025,2.946,3.1552,3.3643,3.4902,3.6218,3.7175,3.7615,3.8612,3.9474,4.0115,4.1361,4.2113,4.2113,4.2534,4.3076,4.3713,4.3732,4.4044,4.4662,4.4681,4.4681,4.4681,4.4681,4.4681,4.4681,4.4681,4.4681,4.4681,4.4681,4.4648,4.4594,4.4594,4.4559,4.4366,4.3245,4.2788,4.2788,4.2788,4.2788,4.2769,4.2515,4.2285,4.2117,4.2163,4.2135,4.2103,4.2168,4.2172,4.2179,4.2174,4.2244,4.219,4.162,4.1547,4.1438,4.0826,4.0649,4.0568,4.0343,4.0265,4.0174,3.9988,3.996,3.9579,3.8269,3.8035,3.7957,3.7724,3.7159,3.6748,3.6748,3.6185,3.5795,3.5795,3.5583,3.5102,3.4241,3.3202,3.2077,3.0804,2.9147,2.8327,2.8564,2.7562,2.7002,2.7002,2.6286,2.5311,0.0,0.0,0.0,0.0,0.0,0.0,0.0,0.0,0.0,0.0,0.0,0.0,0.0,0.0,0.0,0.0,0.0,0.0,0.0,0.0,0.0,0.0,3.1429,3.362,3.4164,3.514,3.6206,3.7254,3.838,3.9304,3.9896,4.0683,4.137,4.1852,4.2673,4.3132,4.3132,4.348,4.3925,4.4432,4.4451,4.468,4.5201,4.5201,4.5201,4.5201,4.5201,4.5201,4.5201,4.5201,4.5201,4.5201,4.5201,4.5148,4.5036,4.5036,4.4973,4.4821,0.0,0.0,0.0,0.0,4.3461,4.3132,4.3132,4.2903,4.2616,4.2641,4.2631,4.2602,4.2642,4.2656,4.2656,4.2666,4.2704,4.2678,4.2231,4.2155,4.1995,4.1247,4.1,4.0869,4.0581,4.0496,4.0473,4.0508,4.0515,0.0,3.9461,3.9019,3.8648,3.8296,3.779,3.7364,3.7021,3.6561,3.6134,3.5792,3.5778,3.5447,3.4577,3.3752,0.0,0.0,0.0,2.8583,2.8225,2.7745,0.0,0.0,0.0,0.0,0.0,2.8139,0.0,0.0,2.6543,2.6738,0.0,0.0,0.0,0.0,0.0,0.0,0.0,0.0,0.0,0.0,0.0,0.0,0.0,0.0,0.0,0.0,3.416,3.5997,3.8369,3.8878,3.902,3.9104,4.0349,4.1265,4.1443,4.2197,4.2673,4.2673,4.3484,4.3966,4.3966,4.4701,0.0,0.0,0.0,4.5126,4.5126,4.5126,4.5126,4.5126,4.5126,4.5126,4.5126,4.5126,4.5126,4.5126,4.5126,4.4985,4.477,4.477,4.4662,4.4537,4.4957,4.5126,4.5126,4.5126,4.462,4.3966,4.3966,0.0,0.0,4.2801,4.2801,4.2801,4.2801,4.2801,4.2801,4.2801,4.2841,4.2853,4.2817,4.2779,4.2603,4.1974,4.1698,4.1361,4.0677,4.0473,4.0419,4.0394,4.0381,4.0437,4.0553,3.9949,3.9185,3.8404,3.8207,3.7883,3.716,3.7058,3.6723,3.5905,3.5888,0.0,3.4691,3.3864,3.3025,3.2175,3.0632,2.9439,2.8669,2.8731,2.913,2.9866,3.0061,3.0861,3.2247,3.2539,3.3476,3.4882,3.0094,2.9608,0.0,0.0,0.0,0.0,0.0,0.0,0.0,0.0,0.0,0.0,0.0,0.0,0.0,0.0,0.0,3.562,3.756,3.9245,4.1028,4.1311,4.1117,4.0514,4.1268,4.1839,4.1889,4.2655,4.3164,4.3164,4.3918,4.4382,4.4382,4.4539,4.464,4.464,4.464,4.464,4.464,4.464,4.464,4.464,4.464,0.0,4.464,4.464,4.464,4.464,4.464,4.4607,4.4553,4.4553,4.4537,4.4515,4.4593,4.464,4.464,4.464,4.452,4.4382,4.4382,4.4269,4.413,4.413,4.413,4.413,4.413,4.413,0.0,4.413,4.4298,4.4297,4.3601,4.3588,4.3539,4.2781,4.257,4.2302,4.1475,4.1289,4.1084,4.0438,4.0328,4.0337,4.0345,4.0342,4.0298,4.0125,3.9497,3.8992,3.8838,3.8212,3.7488,3.6671,3.659,3.6257,3.5377,3.4527,3.3677,3.2858,3.194,3.1401,3.1341,3.202,3.2145,3.1622,3.3008,3.3534,3.3143,3.5271,3.6462,3.6735,3.4339,3.432,0.0,0.0,0.0,0.0,0.0,0.0,0.0,0.0,0.0,0.0,0.0,2.9261,3.1238,0.0,3.5623,3.8487,3.999,4.1079,4.1892,4.238,4.233,4.1504,4.2142,4.2649,4.2649,4.3407,4.3895,4.3895,4.4264,4.4501,4.4501,4.4501,4.4501,4.4501,4.4501,4.4501,4.4501,4.4501,4.4501,4.4501,4.4501,4.4501,4.4501,4.4501,4.4501,4.4501,4.4501,4.4501,4.4501,4.4501,4.4501,4.4501,4.4501,4.4501,4.4501,4.4501,4.4501,4.4501,4.4501,4.4501,4.4501,4.4501,4.4501,4.4501,4.4501,4.4501,4.4501,4.4501,4.4592,4.4624,4.426,4.4258,4.4173,4.3463,4.3304,4.3091,4.2326,4.2144,4.1896,4.1055,4.0903,4.0764,4.0363,4.0389,4.0444,4.0444,4.0071,3.9644,3.9207,3.8804,3.8242,3.7445,3.7374,3.7215,3.6794,3.5573,3.449,3.3642,3.3254,3.3091,3.3202,3.4017,3.4466,3.4495,3.5355,3.5828,3.5855,3.7197,3.8069,3.848,3.7602,3.7693,0.0,0.0,0.0,0.0,0.0,0.0,0.0,2.6513,2.8286,2.9841,3.1548,3.3541,3.6139,3.7273,3.8588,4.091,4.1823,4.2305,4.2455,4.3081,4.3275,4.2567,4.31,4.3538,4.3538,4.4113,4.4501,4.4501,4.4501,4.4501,4.4501,4.4501,4.4501,4.4501,4.4501,4.4501,4.4501,4.4501,4.4501,4.4501,4.4501,4.4501,4.4501,4.4501,4.4501,4.4501,4.4501,4.4501,4.4501,4.4501,4.4501,4.4501,4.4501,4.4501,4.4501,4.4501,4.4501,4.4501,4.4501,4.4501,4.4501,4.4501,4.4501,4.4501,4.4501,4.4501,4.4501,4.4501,4.4528,4.4558,4.4679,4.4725,4.4619,4.4157,4.4056,4.386,4.3189,4.3023,4.2775,4.192,4.1614,4.1285,4.063,4.0401,4.0306,4.0306,4.0306,4.0057,3.9331,3.9306,3.902,3.8203,3.8151,3.8125,3.7956,3.6701,3.5633,3.4966,3.4915,3.4946,3.5027,3.567,3.6367,3.7121,3.7295,3.7761,3.8532,3.8766,3.9231,3.9919,4.0094,4.0214,2.2467,2.2232,2.298,2.5891,2.6177,2.7265,0.0,3.4019,3.4137,3.5793,3.7484,3.8762,3.912,3.9846,4.0966,4.2738,4.3106,4.3407,4.4132,4.4301,4.4339,4.4226,4.432,4.4376,4.4376,4.4451,4.4501,4.4501,4.4501,4.4501,4.4501,4.4501,4.4501,4.4501,4.4501,4.4501,4.4501,4.4501,4.4501,4.4501,4.4501,4.4501,4.4501,4.4501,4.4501,4.4501,4.4501,4.4501,4.4501,4.4501,4.4501,4.4501,4.4501,4.4501,4.4501,4.4501,4.4501,4.4501,4.4501,4.4501,4.4501,4.4501,4.4501,4.4501,4.4501,4.4501,4.4501,4.4501,4.4578,4.4685,4.4699,4.4796,4.4888,4.4941,4.495,4.4756,4.4024,4.3873,4.3629,4.2813,4.203,4.1461,4.1385,4.0764,4.0306,4.0306,4.0306,4.0263,4.0172,4.0162,3.9827,3.8972,3.887,3.8573,3.7793,3.7564,3.7457,3.7487,3.7492,3.7533,3.7669,3.7757,3.7865,3.7953,3.8733,3.9198,3.9367,4.0146,4.0572,4.0707,4.1463,4.1921,2.565,2.6637,2.7687,2.9061,3.0937,3.3054,3.5371,3.6729,3.7843,3.902,4.0178,4.1154,4.1667,4.2024,4.2637,4.3813,4.4001,4.4113,4.4451,4.4095,4.3801,4.3801,4.3801,4.3982,4.4451,4.4501,4.4501,4.4501,4.4501,4.4501,4.4501,4.4501,4.4501,4.4501,4.4501,4.4501,4.4501,4.4501,4.4501,4.4501,4.4501,4.4501,4.4501,4.4501,4.4501,4.4501,4.4501,4.4501,4.4501,4.4501,4.4501,4.4501,4.4501,4.4501,4.4501,4.4501,4.4501,4.4501,4.4501,4.4501,4.4501,4.4501,4.4501,4.4501,4.4501,4.4544,4.4619,4.4619,4.4718,4.4827,4.4907,4.4967,4.5057,4.5181,4.5213,4.5129,4.4828,4.4762,4.4513,4.3668,4.3209,4.2808,4.2335,4.1972,4.1585,4.1074,4.0592,4.0306,4.0306,4.0306,4.0153,3.9809,3.9752,3.9408,3.8534,3.8457,3.825,3.7808,3.8263,3.8568,3.8623,3.9112,3.9385,3.9373,3.9746,3.996,4.0039,4.0942,4.1377,4.1406,4.2289,4.3025,2.7848,2.9612,3.1119,3.2057,3.4883,3.7405,3.7286,3.9001,4.0791,4.1367,4.1955,4.2555,4.3182,4.3301,4.3482,4.4076,4.4357,4.4501,4.4501,4.3734,4.3221,4.3294,4.304,4.3195,4.4069,4.4376,4.4501,4.4501,4.4501,4.4501,4.4501,4.4501,4.4501,4.4501,4.4501,4.4501,4.4501,4.4501,4.4501,4.4501,4.4501,4.4501,4.4501,4.4501,4.4501,4.4501,4.4501,4.4501,4.4501,4.4501,4.4501,4.4501,4.4501,4.4501,4.4501,4.4501,4.4501,4.4501,4.4501,4.4501,4.4501,4.4501,4.4501,4.4501,4.4501,4.4565,4.4646,4.4646,4.4732,4.4864,4.4955,4.5028,4.5085,4.5208,4.5235,4.5246,4.5297,4.5302,4.5111,4.447,4.4159,4.3815,4.3228,4.2947,4.2584,4.1953,4.1361,4.0821,4.0363,4.0306,4.0306,4.0306,4.0306,4.0038,3.9408,3.935,3.9083,3.8457,3.9011,3.935,3.935,3.9962,4.0301,4.0304,4.0532,4.0689,4.0734,4.1677,4.2129,4.2148,4.3019,4.3801,2.8167,2.9612,3.1682,3.4934,3.7018,3.867,4.029,4.1961,4.3188,4.3226,4.3238,4.3263,4.3301,4.3301,4.332,4.3339,4.3982,4.4501,4.4501,4.357,4.3003,4.3274,4.2385,4.2174,4.3218,4.4038,4.4501,4.4501,4.4501,4.4501,4.4501,4.4501,4.4501,4.4501,4.4501,4.4501,4.4501,4.4501,4.4501,4.4501,4.4501,4.4501,4.4501,4.4501,4.4501,4.4501,4.4501,4.4501,4.4501,4.4501,4.4501,4.4501,4.4501,4.4501,4.4501,4.4501,4.4501,4.4501,4.4501,4.4501,4.4501,4.4501,4.4501,4.4501,4.4501,4.4508,4.4508,4.4508,4.4599,4.4712,4.4718,4.4821,4.4931,4.5061,4.5108,4.5142,4.5281,4.5302,4.5283,4.5264,4.4584,4.3987,4.3968,4.3324,4.2794,4.2756,4.2737,4.2144,4.0516,4.0306,4.0306,4.0306,4.0306,4.0287,4.0267,4.0267,4.0248,4.0229,4.0248,4.0267,4.0267,4.0287,4.0306,4.0306,4.1131,4.1556,4.1566,4.2502,4.2953,4.2979,4.3857,4.4286,3.0335,3.2893,3.5409,3.708,3.9577,4.1773,4.2337,4.3313,4.3951,4.3407,4.2844,4.2274,4.1736,4.1642,4.1811,4.2349,4.3156,4.3821,4.4176,4.3453,4.2921,4.3012,4.2712,4.2706,4.3255,4.3538,4.3926,4.4463,4.4501,4.4501,4.4501,4.4501,4.4501,4.4501,4.4501,4.4501,4.4501,4.4501,4.4501,4.4501,4.4501,4.4501,4.4501,4.4501,4.4501,4.4501,4.4501,4.4501,4.4501,4.4501,4.4501,4.4501,4.4501,4.4501,4.4501,4.4501,4.4501,4.4501,4.4501,4.4501,4.4501,4.4501,4.4501,4.4501,4.4501,4.4558,4.4652,4.4751,4.4858,4.4998,4.508,4.5136,4.5175,4.5213,4.5224,4.5254,4.5297,4.5302,4.5302,4.5302,4.5053,4.4857,4.4857,4.4647,4.4265,4.3687,4.3133,4.2603,4.2025,4.1457,4.1094,4.1094,4.0611,4.0306,4.0306,4.0306,4.0306,4.0306,4.0807,4.1094,4.1094,4.1648,4.1948,4.1948,4.2259,4.2403,4.2398,4.3254,4.3651,4.3685,4.4556,4.4988,3.3043,3.5452,3.758,3.9596,4.1698,4.3369,4.3651,4.3914,4.3818,4.2919,4.1606,4.0331,3.9431,3.9032,3.9287,4.068,4.1602,4.258,4.379,4.3265,4.2786,4.2888,4.2567,4.2575,4.323,4.313,4.3439,4.4437,4.4501,4.4501,4.4501,4.4501,4.4501,4.4501,4.4501,4.4501,4.4501,4.4501,4.4501,4.4501,4.4501,4.4501,4.4501,4.4501,4.4501,4.4501,4.4501,4.4501,4.4501,4.4501,4.4501,4.4501,4.4501,4.4501,4.4501,4.4501,4.4501,4.4501,4.4501,4.4501,4.4501,4.4501,4.4501,4.4501,4.4501,4.4551,4.4652,4.4719,4.4883,4.5057,4.5136,4.5219,4.5302,4.5302,4.5302,4.5302,4.5302,4.5302,4.5302,4.5302,4.5302,4.5302,4.5302,4.5302,4.5111,4.4546,4.4017,4.3482,4.2889,4.2316,4.1953,4.1953,4.1495,4.1184,4.1184,4.1184,4.1184,4.1184,4.1686,4.1953,4.1953,4.2507,4.2794,4.2794,4.3119,4.3248,4.3228,4.4071,4.4502,4.4501,4.5061,4.536,3.6072,3.7292,3.8362,4.2306,4.3325,4.3525,4.4243,4.3755,4.2813,4.1668,3.95,3.749,3.6397,3.5667,3.6012,3.8406,3.9567,4.0995,4.3355,4.3055,4.267,4.2891,4.2034,4.1928,4.3207,4.2857,4.3089,4.4362,4.4461,4.4487,4.4487,4.4501,4.4501,4.4501,4.4501,4.4501,4.4501,4.4501,4.4501,4.4501,4.4501,4.4501,4.4501,4.4501,4.4501,4.4501,4.4501,4.4501,4.4501,4.4501,4.4501,4.4501,4.4501,4.4501,4.4501,4.4501,4.4501,4.4501,4.4501,4.4501,4.4501,4.4501,4.4501,4.4508,4.4515,4.4515,4.4515,4.4535,4.4706,4.4907,4.4913,4.5114,4.5302,4.5302,4.5302,4.5302,4.5302,4.5302,4.5302,4.5302,4.5302,4.5302,4.5302,4.5302,4.5302,4.5302,4.5302,4.4729,4.3138,4.2889,4.287,4.287,4.2813,4.2794,4.2794,4.2794,4.2794,4.2794,4.2832,4.287,4.287,4.2908,4.2928,4.2928,4.3737,4.4138,4.4064,4.4963,4.539,4.5384,4.5395,4.54,3.753,3.9821,4.1968,4.3038,4.3601,4.3796,4.34,4.2079,4.0338,3.8243,3.5905,3.3801,3.2434,3.3351,3.4969,3.695,3.9531,4.1786,4.3203,4.3568,4.3566,4.3232,4.3123,4.3217,4.3566,4.3473,4.3549,4.3881,4.4094,4.4199,4.4199,4.4397,4.4501,4.4501,4.4501,4.4501,4.4501,4.4501,4.4501,4.4501,4.4501,4.4501,4.4501,4.4501,4.4501,4.4501,4.4501,4.4501,4.4501,4.4501,4.4501,4.4501,4.4501,4.4501,4.4501,4.4501,4.4501,4.4501,4.4501,4.4501,4.4501,4.4501,4.4501,4.4522,4.4619,4.4652,4.4692,4.4883,4.501,4.5061,4.517,4.5259,4.5302,4.5302,4.5302,4.5302,4.5302,4.5302,4.5302,4.5302,4.5302,4.5302,4.5302,4.5302,4.5302,4.5302,4.5302,4.5149,4.4729,4.4093,4.3682,4.3682,4.3152,4.2794,4.2794,4.2794,4.2794,4.2794,4.3362,4.3682,4.3682,4.4322,4.4652,4.4652,4.4873,4.4987,4.4972,4.5213,4.5338,4.5323,4.5338,4.535,3.9971,4.1867,4.3369,4.3745,4.3779,4.3317,4.1691,3.9953,3.7846,3.4866,3.2674,3.0855,2.9501,3.0592,3.2495,3.4868,3.772,4.0323,4.2312,4.3255,4.3646,4.3338,4.3434,4.357,4.3687,4.3485,4.3451,4.3679,4.3944,4.4091,4.4091,4.435,4.4501,4.4501,4.4501,4.4501,4.4501,4.4501,4.4501,4.4501,4.4501,4.4501,4.4501,4.4501,4.4501,4.4501,4.4501,4.4501,4.4501,4.4501,4.4501,4.4501,4.4501,4.4501,4.4501,4.4501,4.4501,4.4501,4.4501,4.4501,4.4501,4.4501,4.453,4.4599,4.4679,4.4751,4.4815,4.4961,4.5043,4.512,4.5192,4.5265,4.5302,4.5302,4.5302,4.5302,4.5302,4.5302,4.5302,4.5302,4.5302,4.5302,4.5302,4.5302,4.5302,4.5302,4.5302,4.5302,4.5302,4.4876,4.4565,4.4565,4.4169,4.3902,4.3902,4.3902,4.3902,4.3902,4.4322,4.4565,4.4565,4.5034,4.5302,4.5302,4.5302,4.5302,4.5302,4.5302,4.5302,4.5302,4.5302,4.5317,4.2468,4.3369,4.3595,4.4188,4.3699,4.2338,3.9579,3.7598,3.5318,3.1642,2.9738,2.8356,2.7173,2.7875,2.9679,3.2805,3.5335,3.8023,4.1298,4.2585,4.3219,4.3231,4.3276,4.3382,4.3579,4.3205,4.3142,4.3612,4.4021,4.4258,4.4258,4.4518,4.4707,4.4827,4.4827,4.4827,4.4827,4.4714,4.4714,4.4827,4.4707,4.4714,4.4827,4.4827,4.4827,4.4827,4.4707,4.4658,4.4658,4.4545,4.4501,4.4501,4.4501,4.4501,4.4501,4.4501,4.4501,4.4501,4.4501,4.4501,4.4501,4.4501,4.4585,4.4712,4.4725,4.4815,4.4925,4.4943,4.5045,4.5131,4.5131,4.5208,4.5302,4.5302,4.5302,4.5302,4.5302,4.5302,4.5302,4.5302,4.5302,4.5302,4.5302,4.5302,4.5302,4.5302,4.5302,4.5302,4.5302,4.5302,4.5302,4.5302,4.5302,4.5302,4.5302,4.5302,4.5302,4.5302,4.5302,4.5302,4.5302,4.5302,4.5302,4.5302,4.5302,4.5302,4.5302,4.5302,4.5302,4.5302,4.5302,4.5302,4.2956,4.3782,4.417,4.3632,4.2681,4.1071,3.7888,3.523,3.2447,2.8964,2.7138,2.5837,2.4852,2.6397,2.8941,3.2347,3.4837,3.7671,4.1479,4.2385,4.2732,4.2932,4.3178,4.3232,4.3059,4.3169,4.3267,4.3364,4.4444,4.5097,4.5097,4.5342,4.5829,4.6535,4.6572,4.6572,4.6572,4.5848,4.5848,4.6554,4.5848,4.5866,4.6572,4.6572,4.6572,4.6535,4.581,4.5491,4.5435,4.477,4.4501,4.4501,4.4501,4.4501,4.4501,4.4501,4.4501,4.4501,4.4501,4.4501,4.4501,4.4501,4.4585,4.4725,4.4827,4.4955,4.5091,4.5197,4.5259,4.527,4.527,4.5286,4.5302,4.5302,4.5302,4.5302,4.5302,4.5302,4.5302,4.5302,4.5302,4.5302,4.5302,4.5302,4.5302,4.5302,4.5302,4.5302,4.5302,4.5302,4.5302,4.5302,4.5302,4.5302,4.5302,4.5302,4.5302,4.5302,4.5302,4.5302,4.5302,4.5302,4.5302,4.5302,4.5302,4.5302,4.5302,4.5302,4.5302,4.5302,4.5302,4.5302,4.3069,4.3888,4.432,4.3501,4.2238,4.0072,3.5844,3.3211,3.0556,2.6675,2.5406,2.4815,2.4293,2.5872,2.8001,3.0344,3.2702,3.5597,3.9518,4.0548,4.1389,4.2748,4.3013,4.305,4.2901,4.3543,4.4033,4.4163,4.5306,4.5775,4.5312,4.5978,4.6572,4.6985,4.7004,4.7004,4.7004,4.6599,4.6599,4.6985,4.658,4.6591,4.7004,4.7004,4.7004,4.6985,4.6561,4.6129,4.566,4.5277,4.4883,4.4501,4.4501,4.4501,4.4501,4.4501,4.4501,4.4501,4.4501,4.4501,4.4501,4.4501,4.4585,4.4731,4.4852,4.4985,4.5131,4.5251,4.5302,4.5302,4.5302,4.5302,4.5302,4.5302,4.5302,4.5302,4.5302,4.5302,4.5302,4.5302,4.5302,4.5302,4.5302,4.5302,4.5302,4.5302,4.5302,4.5302,4.5302,4.5302,4.5302,4.5302,4.5302,4.5302,4.5302,4.5302,4.5302,4.5302,4.5302,4.5302,4.5302,4.5302,4.5302,4.5302,4.5302,4.5302,4.5302,4.5302,4.5302,4.5302,4.5302,4.5302,4.3013,4.3888,4.4264,4.3275,4.1623,3.8989,3.4087,3.1525,2.9098,2.5143,2.4444,2.4491,2.4325,2.5431,2.6927,2.8601,3.0613,3.3432,3.7673,3.8965,4.0318,4.2629,4.2892,4.2964,4.3145,4.4026,4.4755,4.5208,4.6291,4.6645,4.5965,4.6945,4.753,4.753,4.753,4.753,4.753,4.735,4.735,4.753,4.735,4.735,4.753,4.753,4.753,4.753,4.7342,4.6861,4.6223,4.6054,4.551,4.4752,4.4752,4.4658,4.4501,4.4501,4.4522,4.453,4.453,4.4558,4.4578,4.4578,4.4659,4.4751,4.4864,4.5003,4.5164,4.5275,4.5302,4.5302,4.5302,4.5302,4.5302,4.5302,4.5302,4.5302,4.5302,4.5302,4.5302,4.5302,4.5302,4.5302,4.5302,4.5302,4.5302,4.5302,4.5302,4.5302,4.5302,4.5302,4.5302,4.5302,4.5302,4.5302,4.5302,4.5302,4.5302,4.5302,4.5302,4.5302,4.5302,4.5302,4.5302,4.5302,4.5302,4.5302,4.5302,4.5302,4.5302,4.5302,4.5302,4.5302,4.2862,4.3888,4.4132,4.2511,4.0303,3.7412,3.3159,3.0335,2.7837,2.5052,2.4582,2.4594,2.4344,2.4526,2.5694,2.868,2.9913,3.2366,3.7715,3.9159,4.0482,4.2648,4.2892,4.3181,4.3924,4.429,4.4912,4.592,4.7263,4.8014,4.7939,4.8788,4.9265,4.9265,4.9265,4.9265,4.9265,4.8495,4.8495,4.9265,4.8476,4.8495,4.9265,4.9265,4.9265,4.9227,4.842,4.8052,4.792,4.7181,4.6373,4.5585,4.5585,4.5146,4.4501,4.4501,4.4572,4.4685,4.4685,4.4751,4.4858,4.4858,4.4864,4.4877,4.4889,4.5085,4.5291,4.5302,4.5302,4.5302,4.5302,4.5302,4.5302,4.5302,4.5302,4.5302,4.5302,4.5302,4.5302,4.5302,4.5302,4.5302,4.5302,4.5302,4.5302,4.5302,4.5302,4.5302,4.5302,4.5302,4.5302,4.5302,4.5302,4.5302,4.5302,4.5302,4.5302,4.5302,4.5302,4.5302,4.5302,4.5302,4.5302,4.5302,4.5302,4.5302,4.5302,4.5302,4.5302,4.5302,4.5302,4.5302,4.0622,4.2018,4.2718,4.1579,3.9408,3.661,3.2931,3.018,2.7685,2.5146,2.465,2.4672,2.4568,2.4574,2.5163,2.6823,2.7341,2.8939,3.3001,3.4576,3.6573,4.0018,4.105,4.2287,4.4417,4.5175,4.617,4.7725,4.8228,4.8516,4.8664,4.9198,4.9509,4.9509,4.9509,4.9509,4.9509,4.9152,4.9152,4.9509,4.9152,4.9152,4.9509,4.9509,4.9509,4.9471,4.9133,4.8683,4.8183,4.7838,4.6918,4.5697,4.5697,4.5202,4.4501,4.4501,4.4578,4.4705,4.4705,4.4796,4.4895,4.4895,4.4949,4.5009,4.5009,4.5084,4.5192,4.5281,4.5302,4.5302,4.5302,4.5302,4.5302,4.5302,4.5302,4.5302,4.5302,4.5302,4.5302,4.5302,4.5302,4.5302,4.5302,4.5302,4.5302,4.5302,4.5302,4.5302,4.5302,4.5302,4.5302,4.5302,4.5302,4.5302,4.5302,4.5302,4.5302,4.5302,4.5302,4.5302,4.5302,4.5302,4.5302,4.5302,4.5302,4.5302,4.5302,4.5302,4.5302,4.5302,4.5302,4.5569,3.8707,4.0403,4.1448,4.0647,3.8588,3.5865,3.2518,2.9828,2.7402,2.5154,2.4704,2.4704,2.4704,2.4704,2.4919,2.5589,2.5942,2.7279,3.0555,3.2264,3.4662,3.8595,3.9917,4.1623,4.4469,4.5954,4.7323,4.8629,4.8651,4.8713,4.8983,4.9211,4.9412,4.9501,4.9509,4.9509,4.9509,4.9509,4.9509,4.9509,4.9509,4.9509,4.9509,4.9509,4.9509,4.9509,4.9509,4.9152,4.857,4.857,4.7744,4.643,4.643,4.5791,4.4853,4.4894,4.4853,4.4757,4.4796,4.492,4.5028,4.5028,4.5091,4.5159,4.5159,4.5159,4.5181,4.5262,4.5302,4.5302,4.5302,4.5302,4.5302,4.5302,4.5302,4.5302,4.5302,4.5302,4.5302,4.5302,4.5302,4.5302,4.5302,4.5302,4.5302,4.5302,4.5302,4.5302,4.5302,4.5302,4.5302,4.5302,4.5302,4.5302,4.5302,4.5302,4.5302,4.5302,4.5302,4.5302,4.5302,4.5302,4.5302,4.5302,4.5302,4.5302,4.5302,4.5302,4.5416,4.5646,4.5646,4.6099,3.7643,3.9533,4.0609,3.9815,3.7743,3.5028,3.1682,2.8983,2.6735,2.5041,2.4704,2.4704,2.4704,2.4704,2.4919,2.5589,2.6543,2.8474,3.217,3.4055,3.6217,3.9327,4.0161,4.1452,4.387,4.6523,4.8096,4.8106,4.8411,4.8713,4.8983,4.9,4.9162,4.9501,4.9509,4.9509,4.9509,4.9509,4.9509,4.9509,4.9509,4.9509,4.9509,4.9509,4.9509,4.9509,4.9509,4.949,4.949,4.949,4.8964,4.8164,4.8164,4.7162,4.57,4.5846,4.5476,4.4913,4.5057,4.5181,4.5297,4.5297,4.5302,4.5302,4.5302,4.5302,4.5302,4.5302,4.5302,4.5302,4.5302,4.5302,4.5302,4.5302,4.5302,4.5302,4.5302,4.5302,4.5302,4.5302,4.5302,4.5302,4.5302,4.5302,4.5302,4.5302,4.5302,4.5302,4.5302,4.5302,4.5302,4.5302,4.5302,4.5302,4.5302,4.5302,4.5302,4.5302,4.5302,4.5302,4.5302,4.5302,4.5302,4.5302,4.5302,4.5302,4.5302,4.5302,4.5703,4.6495,4.6495,4.6953,3.2569,3.4033,3.4789,3.4532,3.3067,3.1222,2.9579,2.773,2.6067,2.4929,2.4704,2.4704,2.4704,2.4704,2.5326,2.7243,2.7803,2.8779,3.0967,3.3641,3.5889,3.7279,4.152,4.4572,4.5204,4.6987,4.8104,4.8104,4.8042,4.8093,4.8365,4.8596,4.8959,4.9474,4.9509,4.9509,4.9509,4.9509,4.9509,4.9509,4.9509,4.9509,4.9509,4.9509,4.9509,4.9509,4.9509,4.9509,4.9509,4.9509,4.8983,4.8202,4.8202,4.7537,4.6594,4.6739,4.6711,4.6626,4.6767,4.6902,4.701,4.701,4.701,4.701,4.701,4.6214,4.5302,4.5302,4.5302,4.5302,4.5302,4.5302,4.5302,4.5302,4.5302,4.5302,4.5302,4.5302,4.5302,4.5302,4.5302,4.5302,4.5302,4.5302,4.5302,4.5302,4.5302,4.5302,4.5302,4.5302,4.5302,4.5302,4.5302,4.5302,4.5302,4.5302,4.5302,4.5302,4.5302,4.5302,4.5302,4.5302,4.5302,4.5302,4.5302,4.5569,4.6118,4.6118,4.6557,4.7393,4.799,4.8411,2.9076,3.081,3.1674,3.164,3.0678,2.9382,2.8209,2.6946,2.5752,2.4876,2.4704,2.4704,2.4704,2.4704,2.521,2.6741,2.7271,2.8221,3.0318,3.3165,3.5806,3.7838,4.2386,4.5306,4.5176,4.6851,4.7994,4.8086,4.7839,4.7929,4.8402,4.8532,4.8873,4.9474,4.9509,4.9509,4.9509,4.9509,4.9509,4.9509,4.9509,4.9509,4.9509,4.9509,4.9509,4.9509,4.9509,4.9509,0.0,4.9509,4.9171,4.8683,4.8683,4.8176,4.7484,4.7662,4.759,4.7429,4.7614,4.7737,4.7794,4.7794,4.7794,4.7794,4.7794,4.6839,4.5684,4.5397,4.5302,4.5302,4.5302,4.5302,4.5302,4.5302,4.5302,4.5302,4.5302,4.5302,4.5302,4.5302,4.5302,4.5302,4.5302,4.5302,4.5302,4.5302,4.5302,4.5302,4.5302,4.5302,4.5302,4.5302,4.5302,4.5302,4.5302,4.5302,4.5302,4.5302,4.5302,4.5302,4.5302,4.5302,4.5302,4.5302,4.5607,4.6003,4.6495,4.7169,4.7761,4.8315,4.9156,4.9543,0.0,2.9159,3.0371,3.0302,2.972,2.8767,2.7213,2.6259,0.0,2.4786,2.4617,2.467,2.4854,2.4779,2.4816,2.5173,2.5917,2.7519,3.0589,3.3199,3.6352,4.0602,4.2941,4.4215,4.4196,4.6323,4.7806,4.8055,4.7868,4.8092,4.8897,4.874,4.889,4.9451,4.9501,4.9509,4.9509,4.9509,4.9509,4.9509,4.9509,4.9509,4.9509,4.9509,4.9509,4.9509,4.9505,4.9505,4.9505,4.9521,4.9528,4.9528,4.9528,4.904,4.8344,4.8603,4.8237,4.7625,4.7886,4.7979,4.7979,4.7979,4.7979,4.7966,4.7908,4.7278,4.6424,4.5607,4.5397,4.5378,4.5302,4.5302,4.5302,4.5302,4.5302,4.5302,4.5302,4.5302,4.5302,4.5302,4.5302,4.5302,4.5302,4.5302,4.5302,4.5302,4.5302,4.5302,4.5302,4.5302,4.5302,4.5302,4.5302,4.5302,4.5302,4.5302,4.5302,4.5302,4.5302,4.5302,4.5302,4.5359,4.5397,4.5397,4.6233,4.6686,4.6691,4.8378,4.918,4.92,4.9939,5.0302,2.269,0.0,2.4341,2.4338,2.4182,2.3934,0.0,2.3306,2.3302,2.3766,2.386,2.4426,2.6274,2.5567,2.5942,2.9739,3.0527,3.1703,3.4698,3.7659,4.0372,4.2765,4.4399,4.5245,4.5039,4.6639,4.772,4.7785,4.7931,4.8094,4.8299,4.8686,4.8966,4.9102,4.9369,4.9509,4.9509,4.9509,4.9509,4.9509,4.9509,4.9509,4.9509,4.9509,4.9509,4.9516,4.9608,4.966,4.9667,4.9752,4.9802,4.9802,4.9802,4.9669,4.952,4.9688,4.9638,4.9493,4.9651,4.971,4.971,4.971,4.971,4.9595,4.8984,4.82,4.7316,4.6462,4.6214,4.608,4.5455,4.5302,4.5302,4.5302,4.5302,4.5302,4.5302,4.5302,4.5302,4.5302,4.5302,4.5302,4.5302,4.5302,4.5302,4.5302,4.5302,4.5302,4.5302,4.5302,4.5302,4.5302,4.5302,4.5302,4.5302,4.5302,4.5302,4.5302,4.5302,4.5302,4.5302,4.5889,4.6214,4.6214,4.7704,4.8493,4.8493,4.9519,5.0015,5.0015,5.0206,5.0302,2.0745,2.2134,2.3562,2.3507,2.3798,2.4083,2.4083,2.3784,2.362,2.4066,2.4185,2.4574,2.5816,2.6014,2.6962,2.9995,3.134,3.3354,3.7194,3.9935,4.2091,4.3523,4.4874,4.5585,4.5339,4.6747,4.7752,4.787,4.8024,4.8212,4.8495,4.8818,4.9069,4.9211,4.9412,4.9509,4.9509,4.9509,4.9509,4.9509,4.9509,4.9509,4.9509,4.9509,4.9509,4.9516,4.9645,4.9675,4.9623,4.9816,4.9871,4.9809,4.9878,4.9905,4.9925,5.005,5.0101,5.012,5.0255,5.0302,5.0302,5.0302,5.0302,5.0225,4.9786,4.9328,4.8691,4.745,4.7106,4.6991,4.6557,4.6156,4.5851,4.5851,4.5569,4.5302,4.5302,4.5302,4.5302,4.5302,4.5302,4.5302,4.5302,4.5302,4.5302,4.5302,4.5302,4.5302,4.5302,4.5302,4.5302,4.5302,4.5302,4.5455,4.5812,4.5851,4.5851,4.5851,4.5851,4.6023,4.6424,4.6877,4.7278,4.7685,4.8626,4.9276,4.9652,5.0092,5.0302,5.0302,5.0302,5.0302,2.0408,2.2844,2.5158,2.4518,2.5086,2.5787,2.5681,2.5074,2.4576,2.4636,2.4795,2.5048,2.5412,2.6794,2.8294,2.9559,3.1745,3.4815,3.9248,4.1374,4.2793,4.3652,4.4962,4.5671,4.539,4.6778,4.7806,4.8085,4.8153,4.843,4.8966,4.9052,4.9203,4.9482,4.9509,4.9509,4.9509,4.9509,4.9509,4.9509,4.9509,4.9509,4.9509,4.9509,4.9505,4.9536,4.966,4.9667,4.96,4.9836,4.9878,4.9795,4.9925,4.9953,4.9966,5.0095,5.0133,5.0151,5.0261,5.0302,5.0302,5.0302,5.0302,5.0302,5.0302,5.0302,4.9996,4.8577,4.8099,4.7966,4.7826,4.7259,4.6705,4.6705,4.6175,4.5684,4.5684,4.5684,4.5684,4.5684,4.5684,4.5684,4.5684,4.5684,4.5684,4.5684,4.5684,4.5684,4.5684,4.5684,4.5684,4.5684,4.5684,4.5965,4.6648,4.6705,4.6762,4.6882,4.6762,4.7087,4.7966,4.8004,4.8411,4.9276,4.9276,4.962,5.0302,5.0302,5.0302,5.0302,5.0308,5.0314,2.1834,2.4161,2.5497,2.2576,2.2983,2.3914,2.3292,2.3053,2.3143,2.3815,2.4544,2.5892,2.8608,2.9374,3.081,3.4448,3.7565,4.0299,4.2523,4.3638,4.4175,4.4049,4.5323,4.6069,4.568,4.69,4.7806,4.8085,4.8355,4.8669,4.8974,4.9271,4.9451,4.9509,4.9509,4.9509,4.9509,4.9509,4.9509,4.9509,4.9509,4.9509,4.9509,4.9509,4.9567,4.9663,4.9685,4.9828,5.0011,5.005,5.0126,5.0213,5.0237,5.0243,5.0249,5.0261,5.0273,5.0273,5.0296,5.0302,5.0302,5.0302,5.0302,5.0302,5.0302,5.0302,5.0245,4.999,4.9423,4.8741,4.7985,4.7693,4.7603,4.7603,4.7507,4.7412,4.7412,4.7412,4.7412,4.7412,4.7412,4.7412,4.7412,4.7412,4.7412,4.7412,4.7412,4.7412,4.7412,4.7412,4.7412,4.7412,4.7412,4.7469,4.7584,4.7603,4.7908,4.8645,4.8004,4.7985,4.8856,4.8894,4.9276,5.0092,5.0111,5.0187,5.0302,5.0302,5.0302,5.0302,5.0367,5.0371,2.1032,2.3114,2.4773,2.3684,2.5682,2.7693,2.6896,2.6712,2.6794,2.7132,2.7556,2.8426,3.0268,3.181,3.4113,3.8148,4.0736,4.2516,4.3271,4.4063,4.4443,4.4136,4.5013,4.5649,4.5595,4.671,4.7725,4.8421,4.8755,4.9065,4.936,4.9456,4.9509,4.9509,4.9509,4.9509,4.9509,4.9509,4.9509,4.9509,4.9509,4.9509,4.9509,4.9509,4.9563,4.9699,4.9785,4.9878,4.9992,5.0151,5.0207,5.0201,5.0273,5.0302,5.0302,5.0302,5.0302,5.0302,5.0302,5.0302,5.0302,5.0302,5.0302,5.0302,5.0302,5.0302,5.0302,5.0302,5.0034,4.9652,4.9245,4.8831,4.8506,4.8506,4.8138,4.7794,4.7794,4.7794,4.7794,4.7794,4.7794,4.7794,4.7794,4.7794,4.7794,4.7794,4.7794,4.7794,4.7794,4.7794,4.7794,4.7794,4.7794,4.7985,4.8468,4.8506,4.8665,4.9066,4.9137,4.9322,4.9729,4.9754,4.992,5.0283,5.0302,5.0302,5.0302,5.0302,5.0302,5.0302,5.0325,5.0356,2.0571,2.2407,2.4415,2.5265,2.7915,3.0338,3.0452,3.0341,3.0346,3.0902,3.1199,3.1588,3.2317,3.4757,3.7726,4.0905,4.2771,4.3823,4.3731,4.4279,4.4585,4.4327,4.4795,4.5241,4.5516,4.6351,4.7302,4.8286,4.8717,4.9054,4.9376,4.9461,4.9509,4.9509,4.9528,4.9544,4.9544,4.9589,4.9589,4.9544,4.9524,4.9528,4.9585,4.9567,4.9638,4.9807,4.9871,4.9945,5.0018,5.0188,5.0213,5.0158,5.0261,5.0302,5.0302,5.0302,5.0302,5.0302,5.0302,5.0302,5.0302,5.0302,5.0302,5.0302,5.0302,5.0302,5.0302,5.0302,5.0302,5.0302,5.0302,4.9843,4.9371,4.9371,4.8869,4.8386,4.8386,4.8386,4.8386,4.8386,4.8386,4.8386,4.8386,4.8386,4.8386,4.8386,4.8386,4.8386,4.8386,4.8386,4.8386,4.8386,4.8386,4.8653,4.9314,4.9371,4.9371,4.9371,4.9958,5.0302,5.0302,5.0302,5.0302,5.0302,5.0302,5.0302,5.0302,5.0302,5.0302,5.0302,5.0314,5.0319,2.2008,2.3733,2.5303,2.61,2.6539,2.7568,3.0621,3.0739,3.0876,3.3223,3.4327,3.5106,3.5953,3.8811,4.1394,4.2482,4.4067,4.5118,4.4996,4.5132,4.5134,4.4877,4.5108,4.5383,4.5661,4.5863,4.6279,4.6971,4.7687,4.8202,4.8482,4.9123,4.9509,4.9509,4.9615,4.9678,4.9678,4.9802,4.9802,4.9678,4.9567,4.963,4.9871,4.9743,4.9835,5.0063,4.9959,5.0031,5.0267,5.0158,5.0182,5.029,5.0296,5.0302,5.0302,5.0302,5.0302,5.0302,5.0302,5.0302,5.0302,5.0302,5.0302,5.0302,5.0302,5.0302,5.0302,5.0302,5.0302,5.0302,5.0302,5.0264,5.0206,5.0206,5.0168,5.013,5.013,5.013,5.013,5.013,5.013,5.013,5.013,5.013,5.013,5.013,5.013,5.013,5.013,5.013,5.013,5.013,5.013,5.0149,5.0206,5.0206,5.0206,5.0206,5.0264,5.0302,5.0302,5.0302,5.0302,5.0302,5.0302,5.0302,5.0302,5.0302,5.0302,5.0302,5.0354,5.0396,2.0876,2.3083,2.5379,2.6195,2.759,2.9363,3.1687,3.3196,3.469,3.67,3.7784,3.8625,3.947,4.149,4.3152,4.3496,4.4532,4.5286,4.5224,4.5275,4.5197,4.4868,4.4895,4.5077,4.5471,4.5787,4.6253,4.6967,4.7409,4.7677,4.7766,4.7961,4.8064,4.8064,4.8685,4.8985,4.89,4.9474,4.9788,4.9823,4.9767,4.9764,4.9785,4.9802,4.9925,5.0095,5.005,5.0133,5.0296,5.0249,5.0255,5.0302,5.0302,5.0302,5.0302,5.0302,5.0302,5.0302,5.0302,5.0302,5.0302,5.0302,5.0302,5.0302,5.0302,5.0302,5.0302,5.0302,5.0302,5.0302,5.0302,5.0302,5.0302,5.0302,5.0302,5.0302,5.0302,5.0302,5.0302,5.0302,5.0302,5.0302,5.0302,5.0302,5.0302,5.0302,5.0302,5.0302,5.0302,5.0302,5.0302,5.0302,5.0302,5.0302,5.0302,5.0302,5.0302,5.0302,5.0302,5.0302,5.0302,5.0302,5.0302,5.0302,5.0302,5.0302,5.0302,5.0302,5.0302,5.0302,5.0319,5.0354,2.0518,2.2603,2.5052,2.6138,2.8316,3.0854,3.3329,3.543,3.7517,3.9737,4.0669,4.1261,4.18,4.2851,4.3706,4.3968,4.4723,4.5302,4.5302,4.5302,4.5205,4.4994,4.4807,4.4883,4.5313,4.55,4.5843,4.648,4.6822,4.7018,4.7056,4.7146,4.7228,4.7257,4.7927,4.8351,4.8522,4.9182,4.9653,4.9972,5.0018,4.9965,4.9823,4.9925,5.0018,5.0101,5.0145,5.0219,5.0302,5.0302,5.0302,5.0302,5.0302,5.0302,5.0302,5.0302,5.0302,5.0302,5.0302,5.0302,5.0302,5.0302,5.0302,5.0302,5.0302,5.0302,5.0302,5.0302,5.0302,5.0302,5.0302,5.0302,5.0302,5.0302,5.0302,5.0302,5.0302,5.0302,5.0302,5.0302,5.0302,5.0302,5.0302,5.0302,5.0206,4.9958,4.992,4.9824,4.9551,4.9513,4.9513,4.9513,4.9767,4.992,4.992,5.0149,5.0187,4.9939,4.992,5.0034,5.0283,5.0302,5.0302,5.0302,5.0302,5.0302,5.0302,5.0302,5.0436,5.0703,5.0703,5.0874,2.1407,2.2641,2.4336,2.6001,2.8354,3.135,3.5564,3.7154,3.8686,4.2125,4.2813,4.2813,4.2813,4.2813,4.3075,4.3873,4.4723,4.5302,4.5302,4.5302,4.5302,4.5302,4.4959,4.4868,4.5256,4.4934,4.4875,4.5262,4.5779,4.6158,4.6272,4.6871,4.7238,4.7377,4.7523,4.797,4.8769,4.8997,4.9435,5.0082,5.0237,5.0231,5.0101,5.0101,5.0101,5.0108,5.0243,5.0302,5.0302,5.0302,5.0302,5.0302,5.0302,5.0302,5.0302,5.0302,5.0302,5.0302,5.0302,5.0302,5.0302,5.0302,5.0302,5.0302,5.0302,5.0302,5.0302,5.0302,5.0302,5.0302,5.0302,5.0302,5.0302,5.0302,5.0302,5.0302,5.0302,5.0302,5.0302,5.0302,5.0302,5.0302,5.0302,5.0302,5.0034,4.9238,4.9104,4.8798,4.7927,4.7813,4.7813,4.7813,4.8602,4.9104,4.9104,4.9843,4.9958,4.9161,4.9104,4.9467,5.0245,5.0283,5.0283,5.0283,5.0302,5.0302,5.0302,5.0321,5.0774,5.1614,5.1614,5.204,2.1557,2.3921,2.6839,2.7886,3.1419,3.5263,3.7708,3.8911,4.0497,4.3869,4.4557,4.436,4.3763,4.415,4.4437,4.4064,4.4723,4.5302,4.5302,4.5302,4.5302,4.5302,4.5189,4.5167,4.5297,4.5184,4.5167,4.5297,4.5371,4.5405,4.5458,4.5636,4.5745,4.578,4.646,4.6896,4.7045,4.8273,4.8983,4.9188,4.986,5.0139,5.0101,5.0201,5.0243,5.0243,5.0284,5.0302,5.0302,5.0302,5.0302,5.0302,5.0302,5.0302,5.0302,5.0302,5.0302,5.0302,5.0302,5.0302,5.0302,5.0302,5.0302,5.0302,5.0302,5.0302,5.0302,5.0302,5.0302,5.0302,5.0302,5.0302,5.0302,5.0302,5.0302,5.0302,5.0302,5.0302,5.0302,5.0302,5.0302,5.0302,5.0302,5.0302,5.0225,4.9977,4.9939,4.9843,4.9589,4.9551,4.9551,4.9551,4.9786,4.9939,4.9939,5.0168,5.0206,4.9958,4.9939,4.9519,4.8577,4.9137,4.9467,4.9467,5.0608,5.1213,5.1213,5.1773,5.2193,5.2442,5.2442,5.26,2.316,2.5507,2.8214,3.0392,3.3731,3.7283,4.0306,4.1394,4.2445,4.4805,4.501,4.4723,4.4546,4.4666,4.4723,4.4546,4.4953,4.5302,4.5302,4.5302,4.5302,4.5302,4.5302,4.5302,4.5302,4.5302,4.5302,4.5302,4.5175,4.5125,4.5175,4.5131,4.5131,4.5175,4.5723,4.6138,4.6378,4.7375,4.8061,4.8404,4.8937,4.9185,4.9204,4.9955,5.0273,5.0225,5.0278,5.0302,5.0302,5.0302,5.0302,5.0302,5.0302,5.0302,5.0302,5.0302,5.0302,5.0302,5.0302,5.0302,5.0302,5.0302,5.0302,5.0302,5.0302,5.0302,5.0302,5.0302,5.0302,5.0302,5.0302,5.0302,5.0302,5.0302,5.0302,5.0302,5.0302,5.0302,5.0302,5.0302,5.0302,5.0302,5.0302,5.0302,5.0187,4.9862,4.9538,4.9303,4.9303,4.9303,4.9303,4.9303,4.9614,4.9824,4.9824,5.0111,5.0168,4.9843,4.9824,4.9366,4.8353,4.9137,4.9729,5.0092,5.1079,5.1767,5.2079,5.2556,5.2983,5.332,5.332,5.3511,2.5412,2.709,2.8924,3.3074,3.5611,3.8315,4.3032,4.4121,4.4336,4.5149,4.4666,4.4355,4.5149,4.4647,4.4374,4.5168,4.5302,4.5302,4.5302,4.5302,4.5302,4.5302,4.5302,4.5302,4.5302,4.5302,4.5302,4.5302,4.5186,4.517,4.5297,4.5181,4.5175,4.5302,4.5302,4.5646,4.6385,4.6457,4.6896,4.7679,4.7755,4.7794,4.7851,4.9379,5.0046,5.0012,5.0134,5.0225,5.0302,5.0302,5.0302,5.0302,5.0302,5.0302,5.0302,5.0302,5.0302,5.0302,5.0302,5.0302,5.0302,5.0302,5.0302,5.0302,5.0302,5.0302,5.0302,5.0302,5.0302,5.0302,5.0302,5.0302,5.0302,5.0302,5.0302,5.0302,5.0302,5.0302,5.0302,5.0302,5.0302,5.0302,5.0302,5.0302,5.0054,4.9314,4.8544,4.8042,4.8042,4.8042,4.8042,4.8042,4.8735,4.9219,4.9219,4.9882,4.9996,4.9257,4.9276,4.9333,4.9333,4.9939,5.0703,5.1576,5.1748,5.2187,5.2925,5.3002,5.3435,5.4218,5.4218,5.4632,2.4883,2.7517,3.0513,3.4063,3.8228,4.2068,4.4475,4.501,4.5073,4.5264,4.5149,4.5073,4.5264,4.5149,4.5073,4.5264,4.5302,4.5302,4.5302,4.5302,4.5302,4.5302,4.5302,4.5302,4.5302,4.5302,4.5302,4.5302,4.5281,4.5275,4.5302,4.5281,4.5275,4.5302,4.5302,4.5378,4.5569,4.6175,4.659,4.6781,4.7469,4.7794,4.7813,4.8176,4.8699,4.9312,4.9341,4.9715,5.0302,5.0302,5.0302,5.0302,5.0302,5.0302,5.0302,5.0302,5.0302,5.0302,5.0302,5.0302,5.0302,5.0302,5.0302,5.0302,5.0302,5.0302,5.0302,5.0302,5.0302,5.0302,5.0302,5.0302,5.0302,5.0302,5.0302,5.0302,5.0302,5.0302,5.0302,5.0302,5.0302,5.0302,5.0302,5.0302,5.0245,5.0073,4.9882,4.9767,4.9767,4.9767,4.9767,4.9767,4.9939,5.0034,5.0034,5.0206,5.0225,5.0054,5.0684,5.106,5.106,5.0569,5.0703,5.1576,5.2894,5.3645,5.3817,5.4505,5.4944,5.511,5.511,5.5224,2.5488,2.8259,3.1297,3.5878,3.9928,4.3138,4.4399,4.4991,4.5302,4.5302,4.5302,4.5302,4.5302,4.5302,4.5302,4.5302,4.5302,4.5302,4.5302,4.5302,4.5302,4.5302,4.5302,4.5302,4.5302,4.5302,4.5302,4.5302,4.5302,4.5302,4.5302,4.5302,4.5302,4.5302,4.5302,4.5302,4.5302,4.5722,4.5927,4.5927,4.6385,4.6596,4.6634,4.7431,4.8042,4.8487,4.8487,4.8716,4.9131,4.9557,4.9729,4.9767,5.0149,5.0302,5.0302,5.0302,5.0302,5.0302,5.0302,5.0302,5.0302,5.0302,5.0302,5.0302,5.0302,5.0302,5.0302,5.0302,5.0302,5.0302,5.0302,5.0302,5.0302,5.0302,5.0302,5.0302,5.0302,5.0302,5.0302,5.0302,5.0302,5.0302,5.0302,5.0302,5.0302,5.0302,5.0302,5.0302,5.0302,5.0302,5.0302,5.0302,5.0302,5.0302,5.0302,5.0678,5.0926,5.0926,5.1716,5.2365,5.2779,5.2365,5.2327,5.2779,5.3645,5.4314,5.4715,5.5186,5.5396,5.5396,5.5396,5.5396,2.539,2.8485,3.1793,3.7559,4.0692,4.2617,4.3591,4.4456,4.5073,4.5073,4.5206,4.5302,4.5302,4.5302,4.5302,4.5302,4.5302,4.5302,4.5302,4.5302,4.5302,4.5302,4.5302,4.5302,4.5302,4.5302,4.5302,4.5302,4.5302,4.5302,4.5302,4.5302,4.5302,4.5302,4.5302,4.5302,4.5302,4.5302,4.5302,4.5302,4.5302,4.5302,4.534,4.6748,4.745,4.7584,4.7584,4.766,4.787,4.8582,4.8951,4.9161,4.9824,5.0187,5.0302,5.0302,5.0302,5.0302,5.0302,5.0302,5.0302,5.0302,5.0302,5.0302,5.0302,5.0302,5.0302,5.0302,5.0302,5.0302,5.0302,5.0302,5.0302,5.0302,5.0302,5.0302,5.0302,5.0302,5.0302,5.0302,5.0302,5.0302,5.0302,5.0302,5.0302,5.0302,5.0302,5.0302,5.0302,5.0302,5.0302,5.0302,5.0302,5.0302,5.0302,5.1098,5.1595,5.1595,5.2499,5.3339,5.4065,5.4237,5.4314,5.4314,5.4314,5.4677,5.5396,5.5396,5.5396,5.5396,5.5396,5.5396,2.1653,2.6692,3.2554,3.7712,3.9828,4.1031,4.2598,4.3591,4.4159,4.4159,4.4762,4.5302,4.5302,4.5302,4.5302,4.5302,4.5302,4.5302,4.5302,4.5302,4.5302,4.5302,4.5302,4.5302,4.5302,4.5302,4.5302,4.5302,4.5302,4.5302,4.5302,4.5302,4.5302,4.5302,4.5302,4.5302,4.5302,4.5302,4.5302,4.5302,4.5302,4.5302,4.5302,4.5531,4.6003,4.6667,4.6667,4.7106,4.7813,4.7927,4.843,4.9104,4.9219,4.9691,5.0302,5.0302,5.0302,5.0302,5.0302,5.0302,5.0302,5.0302,5.0302,5.0302,5.0302,5.0302,5.0302,5.0302,5.0302,5.0302,5.0302,5.0302,5.0302,5.0302,5.0302,5.0302,5.0302,5.0302,5.0302,5.0302,5.0302,5.0302,5.0302,5.0302,5.0302,5.0302,5.0302,5.0302,5.0302,5.0302,5.0302,5.0302,5.0302,5.0302,5.0302,5.1098,5.1595,5.1595,5.3053,5.397,5.4104,5.483,5.5224,5.5224,5.5224,5.5282,5.5396,5.5396,5.5396,5.5396,5.5396,5.5396,2.3103,2.7418,3.1752,3.5855,3.8223,3.9885,4.1127,4.2407,4.3457,4.3911,4.4298,4.4723,4.5206,4.5302,4.5302,4.5302,4.5302,4.5302,4.5302,4.5302,4.5302,4.5302,4.5302,4.5302,4.5302,4.5302,4.5302,4.5302,4.5302,4.5302,4.5302,4.5302,4.5302,4.5302,4.5302,4.5302,4.5302,4.5302,4.5302,4.5302,4.5302,4.5302,4.5302,4.5302,4.5493,4.5831,4.5831,4.6042,4.6424,4.6896,4.7297,4.7685,4.8181,4.8888,4.9639,4.9639,4.9901,5.0302,5.0302,5.0302,5.0302,5.0302,5.0302,5.0302,5.0302,5.0302,5.0302,5.0302,5.0302,5.0302,5.0302,5.0302,5.0302,5.0302,5.0302,5.0302,5.0302,5.0302,5.0302,5.0302,5.0302,5.0302,5.0302,5.0302,5.0302,5.0302,5.0302,5.0302,5.0302,5.0302,5.0302,5.0302,5.0302,5.0506,5.0984,5.1792,5.248,5.2977,5.4161,5.483,5.483,5.5205,5.5396,5.5396,5.5396,5.5396,5.5396,5.5396,5.5396,5.5396,5.5396,5.5396,2.3638,2.6673,2.9176,3.2974,3.584,3.8056,3.935,4.0955,4.2388,4.3209,4.3534,4.3954,4.48,4.5149,4.5302,4.5302,4.5302,4.5302,4.5302,4.5302,4.5302,4.5302,4.5302,4.5302,4.5302,4.5302,4.5302,4.5302,4.5302,4.5302,4.5302,4.5302,4.5302,4.5302,4.5302,4.5302,4.5302,4.5302,4.5302,4.5302,4.5302,4.5302,4.5302,4.5302,4.5302,4.5302,4.5302,4.5302,4.5359,4.5946,4.6328,4.6552,4.7221,4.8004,4.8779,4.8779,4.9289,4.9996,4.9996,5.013,5.0302,5.0302,5.0302,5.0302,5.0302,5.0302,5.0302,5.0302,5.0302,5.0302,5.0302,5.0302,5.0302,5.0302,5.0302,5.0302,5.0302,5.0302,5.0302,5.0302,5.0302,5.0302,5.0302,5.0302,5.0302,5.0302,5.0302,5.0302,5.0302,5.0302,5.0302,5.0302,5.0302,5.0646,5.1538,5.2346,5.3168,5.4046,5.4919,5.5396,5.5396,5.5396,5.5396,5.5396,5.5396,5.5396,5.5396,5.5396,5.5396,5.5403,5.5409,5.5402,2.0487,2.2319,2.4205,2.9214,3.2386,3.4889,3.7296,3.9179,4.0669,4.1457,4.2297,4.3114,4.3911,4.4743,4.5302,4.5302,4.5302,4.5302,4.5302,4.5302,4.5302,4.5302,4.5302,4.5302,4.5302,4.5302,4.5302,4.5302,4.5302,4.5302,4.5302,4.5302,4.5302,4.5302,4.5302,4.5302,4.5302,4.5302,4.5302,4.5302,4.5302,4.5302,4.5302,4.5302,4.5302,4.5302,4.5302,4.5302,4.5302,4.534,4.5812,4.6495,4.6552,4.7106,4.787,4.787,4.843,4.9161,4.9161,4.9658,5.0302,5.0302,5.0302,5.0302,5.0302,5.0302,5.0302,5.0302,5.0302,5.0302,5.0302,5.0302,5.0302,5.0302,5.0302,5.0302,5.0302,5.0302,5.0302,5.0302,5.0302,5.0302,5.0302,5.0302,5.0302,5.0302,5.0302,5.0302,5.0302,5.0302,5.0302,5.0302,5.0302,5.0646,5.1538,5.2346,5.3168,5.4046,5.4919,5.5396,5.5396,5.5396,5.5396,5.5396,5.5396,5.5396,5.5396,5.5396,5.5396,5.5403,5.5409,5.5402,1.9226,2.117,2.3422,2.6902,2.9673,3.2214,3.4755,3.7043,3.903,4.0439,4.1399,4.2221,4.3075,4.3916,4.4647,4.5206,4.5302,4.5302,4.5302,4.5302,4.5302,4.5302,4.5302,4.5302,4.5302,4.5302,4.5302,4.5302,4.5302,4.5302,4.5302,4.5302,4.5302,4.5302,4.5302,4.5302,4.5302,4.5302,4.5302,4.5302,4.5302,4.5302,4.5302,4.5302,4.5302,4.5302,4.5302,4.5302,4.5302,4.5302,4.5474,4.5741,4.5741,4.6233,4.6972,4.6972,4.7526,4.8353,4.8913,4.9295,4.962,5.013,5.0302,5.0302,5.0302,5.0302,5.0302,5.0302,5.0302,5.0302,5.0302,5.0302,5.0302,5.0302,5.0302,5.0302,5.0302,5.0302,5.0302,5.0302,5.0302,5.0302,5.0302,5.0302,5.0302,5.0302,5.0302,5.0302,5.0302,5.0302,5.0302,5.0302,5.0793,5.1461,5.2308,5.3148,5.4008,5.4887,5.5224,5.5396,5.5396,5.5396,5.5396,5.5396,5.5396,5.5396,5.5396,5.5396,5.5403,5.5409,5.5432,5.5492,1.7903,1.968,2.203,2.4855,2.6823,2.9058,3.2726,3.4846,3.6581,3.8606,3.9909,4.0922,4.18,4.2617,4.3534,4.4685,4.4857,4.4972,4.5264,4.5302,4.5302,4.5302,4.5302,4.5302,4.5302,4.5302,4.5302,4.5302,4.5302,4.5302,4.5302,4.5302,4.5302,4.5302,4.5302,4.5302,4.5302,4.5302,4.5302,4.5302,4.5302,4.5302,4.5302,4.5302,4.5302,4.5302,4.5302,4.5302,4.5302,4.5302,4.5302,4.5302,4.5302,4.5627,4.6099,4.6099,4.6628,4.7488,4.8353,4.8856,4.9238,5.0034,5.0302,5.0302,5.0302,5.0302,5.0302,5.0302,5.0302,5.0302,5.0302,5.0302,5.0302,5.0302,5.0302,5.0302,5.0302,5.0302,5.0302,5.0302,5.0302,5.0302,5.0302,5.0302,5.0302,5.0302,5.0302,5.0302,5.0302,5.0302,5.0411,5.0703,5.1251,5.2034,5.3135,5.376,5.4467,5.5339,5.5396,5.5396,5.5396,5.5396,5.5396,5.5396,5.5396,5.5396,5.5396,5.5396,5.5396,5.5402,5.5468,5.5551,0.0,0.0,0.0,2.298,2.384,2.5384,3.119,3.2543,3.3326,3.5908,3.7746,3.9159,4.0057,4.0883,4.1972,4.3624,4.393,4.426,4.5111,4.5244,4.5264,4.5264,4.5283,4.5302,4.5302,4.5302,4.5302,4.5302,4.5302,4.5302,4.5302,4.5302,4.5302,4.5302,4.5302,4.5302,4.5302,4.5302,4.5302,4.5302,4.5302,4.5302,4.5302,4.5302,4.5302,4.5302,4.5302,4.5302,4.5302,4.5302,4.5302,4.5302,4.5302,4.5302,4.5302,4.5302,4.5793,4.659,4.7488,4.8353,4.92,5.0034,5.0302,5.0302,5.0302,5.0302,5.0302,5.0302,5.0302,5.0302,5.0302,5.0302,5.0302,5.0302,5.0302,5.0302,5.0302,5.0302,5.0302,5.0302,5.0302,5.0302,5.0302,5.0302,5.0302,5.0302,5.0321,5.034,5.034,5.0359,5.0703,5.1557,5.1652,5.2321,5.3951,5.4123,5.4505,5.5339,5.5396,5.5396,5.5396,5.5396,5.5396,5.5396,5.5396,5.5396,5.5396,5.5396,5.5396,5.5408,5.5474,5.5573,1.7599,0.0,0.0,0.0,0.0,0.0,2.7358,2.907,3.0846,3.4044,3.5515,3.6695,3.8151,3.9126,4.0043,4.1146,4.235,4.3214,4.3463,4.3992,4.4355,4.4355,4.4914,4.5302,4.5302,4.5302,4.5302,4.5302,4.5302,4.5302,4.5302,4.5302,4.5302,4.5302,4.5302,4.5302,4.5302,4.5302,4.5302,4.5302,4.5302,4.5302,4.5302,4.5302,4.5302,4.5302,4.5302,4.5302,4.5302,4.5302,4.5302,4.5302,4.5302,4.5302,4.5302,4.5302,4.5436,4.5831,4.7297,4.7966,4.8411,4.9824,5.0302,5.0302,5.0302,5.0302,5.0302,5.0302,5.0302,5.0302,5.0302,5.0302,5.0302,5.0302,5.0302,5.0302,5.0302,5.0302,5.0302,5.0302,5.0302,5.0302,5.0302,5.0302,5.0302,5.0302,5.0837,5.1232,5.1232,5.1754,5.2199,5.2442,5.3034,5.3607,5.4065,5.4677,5.5129,5.5377,5.5396,5.5396,5.5396,5.5396,5.5396,5.5396,5.5396,5.5396,5.5396,5.5396,5.5422,5.548,5.559,5.5657,1.9107,1.999,2.1443,2.1643,0.0,0.0,2.6116,2.7166,2.8214,3.1255,3.3085,3.446,3.5435,3.6905,3.8128,3.862,4.0115,4.159,4.266,4.319,4.3496,4.3496,4.4241,4.4762,4.4762,4.5092,4.5302,4.5302,4.5302,4.5302,4.5302,4.5302,4.5302,4.5302,4.5302,4.5302,4.5302,4.5302,4.5302,4.5302,4.5302,4.5302,4.5302,4.5302,4.5302,4.5302,4.5302,4.5302,4.5302,4.5302,4.5302,4.5302,4.5302,4.5302,4.5302,4.5302,4.5302,4.555,4.7221,4.7794,4.808,4.9767,5.0302,5.0302,5.0302,5.0302,5.0302,5.0302,5.0302,5.0302,5.0302,5.0302,5.0302,5.0302,5.0302,5.0302,5.0302,5.0302,5.0302,5.0302,5.0302,5.0302,5.0302,5.0302,5.0417,5.0799,5.127,5.1729,5.2059,5.2499,5.2944,5.3301,5.3798,5.4256,5.4619,5.511,5.5396,5.5396,5.5396,5.5396,5.5396,5.5396,5.5396,5.5396,5.5396,5.5396,5.5396,5.5396,5.5428,5.5504,5.5629,5.5708,2.1127,2.1361,2.2398,2.3591,2.2404,0.0,2.6189,2.6195,2.595,2.8172,3.0423,3.2088,3.2374,3.4265,3.5832,3.5927,3.7421,3.947,4.203,4.2545,4.266,4.266,4.3362,4.3873,4.3873,4.4647,4.5168,4.5168,4.5244,4.5302,4.5302,4.5302,4.5302,4.5302,4.5302,4.5302,4.5302,4.5302,4.5302,4.5302,4.5302,4.5302,4.5302,4.5302,4.5302,4.5302,4.5302,4.5302,4.5302,4.5302,4.5302,4.5302,4.5302,4.5302,4.5302,4.5302,4.5359,4.5665,4.7259,4.787,4.8195,4.978,5.0302,5.0302,5.0302,5.0302,5.0302,5.0302,5.0302,5.0302,5.0302,5.0302,5.0302,5.0302,5.0302,5.0302,5.0302,5.0302,5.0302,5.0302,5.0302,5.0302,5.0302,5.0302,5.0602,5.1461,5.1671,5.204,5.2843,5.304,5.3397,5.4161,5.4237,5.4562,5.532,5.5396,5.5396,5.5396,5.5396,5.5396,5.5396,5.5396,5.5396,5.5396,5.5396,5.5396,5.5396,5.5403,5.5434,5.5504,5.5624,5.5678,2.465,2.5316,2.6058,2.4336,2.5062,0.0,2.3995,2.4934,2.6291,2.6784,2.7281,2.8255,3.03,3.1083,3.1656,3.2359,3.4422,3.6829,3.9374,4.0903,4.1748,4.1748,4.2507,4.3018,4.3018,4.3763,4.426,4.426,4.4895,4.5302,4.5302,4.5302,4.5302,4.5302,4.5302,4.5302,4.5302,4.5302,4.5302,4.5302,4.5302,4.5302,4.5302,4.5302,4.5302,4.5302,4.5302,4.5302,4.5302,4.5302,4.5302,4.5302,4.5302,4.5302,4.5302,4.5302,4.5703,4.6405,4.745,4.8258,4.9008,4.9977,5.0302,5.0302,5.0302,5.0302,5.0302,5.0302,5.0302,5.0302,5.0302,5.0302,5.0302,5.0302,5.0302,5.0302,5.0302,5.0302,5.0302,5.0302,5.0302,5.0302,5.0302,5.0302,5.0602,5.1461,5.2155,5.2881,5.3741,5.4467,5.4957,5.5129,5.5148,5.5224,5.5396,5.5396,5.5396,5.5396,5.5396,5.5396,5.5396,5.5396,5.5396,5.5396,5.5396,5.5396,5.5396,5.5396,5.5426,5.5504,5.5579,5.564,2.7017,2.7052,2.7488,2.6606,2.6418,0.0,0.0,2.5141,2.5504,2.6784,2.6386,2.658,2.9093,2.923,2.9363,3.0643,3.2607,3.4399,3.5683,3.8018,3.9608,3.9608,4.0769,4.1547,4.1547,4.2674,4.3572,4.3968,4.4393,4.4838,4.5283,4.5302,4.5302,4.5302,4.5302,4.5302,4.5302,4.5302,4.5302,4.5302,4.5302,4.5302,4.5302,4.5302,4.5302,4.5302,4.5302,4.5302,4.5302,4.5302,4.5302,4.5302,4.5302,4.5302,4.5302,4.5302,4.5812,4.6609,4.7507,4.8372,4.9238,5.0034,5.0302,5.0302,5.0302,5.0302,5.0302,5.0302,5.0302,5.0302,5.0302,5.0302,5.0302,5.0302,5.0302,5.0302,5.0302,5.0302,5.0302,5.0302,5.0302,5.0302,5.0302,5.0665,5.1232,5.2079,5.29,5.376,5.4639,5.5129,5.5396,5.5396,5.5396,5.5396,5.5396,5.5396,5.5396,5.5396,5.5396,5.5396,5.5396,5.5396,5.5396,5.5396,5.5396,5.5396,5.5396,5.5409,5.5438,5.5504,5.5602,5.5676,2.9303,2.8902,2.9093,2.8933,2.7892,2.6908,0.0,0.0,0.0,2.6648,2.5889,2.5606,2.779,2.7526,2.7472,2.8985,3.064,3.1744,3.1744,3.435,3.6436,3.6933,3.851,3.9637,3.979,4.1017,4.2354,4.3668,4.33,4.3629,4.4972,4.5053,4.513,4.5283,4.5302,4.5302,4.5302,4.5302,4.5302,4.5302,4.5302,4.5302,4.5302,4.5302,4.5302,4.5302,4.5302,4.5302,4.5302,4.5302,4.5302,4.5302,4.5302,4.5302,4.5302,4.5302,4.5927,4.6858,4.7564,4.8468,4.9448,5.0092,5.0302,5.0302,5.0302,5.0302,5.0302,5.0302,5.0302,5.0302,5.0302,5.0302,5.0302,5.0302,5.0302,5.0302,5.0302,5.0302,5.0302,5.0302,5.0302,5.0302,5.0302,5.1022,5.1862,5.2677,5.3531,5.4409,5.5282,5.5396,5.5396,5.5396,5.5396,5.5396,5.5396,5.5396,5.5396,5.5396,5.5396,5.5396,5.5396,5.5396,5.5396,5.5396,5.5396,5.5396,5.5396,5.5409,5.5438,5.5504,5.5618,5.5775,3.2604,3.3215,3.3467,2.9812,3.0965,3.1488,2.5654,0.0,2.6705,2.4737,0.0,2.4377,2.5437,0.0,0.0,2.5609,2.717,2.8271,2.8271,2.986,3.1889,3.4144,3.5912,3.7211,3.7922,3.8171,3.9565,4.2698,4.084,4.0917,4.3968,4.414,4.4489,4.5283,4.5302,4.5302,4.5302,4.5302,4.5302,4.5302,4.5302,4.5302,4.5302,4.5302,4.5302,4.5302,4.5302,4.5302,4.5302,4.5302,4.5302,4.5302,4.5302,4.5302,4.5302,4.5302,4.6309,4.7679,4.7775,4.8844,5.0187,5.0264,5.0302,5.0302,5.0302,5.0302,5.0302,5.0302,5.0302,5.0302,5.0302,5.0302,5.0302,5.0302,5.0302,5.0302,5.0302,5.0302,5.0302,5.0302,5.0302,5.0302,5.0302,5.1022,5.1862,5.2677,5.3531,5.4409,5.5282,5.5396,5.5396,5.5396,5.5396,5.5396,5.5396,5.5396,5.5396,5.5396,5.5396,5.5396,5.5396,5.5396,5.5396,5.5396,5.5396,5.5396,5.5396,5.5409,5.5438,5.5504,5.5573,5.6063,3.3158,3.3582,3.3834,3.1057,3.1083,3.08,2.6972,2.6173,2.6214,2.6113,0.0,0.0,0.0,0.0,0.0,0.0,2.6482,2.6784,2.6313,2.7265,2.8947,3.1488,3.286,3.4308,3.6088,3.626,3.7254,3.9661,3.8858,3.9298,4.1714,4.3223,4.4164,4.4527,4.5034,4.5302,4.5302,4.5302,4.5302,4.5302,4.5302,4.5302,4.5302,4.5302,4.5302,4.5302,4.5302,4.5302,4.5302,4.5302,4.5302,4.5302,4.5302,4.5302,4.5302,4.5302,4.6366,4.7794,4.7794,4.8902,5.0302,5.0302,5.0302,5.0302,5.0302,5.0302,5.0302,5.0302,5.0302,5.0302,5.0302,5.0302,5.0302,5.0302,5.0302,5.0302,5.0302,5.0302,5.0302,5.0302,5.0302,5.0449,5.0965,5.1735,5.2403,5.2753,5.397,5.5002,5.5339,5.5396,5.5396,5.5396,5.5396,5.5396,5.5396,5.5396,5.5396,5.5396,5.5396,5.5396,5.5396,5.5396,5.5396,5.5396,5.5396,5.5396,5.5396,5.5409,5.5438,5.5504,5.6086,5.6596,3.4208,3.4365,3.4373,3.1732,3.0815,2.994,2.7571,2.6596,2.6424,2.7186,2.644,0.0,0.0,0.0,2.5253,2.6233,0.0,2.6119,2.5306,2.5491,2.6482,2.8587,3.0208,3.1943,3.3983,3.3754,3.4365,3.6513,3.6035,3.6891,3.979,4.1886,4.33,4.3987,4.4857,4.5302,4.5302,4.5302,4.5302,4.5302,4.5302,4.5302,4.5302,4.5302,4.5302,4.5302,4.5302,4.5302,4.5302,4.5302,4.5302,4.5302,4.5302,4.5302,4.5302,4.5302,4.6366,4.7794,4.7794,4.8902,5.0302,5.0302,5.0302,5.0302,5.0302,5.0302,5.0302,5.0302,5.0302,5.0302,5.0302,5.0302,5.0302,5.0302,5.0302,5.0302,5.0302,5.0302,5.0302,5.0302,5.0302,5.0588,5.1442,5.227,5.2887,5.3116,5.4448,5.5396,5.5396,5.5396,5.5396,5.5396,5.5396,5.5396,5.5396,5.5396,5.5396,5.5396,5.5396,5.5396,5.5396,5.5396,5.5396,5.5396,5.5396,5.5396,5.5396,5.5409,5.5553,5.5868,5.6572,5.7057,3.6825,3.6963,3.6398,3.1469,3.0854,3.0376,2.622,2.7109,2.8344,2.6765,2.8335,2.9539,2.7985,2.7622,2.7319,2.6539,2.6405,0.0,0.0,2.4495,2.432,2.5246,2.8243,3.0609,3.1522,3.0082,3.0503,3.3876,3.1832,3.2959,3.8725,3.9924,4.1523,4.3911,4.4857,4.5302,4.5302,4.5302,4.5302,4.5302,4.5302,4.5302,4.5302,4.5302,4.5302,4.5302,4.5302,4.5302,4.5302,4.5302,4.5302,4.5302,4.5302,4.5302,4.5302,4.5302,4.6366,4.7794,4.7794,4.8902,5.0302,5.0302,5.0302,5.0302,5.0302,5.0302,5.0302,5.0302,5.0302,5.0302,5.0302,5.0302,5.0302,5.0302,5.0302,5.0302,5.0302,5.0302,5.0302,5.0302,5.0302,5.0588,5.1442,5.227,5.3091,5.3932,5.4823,5.5396,5.5396,5.5396,5.5396,5.5396,5.5396,5.5396,5.5396,5.5396,5.5396,5.5396,5.5396,5.5396,5.5396,5.5396,5.5396,5.5396,5.5396,5.5396,5.5396,5.5409,5.5866,5.6756,5.6865,5.7384,3.7445,3.7903,3.7617,3.3685,3.2497,3.1347,2.7682,2.7927,2.8417,2.6746,2.8431,2.9692,2.8004,2.7698,2.7412,2.6539,2.6405,2.5718,0.0,2.2778,2.2548,2.3389,2.5966,2.78,2.8103,2.8118,2.8803,3.0503,3.085,3.2363,3.5519,3.8625,4.0936,4.2297,4.3706,4.4723,4.5283,4.5302,4.5302,4.5302,4.5302,4.5302,4.5302,4.5302,4.5302,4.5302,4.5302,4.5302,4.5302,4.5302,4.5302,4.5302,4.5302,4.5302,4.5359,4.5908,4.6819,4.7966,4.9074,4.9818,5.0302,5.0302,5.0302,5.0302,5.0302,5.0302,5.0302,5.0302,5.0302,5.0302,5.0302,5.0302,5.0302,5.0302,5.0302,5.0302,5.0302,5.0302,5.0302,5.0302,5.0774,5.1423,5.2251,5.3091,5.376,5.4065,5.4849,5.5396,5.5396,5.5396,5.5396,5.5396,5.5396,5.5396,5.5396,5.5396,5.5396,5.5396,5.5396,5.5396,5.5396,5.5396,5.5396,5.5409,5.5409,5.5409,5.5409,5.5438,5.5927,5.6814,5.7455,5.8243,3.8247,3.8572,3.8266,3.519,3.4002,3.2718,2.9344,2.9685,3.0239,2.8523,2.9726,3.0949,3.0468,2.915,2.8042,2.78,2.6998,2.5507,0.0,2.2412,2.2376,2.2584,2.432,2.5638,2.595,2.6192,2.6819,2.7924,2.9016,3.0777,3.3394,3.6982,3.9733,4.1442,4.3133,4.4413,4.5283,4.5302,4.5302,4.5302,4.5302,4.5302,4.5302,4.5302,4.5302,4.5302,4.5302,4.5302,4.5302,4.5302,4.5302,4.5302,4.5302,4.5474,4.5793,4.6309,4.724,4.8468,4.9824,5.0302,5.0302,5.0302,5.0302,5.0302,5.0302,5.0302,5.0302,5.0302,5.0302,5.0302,5.0302,5.0302,5.0302,5.0302,5.0302,5.0302,5.0302,5.0302,5.0302,5.0302,5.1003,5.1862,5.2652,5.3511,5.4218,5.4524,5.5033,5.5396,5.5396,5.5396,5.5396,5.5396,5.5396,5.5396,5.5396,5.5396,5.5396,5.5396,5.5403,5.5396,5.5396,5.5396,5.5409,5.5438,5.5414,5.5414,5.5438,5.5504,5.6134,5.731,5.7945,5.8856]}]]